<?xml version="1.0" encoding="UTF-8" standalone="no" ?>
<gpx xmlns="http://www.topografix.com/GPX/1/1" xmlns:xsi="http://www.w3.org/2001/XMLSchema-instance" xsi:schemaLocation="http://www.topografix.com/GPX/1/1 http://www.topografix.com/GPX/1/1/gpx.xsd" version="1.1" creator="VisuGPX - https://www.visugpx.com">
  <metadata>
    <name>Paradiski J6-2016 (JLo)</name>
    <desc><![CDATA[Dernière journée qui se termine sous la neige alors que le vent se lève...
On tenait pourtant une bonne moyenne avec 60 km parcourus en 4h10 !!!]]></desc>
  </metadata>
  <trk>
    <name><![CDATA[2016-03-25 08:58]]></name>
    <desc><![CDATA[<p>Temps de départ: 03/25/2016 08:59</p><p>Temps d'arrivée: 03/25/2016 13:10</p><p>Distance: 59,4 km (04:10)</p><p>Temps déplacement: 03:33</p><p>Vitesse moyenne: 14,2 km/h</p><p>Vitesse moyenne mouvement: 16,7 km/h</p><p>Vitess Max.: 58,1km/h</p><p>Altitude minimale: 1519 m</p><p>Altitude maximale: 2732 m</p><p>Vitesse d'élévation: 2696,1 m/h</p><p>Vitesse de descente: -3453,5 m/h</p><p>Gain Altitude: 6210 m</p><p>Perte Altitude: -6203 m</p><p>Temps d'élévation: 02:18</p><p>Temps de descente: 01:47</p><hr align="center" width="480" style="height: 2px; width: 517px"/>]]></desc>
    <trkseg>
      <trkpt lat="45.51208" lon="6.66685">
        <ele>2067.53</ele>
        <time>2016-03-25T07:59:49Z</time>
      </trkpt>
      <trkpt lat="45.51191" lon="6.66693">
        <ele>2018.57</ele>
        <time>2016-03-25T07:59:54Z</time>
      </trkpt>
      <trkpt lat="45.5121" lon="6.66686">
        <ele>2031.01</ele>
        <time>2016-03-25T07:59:56Z</time>
      </trkpt>
      <trkpt lat="45.51229" lon="6.6669">
        <ele>2055.73</ele>
        <time>2016-03-25T08:02:08Z</time>
      </trkpt>
      <trkpt lat="45.5125" lon="6.66693">
        <ele>2050.83</ele>
        <time>2016-03-25T08:02:12Z</time>
      </trkpt>
      <trkpt lat="45.5127" lon="6.66695">
        <ele>2048.78</ele>
        <time>2016-03-25T08:02:14Z</time>
      </trkpt>
      <trkpt lat="45.5129" lon="6.66691">
        <ele>2046.78</ele>
        <time>2016-03-25T08:02:16Z</time>
      </trkpt>
      <trkpt lat="45.51318" lon="6.66698">
        <ele>2040.04</ele>
        <time>2016-03-25T08:02:19Z</time>
      </trkpt>
      <trkpt lat="45.51338" lon="6.66702">
        <ele>2038.59</ele>
        <time>2016-03-25T08:02:21Z</time>
      </trkpt>
      <trkpt lat="45.51358" lon="6.66722">
        <ele>2037.57</ele>
        <time>2016-03-25T08:02:24Z</time>
      </trkpt>
      <trkpt lat="45.51376" lon="6.66751">
        <ele>2035.77</ele>
        <time>2016-03-25T08:02:27Z</time>
      </trkpt>
      <trkpt lat="45.51387" lon="6.66771">
        <ele>2034.58</ele>
        <time>2016-03-25T08:02:29Z</time>
      </trkpt>
      <trkpt lat="45.51396" lon="6.66797">
        <ele>2031.97</ele>
        <time>2016-03-25T08:02:31Z</time>
      </trkpt>
      <trkpt lat="45.51401" lon="6.66822">
        <ele>2024.24</ele>
        <time>2016-03-25T08:02:34Z</time>
      </trkpt>
      <trkpt lat="45.51414" lon="6.66847">
        <ele>2020.82</ele>
        <time>2016-03-25T08:02:37Z</time>
      </trkpt>
      <trkpt lat="45.51418" lon="6.66876">
        <ele>2014.84</ele>
        <time>2016-03-25T08:02:40Z</time>
      </trkpt>
      <trkpt lat="45.51425" lon="6.66905">
        <ele>2011.98</ele>
        <time>2016-03-25T08:02:42Z</time>
      </trkpt>
      <trkpt lat="45.51447" lon="6.66908">
        <ele>2006.03</ele>
        <time>2016-03-25T08:02:45Z</time>
      </trkpt>
      <trkpt lat="45.51468" lon="6.6691">
        <ele>2003.78</ele>
        <time>2016-03-25T08:02:48Z</time>
      </trkpt>
      <trkpt lat="45.51492" lon="6.66909">
        <ele>1999.95</ele>
        <time>2016-03-25T08:02:51Z</time>
      </trkpt>
      <trkpt lat="45.5151" lon="6.66916">
        <ele>1998.59</ele>
        <time>2016-03-25T08:02:53Z</time>
      </trkpt>
      <trkpt lat="45.51523" lon="6.66935">
        <ele>1986.53</ele>
        <time>2016-03-25T08:03:21Z</time>
      </trkpt>
      <trkpt lat="45.51526" lon="6.66967">
        <ele>1978</ele>
        <time>2016-03-25T08:03:26Z</time>
      </trkpt>
      <trkpt lat="45.51536" lon="6.66992">
        <ele>1969.51</ele>
        <time>2016-03-25T08:03:38Z</time>
      </trkpt>
      <trkpt lat="45.51538" lon="6.67021">
        <ele>1957.54</ele>
        <time>2016-03-25T08:05:11Z</time>
      </trkpt>
      <trkpt lat="45.51541" lon="6.67053">
        <ele>1955.55</ele>
        <time>2016-03-25T08:05:14Z</time>
      </trkpt>
      <trkpt lat="45.51536" lon="6.6708">
        <ele>1953.93</ele>
        <time>2016-03-25T08:05:16Z</time>
      </trkpt>
      <trkpt lat="45.51556" lon="6.67101">
        <ele>1949.87</ele>
        <time>2016-03-25T08:05:18Z</time>
      </trkpt>
      <trkpt lat="45.51566" lon="6.67132">
        <ele>1940.87</ele>
        <time>2016-03-25T08:05:22Z</time>
      </trkpt>
      <trkpt lat="45.51584" lon="6.67148">
        <ele>1937.98</ele>
        <time>2016-03-25T08:05:24Z</time>
      </trkpt>
      <trkpt lat="45.51592" lon="6.67171">
        <ele>1931.63</ele>
        <time>2016-03-25T08:05:26Z</time>
      </trkpt>
      <trkpt lat="45.51611" lon="6.67201">
        <ele>1926.25</ele>
        <time>2016-03-25T08:05:28Z</time>
      </trkpt>
      <trkpt lat="45.51628" lon="6.67223">
        <ele>1922.84</ele>
        <time>2016-03-25T08:05:30Z</time>
      </trkpt>
      <trkpt lat="45.51643" lon="6.67245">
        <ele>1919.02</ele>
        <time>2016-03-25T08:05:32Z</time>
      </trkpt>
      <trkpt lat="45.51662" lon="6.67264">
        <ele>1917.43</ele>
        <time>2016-03-25T08:05:34Z</time>
      </trkpt>
      <trkpt lat="45.51682" lon="6.67281">
        <ele>1914.17</ele>
        <time>2016-03-25T08:05:36Z</time>
      </trkpt>
      <trkpt lat="45.51714" lon="6.67291">
        <ele>1911.8</ele>
        <time>2016-03-25T08:05:38Z</time>
      </trkpt>
      <trkpt lat="45.51705" lon="6.67234">
        <ele>1887.58</ele>
        <time>2016-03-25T08:05:39Z</time>
      </trkpt>
      <trkpt lat="45.51732" lon="6.67236">
        <ele>1880.81</ele>
        <time>2016-03-25T08:05:41Z</time>
      </trkpt>
      <trkpt lat="45.51756" lon="6.6722">
        <ele>1870.1</ele>
        <time>2016-03-25T08:05:44Z</time>
      </trkpt>
      <trkpt lat="45.51777" lon="6.67203">
        <ele>1861.71</ele>
        <time>2016-03-25T08:05:46Z</time>
      </trkpt>
      <trkpt lat="45.5179" lon="6.67179">
        <ele>1853.38</ele>
        <time>2016-03-25T08:05:48Z</time>
      </trkpt>
      <trkpt lat="45.51806" lon="6.67165">
        <ele>1850.96</ele>
        <time>2016-03-25T08:05:50Z</time>
      </trkpt>
      <trkpt lat="45.51828" lon="6.67147">
        <ele>1845.27</ele>
        <time>2016-03-25T08:05:52Z</time>
      </trkpt>
      <trkpt lat="45.51849" lon="6.67127">
        <ele>1843.76</ele>
        <time>2016-03-25T08:05:54Z</time>
      </trkpt>
      <trkpt lat="45.5187" lon="6.67121">
        <ele>1841.78</ele>
        <time>2016-03-25T08:05:56Z</time>
      </trkpt>
      <trkpt lat="45.51887" lon="6.67107">
        <ele>1835.96</ele>
        <time>2016-03-25T08:05:59Z</time>
      </trkpt>
      <trkpt lat="45.51909" lon="6.67109">
        <ele>1832.19</ele>
        <time>2016-03-25T08:06:01Z</time>
      </trkpt>
      <trkpt lat="45.51929" lon="6.67111">
        <ele>1819.88</ele>
        <time>2016-03-25T08:06:03Z</time>
      </trkpt>
      <trkpt lat="45.51949" lon="6.67112">
        <ele>1809.62</ele>
        <time>2016-03-25T08:06:05Z</time>
      </trkpt>
      <trkpt lat="45.51977" lon="6.67108">
        <ele>1796.73</ele>
        <time>2016-03-25T08:06:07Z</time>
      </trkpt>
      <trkpt lat="45.52001" lon="6.671">
        <ele>1793.02</ele>
        <time>2016-03-25T08:06:09Z</time>
      </trkpt>
      <trkpt lat="45.52025" lon="6.67092">
        <ele>1787.91</ele>
        <time>2016-03-25T08:06:11Z</time>
      </trkpt>
      <trkpt lat="45.52052" lon="6.6709">
        <ele>1778.96</ele>
        <time>2016-03-25T08:06:14Z</time>
      </trkpt>
      <trkpt lat="45.52079" lon="6.67094">
        <ele>1773.83</ele>
        <time>2016-03-25T08:06:17Z</time>
      </trkpt>
      <trkpt lat="45.52107" lon="6.671">
        <ele>1767.84</ele>
        <time>2016-03-25T08:06:20Z</time>
      </trkpt>
      <trkpt lat="45.52131" lon="6.67106">
        <ele>1764.82</ele>
        <time>2016-03-25T08:06:22Z</time>
      </trkpt>
      <trkpt lat="45.52156" lon="6.67102">
        <ele>1754.45</ele>
        <time>2016-03-25T08:06:25Z</time>
      </trkpt>
      <trkpt lat="45.5218" lon="6.67098">
        <ele>1748.83</ele>
        <time>2016-03-25T08:06:28Z</time>
      </trkpt>
      <trkpt lat="45.52204" lon="6.67106">
        <ele>1741.5</ele>
        <time>2016-03-25T08:06:30Z</time>
      </trkpt>
      <trkpt lat="45.52223" lon="6.67118">
        <ele>1732.28</ele>
        <time>2016-03-25T08:06:33Z</time>
      </trkpt>
      <trkpt lat="45.52239" lon="6.67133">
        <ele>1728.04</ele>
        <time>2016-03-25T08:06:35Z</time>
      </trkpt>
      <trkpt lat="45.52247" lon="6.67155">
        <ele>1718.12</ele>
        <time>2016-03-25T08:06:39Z</time>
      </trkpt>
      <trkpt lat="45.52239" lon="6.67193">
        <ele>1710.51</ele>
        <time>2016-03-25T08:06:41Z</time>
      </trkpt>
      <trkpt lat="45.52248" lon="6.67218">
        <ele>1706.85</ele>
        <time>2016-03-25T08:06:43Z</time>
      </trkpt>
      <trkpt lat="45.52252" lon="6.67245">
        <ele>1700.23</ele>
        <time>2016-03-25T08:06:46Z</time>
      </trkpt>
      <trkpt lat="45.52277" lon="6.67252">
        <ele>1690.51</ele>
        <time>2016-03-25T08:06:49Z</time>
      </trkpt>
      <trkpt lat="45.52305" lon="6.67266">
        <ele>1682.08</ele>
        <time>2016-03-25T08:06:52Z</time>
      </trkpt>
      <trkpt lat="45.52326" lon="6.6726">
        <ele>1676.27</ele>
        <time>2016-03-25T08:06:54Z</time>
      </trkpt>
      <trkpt lat="45.52344" lon="6.67267">
        <ele>1670.28</ele>
        <time>2016-03-25T08:06:56Z</time>
      </trkpt>
      <trkpt lat="45.52362" lon="6.67261">
        <ele>1662.2</ele>
        <time>2016-03-25T08:06:58Z</time>
      </trkpt>
      <trkpt lat="45.52381" lon="6.67258">
        <ele>1655.16</ele>
        <time>2016-03-25T08:07:00Z</time>
      </trkpt>
      <trkpt lat="45.52402" lon="6.67266">
        <ele>1650.24</ele>
        <time>2016-03-25T08:07:02Z</time>
      </trkpt>
      <trkpt lat="45.52423" lon="6.67271">
        <ele>1641.72</ele>
        <time>2016-03-25T08:07:04Z</time>
      </trkpt>
      <trkpt lat="45.52439" lon="6.67284">
        <ele>1629.86</ele>
        <time>2016-03-25T08:07:06Z</time>
      </trkpt>
      <trkpt lat="45.52464" lon="6.67296">
        <ele>1625.06</ele>
        <time>2016-03-25T08:07:08Z</time>
      </trkpt>
      <trkpt lat="45.5248" lon="6.67308">
        <ele>1622.47</ele>
        <time>2016-03-25T08:07:10Z</time>
      </trkpt>
      <trkpt lat="45.52497" lon="6.67327">
        <ele>1616</ele>
        <time>2016-03-25T08:07:13Z</time>
      </trkpt>
      <trkpt lat="45.52519" lon="6.67336">
        <ele>1607.26</ele>
        <time>2016-03-25T08:07:17Z</time>
      </trkpt>
      <trkpt lat="45.52535" lon="6.67318">
        <ele>1603.48</ele>
        <time>2016-03-25T08:07:18Z</time>
      </trkpt>
      <trkpt lat="45.52561" lon="6.67308">
        <ele>1592.43</ele>
        <time>2016-03-25T08:07:21Z</time>
      </trkpt>
      <trkpt lat="45.52584" lon="6.67311">
        <ele>1584.37</ele>
        <time>2016-03-25T08:07:23Z</time>
      </trkpt>
      <trkpt lat="45.52569" lon="6.67296">
        <ele>1535.75</ele>
        <time>2016-03-25T08:07:57Z</time>
      </trkpt>
      <trkpt lat="45.52551" lon="6.6729">
        <ele>1519.78</ele>
        <time>2016-03-25T08:08:21Z</time>
      </trkpt>
      <trkpt lat="45.52531" lon="6.67275">
        <ele>1524.23</ele>
        <time>2016-03-25T08:08:26Z</time>
      </trkpt>
      <trkpt lat="45.52514" lon="6.67265">
        <ele>1527.28</ele>
        <time>2016-03-25T08:08:30Z</time>
      </trkpt>
      <trkpt lat="45.52498" lon="6.67253">
        <ele>1537.18</ele>
        <time>2016-03-25T08:08:34Z</time>
      </trkpt>
      <trkpt lat="45.52478" lon="6.67243">
        <ele>1543.24</ele>
        <time>2016-03-25T08:08:39Z</time>
      </trkpt>
      <trkpt lat="45.52459" lon="6.67231">
        <ele>1550.17</ele>
        <time>2016-03-25T08:08:44Z</time>
      </trkpt>
      <trkpt lat="45.52441" lon="6.67219">
        <ele>1563.15</ele>
        <time>2016-03-25T08:08:49Z</time>
      </trkpt>
      <trkpt lat="45.52421" lon="6.67207">
        <ele>1573.02</ele>
        <time>2016-03-25T08:08:54Z</time>
      </trkpt>
      <trkpt lat="45.52401" lon="6.67198">
        <ele>1582.23</ele>
        <time>2016-03-25T08:08:59Z</time>
      </trkpt>
      <trkpt lat="45.52382" lon="6.67185">
        <ele>1593.97</ele>
        <time>2016-03-25T08:09:04Z</time>
      </trkpt>
      <trkpt lat="45.52366" lon="6.67174">
        <ele>1602.03</ele>
        <time>2016-03-25T08:09:09Z</time>
      </trkpt>
      <trkpt lat="45.52349" lon="6.67163">
        <ele>1611.84</ele>
        <time>2016-03-25T08:09:14Z</time>
      </trkpt>
      <trkpt lat="45.5233" lon="6.67153">
        <ele>1623.64</ele>
        <time>2016-03-25T08:09:19Z</time>
      </trkpt>
      <trkpt lat="45.52311" lon="6.67141">
        <ele>1638.79</ele>
        <time>2016-03-25T08:09:24Z</time>
      </trkpt>
      <trkpt lat="45.52294" lon="6.67133">
        <ele>1647.46</ele>
        <time>2016-03-25T08:09:29Z</time>
      </trkpt>
      <trkpt lat="45.52275" lon="6.6712">
        <ele>1657.26</ele>
        <time>2016-03-25T08:09:34Z</time>
      </trkpt>
      <trkpt lat="45.52254" lon="6.67108">
        <ele>1668</ele>
        <time>2016-03-25T08:09:39Z</time>
      </trkpt>
      <trkpt lat="45.52236" lon="6.67096">
        <ele>1680.99</ele>
        <time>2016-03-25T08:09:44Z</time>
      </trkpt>
      <trkpt lat="45.52217" lon="6.67085">
        <ele>1693.15</ele>
        <time>2016-03-25T08:09:49Z</time>
      </trkpt>
      <trkpt lat="45.522" lon="6.67072">
        <ele>1702</ele>
        <time>2016-03-25T08:09:54Z</time>
      </trkpt>
      <trkpt lat="45.5218" lon="6.6706">
        <ele>1709.27</ele>
        <time>2016-03-25T08:09:59Z</time>
      </trkpt>
      <trkpt lat="45.52159" lon="6.67048">
        <ele>1715.07</ele>
        <time>2016-03-25T08:10:04Z</time>
      </trkpt>
      <trkpt lat="45.52139" lon="6.67035">
        <ele>1724.04</ele>
        <time>2016-03-25T08:10:09Z</time>
      </trkpt>
      <trkpt lat="45.52122" lon="6.67026">
        <ele>1731.23</ele>
        <time>2016-03-25T08:10:13Z</time>
      </trkpt>
      <trkpt lat="45.52102" lon="6.67015">
        <ele>1740.04</ele>
        <time>2016-03-25T08:10:18Z</time>
      </trkpt>
      <trkpt lat="45.52083" lon="6.67003">
        <ele>1747.24</ele>
        <time>2016-03-25T08:10:23Z</time>
      </trkpt>
      <trkpt lat="45.52063" lon="6.6699">
        <ele>1755.23</ele>
        <time>2016-03-25T08:10:28Z</time>
      </trkpt>
      <trkpt lat="45.52043" lon="6.66977">
        <ele>1760.32</ele>
        <time>2016-03-25T08:10:33Z</time>
      </trkpt>
      <trkpt lat="45.52023" lon="6.66964">
        <ele>1763.49</ele>
        <time>2016-03-25T08:10:38Z</time>
      </trkpt>
      <trkpt lat="45.52006" lon="6.66953">
        <ele>1767.09</ele>
        <time>2016-03-25T08:10:42Z</time>
      </trkpt>
      <trkpt lat="45.51986" lon="6.6694">
        <ele>1773.23</ele>
        <time>2016-03-25T08:10:47Z</time>
      </trkpt>
      <trkpt lat="45.51967" lon="6.66929">
        <ele>1781.24</ele>
        <time>2016-03-25T08:10:52Z</time>
      </trkpt>
      <trkpt lat="45.5195" lon="6.66918">
        <ele>1787.23</ele>
        <time>2016-03-25T08:10:56Z</time>
      </trkpt>
      <trkpt lat="45.51931" lon="6.66907">
        <ele>1795.03</ele>
        <time>2016-03-25T08:11:01Z</time>
      </trkpt>
      <trkpt lat="45.51912" lon="6.66895">
        <ele>1800.12</ele>
        <time>2016-03-25T08:11:06Z</time>
      </trkpt>
      <trkpt lat="45.51893" lon="6.66888">
        <ele>1805.45</ele>
        <time>2016-03-25T08:11:11Z</time>
      </trkpt>
      <trkpt lat="45.51874" lon="6.66878">
        <ele>1814.66</ele>
        <time>2016-03-25T08:11:16Z</time>
      </trkpt>
      <trkpt lat="45.51855" lon="6.66867">
        <ele>1820.9</ele>
        <time>2016-03-25T08:11:21Z</time>
      </trkpt>
      <trkpt lat="45.51746" lon="6.66795">
        <ele>1865.67</ele>
        <time>2016-03-25T08:11:48Z</time>
      </trkpt>
      <trkpt lat="45.51727" lon="6.66789">
        <ele>1897.77</ele>
        <time>2016-03-25T08:11:54Z</time>
      </trkpt>
      <trkpt lat="45.51708" lon="6.66777">
        <ele>1906.36</ele>
        <time>2016-03-25T08:11:59Z</time>
      </trkpt>
      <trkpt lat="45.51688" lon="6.66764">
        <ele>1915.24</ele>
        <time>2016-03-25T08:12:05Z</time>
      </trkpt>
      <trkpt lat="45.51669" lon="6.66754">
        <ele>1919.49</ele>
        <time>2016-03-25T08:12:10Z</time>
      </trkpt>
      <trkpt lat="45.51651" lon="6.66744">
        <ele>1925.28</ele>
        <time>2016-03-25T08:12:15Z</time>
      </trkpt>
      <trkpt lat="45.51634" lon="6.66736">
        <ele>1928.09</ele>
        <time>2016-03-25T08:12:19Z</time>
      </trkpt>
      <trkpt lat="45.51614" lon="6.66723">
        <ele>1941.09</ele>
        <time>2016-03-25T08:12:24Z</time>
      </trkpt>
      <trkpt lat="45.51598" lon="6.66713">
        <ele>1948.03</ele>
        <time>2016-03-25T08:12:28Z</time>
      </trkpt>
      <trkpt lat="45.51577" lon="6.667">
        <ele>1954.11</ele>
        <time>2016-03-25T08:12:33Z</time>
      </trkpt>
      <trkpt lat="45.51558" lon="6.66692">
        <ele>1957.48</ele>
        <time>2016-03-25T08:12:38Z</time>
      </trkpt>
      <trkpt lat="45.51538" lon="6.66683">
        <ele>1962.28</ele>
        <time>2016-03-25T08:12:43Z</time>
      </trkpt>
      <trkpt lat="45.51521" lon="6.66671">
        <ele>1968.91</ele>
        <time>2016-03-25T08:12:48Z</time>
      </trkpt>
      <trkpt lat="45.51505" lon="6.66661">
        <ele>1976.07</ele>
        <time>2016-03-25T08:12:52Z</time>
      </trkpt>
      <trkpt lat="45.51485" lon="6.66649">
        <ele>1981.28</ele>
        <time>2016-03-25T08:12:57Z</time>
      </trkpt>
      <trkpt lat="45.51466" lon="6.66639">
        <ele>1988.08</ele>
        <time>2016-03-25T08:13:02Z</time>
      </trkpt>
      <trkpt lat="45.51446" lon="6.66631">
        <ele>1992.49</ele>
        <time>2016-03-25T08:13:07Z</time>
      </trkpt>
      <trkpt lat="45.5143" lon="6.66615">
        <ele>2009.82</ele>
        <time>2016-03-25T08:13:11Z</time>
      </trkpt>
      <trkpt lat="45.51414" lon="6.66603">
        <ele>2026.52</ele>
        <time>2016-03-25T08:13:15Z</time>
      </trkpt>
      <trkpt lat="45.51396" lon="6.66588">
        <ele>2039.94</ele>
        <time>2016-03-25T08:13:20Z</time>
      </trkpt>
      <trkpt lat="45.51376" lon="6.66576">
        <ele>2045.09</ele>
        <time>2016-03-25T08:13:25Z</time>
      </trkpt>
      <trkpt lat="45.51359" lon="6.66565">
        <ele>2051.2</ele>
        <time>2016-03-25T08:13:29Z</time>
      </trkpt>
      <trkpt lat="45.51339" lon="6.66553">
        <ele>2057.11</ele>
        <time>2016-03-25T08:13:34Z</time>
      </trkpt>
      <trkpt lat="45.51319" lon="6.6654">
        <ele>2064.07</ele>
        <time>2016-03-25T08:13:39Z</time>
      </trkpt>
      <trkpt lat="45.51299" lon="6.66529">
        <ele>2072.07</ele>
        <time>2016-03-25T08:13:44Z</time>
      </trkpt>
      <trkpt lat="45.5128" lon="6.66517">
        <ele>2082.04</ele>
        <time>2016-03-25T08:13:49Z</time>
      </trkpt>
      <trkpt lat="45.5126" lon="6.66504">
        <ele>2088.47</ele>
        <time>2016-03-25T08:13:54Z</time>
      </trkpt>
      <trkpt lat="45.51241" lon="6.66492">
        <ele>2091.48</ele>
        <time>2016-03-25T08:13:59Z</time>
      </trkpt>
      <trkpt lat="45.5122" lon="6.6648">
        <ele>2093.33</ele>
        <time>2016-03-25T08:14:04Z</time>
      </trkpt>
      <trkpt lat="45.51201" lon="6.66467">
        <ele>2098.32</ele>
        <time>2016-03-25T08:14:09Z</time>
      </trkpt>
      <trkpt lat="45.5118" lon="6.66456">
        <ele>2101.48</ele>
        <time>2016-03-25T08:14:14Z</time>
      </trkpt>
      <trkpt lat="45.51159" lon="6.66444">
        <ele>2104.32</ele>
        <time>2016-03-25T08:14:19Z</time>
      </trkpt>
      <trkpt lat="45.51139" lon="6.66431">
        <ele>2109.09</ele>
        <time>2016-03-25T08:14:24Z</time>
      </trkpt>
      <trkpt lat="45.5112" lon="6.66419">
        <ele>2111.49</ele>
        <time>2016-03-25T08:14:29Z</time>
      </trkpt>
      <trkpt lat="45.51103" lon="6.66406">
        <ele>2112.57</ele>
        <time>2016-03-25T08:14:36Z</time>
      </trkpt>
      <trkpt lat="45.51083" lon="6.66407">
        <ele>2111.5</ele>
        <time>2016-03-25T08:14:42Z</time>
      </trkpt>
      <trkpt lat="45.51069" lon="6.66428">
        <ele>2116.34</ele>
        <time>2016-03-25T08:15:14Z</time>
      </trkpt>
      <trkpt lat="45.51055" lon="6.66451">
        <ele>2114.57</ele>
        <time>2016-03-25T08:15:21Z</time>
      </trkpt>
      <trkpt lat="45.51042" lon="6.66471">
        <ele>2114.37</ele>
        <time>2016-03-25T08:15:25Z</time>
      </trkpt>
      <trkpt lat="45.51029" lon="6.66491">
        <ele>2113.54</ele>
        <time>2016-03-25T08:15:29Z</time>
      </trkpt>
      <trkpt lat="45.51018" lon="6.66515">
        <ele>2113.5</ele>
        <time>2016-03-25T08:15:34Z</time>
      </trkpt>
      <trkpt lat="45.51006" lon="6.66538">
        <ele>2112.54</ele>
        <time>2016-03-25T08:15:40Z</time>
      </trkpt>
      <trkpt lat="45.50992" lon="6.66555">
        <ele>2108.73</ele>
        <time>2016-03-25T08:15:52Z</time>
      </trkpt>
      <trkpt lat="45.50979" lon="6.66579">
        <ele>2105.78</ele>
        <time>2016-03-25T08:15:58Z</time>
      </trkpt>
      <trkpt lat="45.50962" lon="6.66604">
        <ele>2104.73</ele>
        <time>2016-03-25T08:16:01Z</time>
      </trkpt>
      <trkpt lat="45.50948" lon="6.6663">
        <ele>2101.62</ele>
        <time>2016-03-25T08:16:04Z</time>
      </trkpt>
      <trkpt lat="45.50936" lon="6.6665">
        <ele>2099.61</ele>
        <time>2016-03-25T08:16:06Z</time>
      </trkpt>
      <trkpt lat="45.5092" lon="6.66682">
        <ele>2096.94</ele>
        <time>2016-03-25T08:16:09Z</time>
      </trkpt>
      <trkpt lat="45.50912" lon="6.66704">
        <ele>2095.75</ele>
        <time>2016-03-25T08:16:11Z</time>
      </trkpt>
      <trkpt lat="45.50903" lon="6.66728">
        <ele>2092.66</ele>
        <time>2016-03-25T08:16:13Z</time>
      </trkpt>
      <trkpt lat="45.50891" lon="6.66755">
        <ele>2092.7</ele>
        <time>2016-03-25T08:16:15Z</time>
      </trkpt>
      <trkpt lat="45.50881" lon="6.66781">
        <ele>2091.58</ele>
        <time>2016-03-25T08:16:17Z</time>
      </trkpt>
      <trkpt lat="45.50863" lon="6.66806">
        <ele>2090.54</ele>
        <time>2016-03-25T08:16:20Z</time>
      </trkpt>
      <trkpt lat="45.50843" lon="6.66828">
        <ele>2088.74</ele>
        <time>2016-03-25T08:16:23Z</time>
      </trkpt>
      <trkpt lat="45.50826" lon="6.66846">
        <ele>2086.74</ele>
        <time>2016-03-25T08:16:26Z</time>
      </trkpt>
      <trkpt lat="45.50806" lon="6.6687">
        <ele>2084.93</ele>
        <time>2016-03-25T08:16:29Z</time>
      </trkpt>
      <trkpt lat="45.50792" lon="6.66886">
        <ele>2082.79</ele>
        <time>2016-03-25T08:16:31Z</time>
      </trkpt>
      <trkpt lat="45.50777" lon="6.6691">
        <ele>2075.94</ele>
        <time>2016-03-25T08:16:34Z</time>
      </trkpt>
      <trkpt lat="45.50763" lon="6.6693">
        <ele>2074.75</ele>
        <time>2016-03-25T08:16:36Z</time>
      </trkpt>
      <trkpt lat="45.50749" lon="6.66949">
        <ele>2072.78</ele>
        <time>2016-03-25T08:16:38Z</time>
      </trkpt>
      <trkpt lat="45.50732" lon="6.66961">
        <ele>2070.78</ele>
        <time>2016-03-25T08:16:40Z</time>
      </trkpt>
      <trkpt lat="45.50711" lon="6.66963">
        <ele>2068.94</ele>
        <time>2016-03-25T08:16:42Z</time>
      </trkpt>
      <trkpt lat="45.50689" lon="6.6696">
        <ele>2065.03</ele>
        <time>2016-03-25T08:16:44Z</time>
      </trkpt>
      <trkpt lat="45.50669" lon="6.66959">
        <ele>2063.59</ele>
        <time>2016-03-25T08:16:46Z</time>
      </trkpt>
      <trkpt lat="45.50653" lon="6.66969">
        <ele>2061.61</ele>
        <time>2016-03-25T08:16:48Z</time>
      </trkpt>
      <trkpt lat="45.50637" lon="6.66985">
        <ele>2060.73</ele>
        <time>2016-03-25T08:16:50Z</time>
      </trkpt>
      <trkpt lat="45.50618" lon="6.66991">
        <ele>2061.34</ele>
        <time>2016-03-25T08:16:52Z</time>
      </trkpt>
      <trkpt lat="45.50594" lon="6.66995">
        <ele>2059.55</ele>
        <time>2016-03-25T08:16:55Z</time>
      </trkpt>
      <trkpt lat="45.50575" lon="6.67001">
        <ele>2055.5</ele>
        <time>2016-03-25T08:16:58Z</time>
      </trkpt>
      <trkpt lat="45.50567" lon="6.67024">
        <ele>2049.19</ele>
        <time>2016-03-25T08:17:01Z</time>
      </trkpt>
      <trkpt lat="45.50564" lon="6.67051">
        <ele>2046.16</ele>
        <time>2016-03-25T08:17:03Z</time>
      </trkpt>
      <trkpt lat="45.5056" lon="6.67083">
        <ele>2040.92</ele>
        <time>2016-03-25T08:17:05Z</time>
      </trkpt>
      <trkpt lat="45.50552" lon="6.67114">
        <ele>2033.19</ele>
        <time>2016-03-25T08:17:07Z</time>
      </trkpt>
      <trkpt lat="45.50542" lon="6.67142">
        <ele>2026.48</ele>
        <time>2016-03-25T08:17:09Z</time>
      </trkpt>
      <trkpt lat="45.50531" lon="6.67171">
        <ele>2025.57</ele>
        <time>2016-03-25T08:17:11Z</time>
      </trkpt>
      <trkpt lat="45.50517" lon="6.672">
        <ele>2024.41</ele>
        <time>2016-03-25T08:17:13Z</time>
      </trkpt>
      <trkpt lat="45.50509" lon="6.67237">
        <ele>2020.21</ele>
        <time>2016-03-25T08:17:15Z</time>
      </trkpt>
      <trkpt lat="45.50503" lon="6.67273">
        <ele>2017.8</ele>
        <time>2016-03-25T08:17:17Z</time>
      </trkpt>
      <trkpt lat="45.50496" lon="6.67311">
        <ele>2015.78</ele>
        <time>2016-03-25T08:17:19Z</time>
      </trkpt>
      <trkpt lat="45.50489" lon="6.67352">
        <ele>2012.98</ele>
        <time>2016-03-25T08:17:21Z</time>
      </trkpt>
      <trkpt lat="45.50484" lon="6.67387">
        <ele>2009.83</ele>
        <time>2016-03-25T08:17:23Z</time>
      </trkpt>
      <trkpt lat="45.50483" lon="6.6742">
        <ele>2008.58</ele>
        <time>2016-03-25T08:17:25Z</time>
      </trkpt>
      <trkpt lat="45.50482" lon="6.6745">
        <ele>2006.77</ele>
        <time>2016-03-25T08:17:27Z</time>
      </trkpt>
      <trkpt lat="45.50484" lon="6.67477">
        <ele>2005.58</ele>
        <time>2016-03-25T08:17:29Z</time>
      </trkpt>
      <trkpt lat="45.50488" lon="6.67514">
        <ele>2003.58</ele>
        <time>2016-03-25T08:17:32Z</time>
      </trkpt>
      <trkpt lat="45.50492" lon="6.67548">
        <ele>2002.35</ele>
        <time>2016-03-25T08:17:35Z</time>
      </trkpt>
      <trkpt lat="45.50505" lon="6.67572">
        <ele>1997.34</ele>
        <time>2016-03-25T08:17:39Z</time>
      </trkpt>
      <trkpt lat="45.50512" lon="6.67602">
        <ele>1994.38</ele>
        <time>2016-03-25T08:17:44Z</time>
      </trkpt>
      <trkpt lat="45.50518" lon="6.67632">
        <ele>1992.38</ele>
        <time>2016-03-25T08:17:49Z</time>
      </trkpt>
      <trkpt lat="45.50525" lon="6.67657">
        <ele>1990.52</ele>
        <time>2016-03-25T08:17:54Z</time>
      </trkpt>
      <trkpt lat="45.50533" lon="6.67682">
        <ele>1992.49</ele>
        <time>2016-03-25T08:18:02Z</time>
      </trkpt>
      <trkpt lat="45.50539" lon="6.67709">
        <ele>1993.5</ele>
        <time>2016-03-25T08:18:14Z</time>
      </trkpt>
      <trkpt lat="45.50537" lon="6.67736">
        <ele>1993.5</ele>
        <time>2016-03-25T08:18:28Z</time>
      </trkpt>
      <trkpt lat="45.50518" lon="6.67725">
        <ele>1983.25</ele>
        <time>2016-03-25T08:20:43Z</time>
      </trkpt>
      <trkpt lat="45.50491" lon="6.67734">
        <ele>1976.81</ele>
        <time>2016-03-25T08:20:47Z</time>
      </trkpt>
      <trkpt lat="45.50471" lon="6.67749">
        <ele>1983.03</ele>
        <time>2016-03-25T08:20:51Z</time>
      </trkpt>
      <trkpt lat="45.50453" lon="6.67761">
        <ele>1986.86</ele>
        <time>2016-03-25T08:20:55Z</time>
      </trkpt>
      <trkpt lat="45.5043" lon="6.6777">
        <ele>1995.03</ele>
        <time>2016-03-25T08:20:59Z</time>
      </trkpt>
      <trkpt lat="45.50412" lon="6.67776">
        <ele>1999.97</ele>
        <time>2016-03-25T08:21:02Z</time>
      </trkpt>
      <trkpt lat="45.50393" lon="6.67784">
        <ele>2007.2</ele>
        <time>2016-03-25T08:21:06Z</time>
      </trkpt>
      <trkpt lat="45.50373" lon="6.67793">
        <ele>2013.07</ele>
        <time>2016-03-25T08:21:10Z</time>
      </trkpt>
      <trkpt lat="45.50353" lon="6.67803">
        <ele>2021.06</ele>
        <time>2016-03-25T08:21:14Z</time>
      </trkpt>
      <trkpt lat="45.50334" lon="6.67814">
        <ele>2027.07</ele>
        <time>2016-03-25T08:21:18Z</time>
      </trkpt>
      <trkpt lat="45.50316" lon="6.67825">
        <ele>2031.51</ele>
        <time>2016-03-25T08:21:22Z</time>
      </trkpt>
      <trkpt lat="45.50298" lon="6.67835">
        <ele>2039.07</ele>
        <time>2016-03-25T08:21:26Z</time>
      </trkpt>
      <trkpt lat="45.50279" lon="6.67849">
        <ele>2042.32</ele>
        <time>2016-03-25T08:21:30Z</time>
      </trkpt>
      <trkpt lat="45.50259" lon="6.67861">
        <ele>2043.49</ele>
        <time>2016-03-25T08:21:34Z</time>
      </trkpt>
      <trkpt lat="45.50238" lon="6.67875">
        <ele>2043.53</ele>
        <time>2016-03-25T08:21:38Z</time>
      </trkpt>
      <trkpt lat="45.5022" lon="6.67886">
        <ele>2044.36</ele>
        <time>2016-03-25T08:21:42Z</time>
      </trkpt>
      <trkpt lat="45.50204" lon="6.67898">
        <ele>2043.54</ele>
        <time>2016-03-25T08:21:45Z</time>
      </trkpt>
      <trkpt lat="45.50182" lon="6.67911">
        <ele>2047.13</ele>
        <time>2016-03-25T08:21:50Z</time>
      </trkpt>
      <trkpt lat="45.50162" lon="6.67922">
        <ele>2053.12</ele>
        <time>2016-03-25T08:21:54Z</time>
      </trkpt>
      <trkpt lat="45.50143" lon="6.67929">
        <ele>2062.25</ele>
        <time>2016-03-25T08:21:58Z</time>
      </trkpt>
      <trkpt lat="45.50125" lon="6.67937">
        <ele>2065.08</ele>
        <time>2016-03-25T08:22:02Z</time>
      </trkpt>
      <trkpt lat="45.50106" lon="6.67939">
        <ele>2092.54</ele>
        <time>2016-03-25T08:22:42Z</time>
      </trkpt>
      <trkpt lat="45.50086" lon="6.67948">
        <ele>2101.71</ele>
        <time>2016-03-25T08:22:53Z</time>
      </trkpt>
      <trkpt lat="45.50068" lon="6.67959">
        <ele>2102.34</ele>
        <time>2016-03-25T08:23:00Z</time>
      </trkpt>
      <trkpt lat="45.5005" lon="6.6797">
        <ele>2107.33</ele>
        <time>2016-03-25T08:23:06Z</time>
      </trkpt>
      <trkpt lat="45.5003" lon="6.6798">
        <ele>2113.27</ele>
        <time>2016-03-25T08:23:11Z</time>
      </trkpt>
      <trkpt lat="45.50013" lon="6.67989">
        <ele>2117.27</ele>
        <time>2016-03-25T08:23:15Z</time>
      </trkpt>
      <trkpt lat="45.49991" lon="6.67997">
        <ele>2119.09</ele>
        <time>2016-03-25T08:23:19Z</time>
      </trkpt>
      <trkpt lat="45.4997" lon="6.6801">
        <ele>2125.23</ele>
        <time>2016-03-25T08:23:23Z</time>
      </trkpt>
      <trkpt lat="45.4995" lon="6.68018">
        <ele>2130.72</ele>
        <time>2016-03-25T08:23:27Z</time>
      </trkpt>
      <trkpt lat="45.49932" lon="6.68026">
        <ele>2141.91</ele>
        <time>2016-03-25T08:23:31Z</time>
      </trkpt>
      <trkpt lat="45.49912" lon="6.68036">
        <ele>2149.05</ele>
        <time>2016-03-25T08:23:35Z</time>
      </trkpt>
      <trkpt lat="45.49893" lon="6.68052">
        <ele>2154.51</ele>
        <time>2016-03-25T08:23:39Z</time>
      </trkpt>
      <trkpt lat="45.49873" lon="6.68063">
        <ele>2157.47</ele>
        <time>2016-03-25T08:23:43Z</time>
      </trkpt>
      <trkpt lat="45.49852" lon="6.68078">
        <ele>2160.37</ele>
        <time>2016-03-25T08:23:48Z</time>
      </trkpt>
      <trkpt lat="45.49834" lon="6.68091">
        <ele>2164.47</ele>
        <time>2016-03-25T08:23:52Z</time>
      </trkpt>
      <trkpt lat="45.49815" lon="6.68105">
        <ele>2168.08</ele>
        <time>2016-03-25T08:23:56Z</time>
      </trkpt>
      <trkpt lat="45.49798" lon="6.68112">
        <ele>2172.18</ele>
        <time>2016-03-25T08:24:00Z</time>
      </trkpt>
      <trkpt lat="45.49781" lon="6.68121">
        <ele>2174.48</ele>
        <time>2016-03-25T08:24:03Z</time>
      </trkpt>
      <trkpt lat="45.49762" lon="6.68132">
        <ele>2176.48</ele>
        <time>2016-03-25T08:24:07Z</time>
      </trkpt>
      <trkpt lat="45.49741" lon="6.68142">
        <ele>2189.96</ele>
        <time>2016-03-25T08:24:11Z</time>
      </trkpt>
      <trkpt lat="45.49724" lon="6.68153">
        <ele>2193.32</ele>
        <time>2016-03-25T08:24:15Z</time>
      </trkpt>
      <trkpt lat="45.49706" lon="6.68165">
        <ele>2196.32</ele>
        <time>2016-03-25T08:24:19Z</time>
      </trkpt>
      <trkpt lat="45.49685" lon="6.68175">
        <ele>2196.53</ele>
        <time>2016-03-25T08:24:23Z</time>
      </trkpt>
      <trkpt lat="45.49667" lon="6.6819">
        <ele>2200.02</ele>
        <time>2016-03-25T08:24:27Z</time>
      </trkpt>
      <trkpt lat="45.49648" lon="6.682">
        <ele>2203.45</ele>
        <time>2016-03-25T08:24:31Z</time>
      </trkpt>
      <trkpt lat="45.49631" lon="6.68212">
        <ele>2204.32</ele>
        <time>2016-03-25T08:24:35Z</time>
      </trkpt>
      <trkpt lat="45.49611" lon="6.68224">
        <ele>2205.5</ele>
        <time>2016-03-25T08:24:39Z</time>
      </trkpt>
      <trkpt lat="45.49591" lon="6.68239">
        <ele>2205.53</ele>
        <time>2016-03-25T08:24:43Z</time>
      </trkpt>
      <trkpt lat="45.49574" lon="6.6825">
        <ele>2213.11</ele>
        <time>2016-03-25T08:24:47Z</time>
      </trkpt>
      <trkpt lat="45.49556" lon="6.68262">
        <ele>2222.82</ele>
        <time>2016-03-25T08:24:51Z</time>
      </trkpt>
      <trkpt lat="45.49538" lon="6.68275">
        <ele>2228.07</ele>
        <time>2016-03-25T08:24:55Z</time>
      </trkpt>
      <trkpt lat="45.49518" lon="6.68282">
        <ele>2233.31</ele>
        <time>2016-03-25T08:24:59Z</time>
      </trkpt>
      <trkpt lat="45.495" lon="6.68293">
        <ele>2243.44</ele>
        <time>2016-03-25T08:25:03Z</time>
      </trkpt>
      <trkpt lat="45.49482" lon="6.68303">
        <ele>2260.93</ele>
        <time>2016-03-25T08:25:07Z</time>
      </trkpt>
      <trkpt lat="45.49465" lon="6.68314">
        <ele>2267.07</ele>
        <time>2016-03-25T08:25:11Z</time>
      </trkpt>
      <trkpt lat="45.49444" lon="6.68329">
        <ele>2277.07</ele>
        <time>2016-03-25T08:25:16Z</time>
      </trkpt>
      <trkpt lat="45.49426" lon="6.68342">
        <ele>2283.85</ele>
        <time>2016-03-25T08:25:20Z</time>
      </trkpt>
      <trkpt lat="45.49409" lon="6.68351">
        <ele>2289.08</ele>
        <time>2016-03-25T08:25:24Z</time>
      </trkpt>
      <trkpt lat="45.49393" lon="6.68365">
        <ele>2297.86</ele>
        <time>2016-03-25T08:25:28Z</time>
      </trkpt>
      <trkpt lat="45.49376" lon="6.68377">
        <ele>2301.36</ele>
        <time>2016-03-25T08:25:32Z</time>
      </trkpt>
      <trkpt lat="45.49358" lon="6.68388">
        <ele>2305.28</ele>
        <time>2016-03-25T08:25:36Z</time>
      </trkpt>
      <trkpt lat="45.49343" lon="6.68411">
        <ele>2312.24</ele>
        <time>2016-03-25T08:25:40Z</time>
      </trkpt>
      <trkpt lat="45.49325" lon="6.6842">
        <ele>2316.28</ele>
        <time>2016-03-25T08:25:44Z</time>
      </trkpt>
      <trkpt lat="45.49302" lon="6.68423">
        <ele>2331.6</ele>
        <time>2016-03-25T08:25:49Z</time>
      </trkpt>
      <trkpt lat="45.49283" lon="6.68425">
        <ele>2353.96</ele>
        <time>2016-03-25T08:25:53Z</time>
      </trkpt>
      <trkpt lat="45.49264" lon="6.68435">
        <ele>2362.02</ele>
        <time>2016-03-25T08:25:57Z</time>
      </trkpt>
      <trkpt lat="45.49247" lon="6.68452">
        <ele>2366.31</ele>
        <time>2016-03-25T08:26:01Z</time>
      </trkpt>
      <trkpt lat="45.49226" lon="6.68445">
        <ele>2384.82</ele>
        <time>2016-03-25T08:26:05Z</time>
      </trkpt>
      <trkpt lat="45.49204" lon="6.68443">
        <ele>2413.68</ele>
        <time>2016-03-25T08:26:09Z</time>
      </trkpt>
      <trkpt lat="45.49185" lon="6.68442">
        <ele>2426.82</ele>
        <time>2016-03-25T08:26:13Z</time>
      </trkpt>
      <trkpt lat="45.49176" lon="6.68419">
        <ele>2445.51</ele>
        <time>2016-03-25T08:26:25Z</time>
      </trkpt>
      <trkpt lat="45.49159" lon="6.68423">
        <ele>2484.19</ele>
        <time>2016-03-25T08:26:50Z</time>
      </trkpt>
      <trkpt lat="45.49141" lon="6.68427">
        <ele>2493.53</ele>
        <time>2016-03-25T08:27:19Z</time>
      </trkpt>
      <trkpt lat="45.49133" lon="6.68404">
        <ele>2494.53</ele>
        <time>2016-03-25T08:27:47Z</time>
      </trkpt>
      <trkpt lat="45.49124" lon="6.6838">
        <ele>2492.57</ele>
        <time>2016-03-25T08:28:00Z</time>
      </trkpt>
      <trkpt lat="45.49117" lon="6.68352">
        <ele>2490.58</ele>
        <time>2016-03-25T08:28:05Z</time>
      </trkpt>
      <trkpt lat="45.49112" lon="6.68326">
        <ele>2487.81</ele>
        <time>2016-03-25T08:28:08Z</time>
      </trkpt>
      <trkpt lat="45.49107" lon="6.68294">
        <ele>2483.82</ele>
        <time>2016-03-25T08:28:11Z</time>
      </trkpt>
      <trkpt lat="45.49106" lon="6.68257">
        <ele>2477.1</ele>
        <time>2016-03-25T08:28:14Z</time>
      </trkpt>
      <trkpt lat="45.49101" lon="6.68229">
        <ele>2474.79</ele>
        <time>2016-03-25T08:28:16Z</time>
      </trkpt>
      <trkpt lat="45.49098" lon="6.68203">
        <ele>2469.9</ele>
        <time>2016-03-25T08:28:18Z</time>
      </trkpt>
      <trkpt lat="45.49084" lon="6.68184">
        <ele>2466.83</ele>
        <time>2016-03-25T08:28:20Z</time>
      </trkpt>
      <trkpt lat="45.49076" lon="6.68151">
        <ele>2463.02</ele>
        <time>2016-03-25T08:28:22Z</time>
      </trkpt>
      <trkpt lat="45.49062" lon="6.68115">
        <ele>2461.59</ele>
        <time>2016-03-25T08:28:24Z</time>
      </trkpt>
      <trkpt lat="45.4905" lon="6.68077">
        <ele>2459.77</ele>
        <time>2016-03-25T08:28:26Z</time>
      </trkpt>
      <trkpt lat="45.49037" lon="6.68051">
        <ele>2457.78</ele>
        <time>2016-03-25T08:28:28Z</time>
      </trkpt>
      <trkpt lat="45.49031" lon="6.68004">
        <ele>2455.14</ele>
        <time>2016-03-25T08:28:30Z</time>
      </trkpt>
      <trkpt lat="45.49023" lon="6.67975">
        <ele>2451.84</ele>
        <time>2016-03-25T08:28:32Z</time>
      </trkpt>
      <trkpt lat="45.49026" lon="6.68007">
        <ele>2432.21</ele>
        <time>2016-03-25T08:28:35Z</time>
      </trkpt>
      <trkpt lat="45.49014" lon="6.68029">
        <ele>2416.41</ele>
        <time>2016-03-25T08:28:57Z</time>
      </trkpt>
      <trkpt lat="45.48993" lon="6.68059">
        <ele>2408.99</ele>
        <time>2016-03-25T08:29:04Z</time>
      </trkpt>
      <trkpt lat="45.48971" lon="6.68051">
        <ele>2404.98</ele>
        <time>2016-03-25T08:29:07Z</time>
      </trkpt>
      <trkpt lat="45.4896" lon="6.68074">
        <ele>2381.78</ele>
        <time>2016-03-25T08:29:33Z</time>
      </trkpt>
      <trkpt lat="45.48948" lon="6.68095">
        <ele>2373.82</ele>
        <time>2016-03-25T08:29:36Z</time>
      </trkpt>
      <trkpt lat="45.48928" lon="6.68099">
        <ele>2368.03</ele>
        <time>2016-03-25T08:29:39Z</time>
      </trkpt>
      <trkpt lat="45.48913" lon="6.68124">
        <ele>2359.05</ele>
        <time>2016-03-25T08:29:42Z</time>
      </trkpt>
      <trkpt lat="45.48897" lon="6.68135">
        <ele>2352.58</ele>
        <time>2016-03-25T08:29:45Z</time>
      </trkpt>
      <trkpt lat="45.48885" lon="6.68157">
        <ele>2343.98</ele>
        <time>2016-03-25T08:29:50Z</time>
      </trkpt>
      <trkpt lat="45.4887" lon="6.68181">
        <ele>2338.83</ele>
        <time>2016-03-25T08:29:53Z</time>
      </trkpt>
      <trkpt lat="45.48842" lon="6.68196">
        <ele>2336.58</ele>
        <time>2016-03-25T08:29:56Z</time>
      </trkpt>
      <trkpt lat="45.48823" lon="6.68194">
        <ele>2331.25</ele>
        <time>2016-03-25T08:29:58Z</time>
      </trkpt>
      <trkpt lat="45.48804" lon="6.6822">
        <ele>2325.99</ele>
        <time>2016-03-25T08:30:01Z</time>
      </trkpt>
      <trkpt lat="45.48778" lon="6.68229">
        <ele>2322.83</ele>
        <time>2016-03-25T08:30:03Z</time>
      </trkpt>
      <trkpt lat="45.48758" lon="6.68236">
        <ele>2319.98</ele>
        <time>2016-03-25T08:30:05Z</time>
      </trkpt>
      <trkpt lat="45.48737" lon="6.68244">
        <ele>2315.87</ele>
        <time>2016-03-25T08:30:07Z</time>
      </trkpt>
      <trkpt lat="45.48719" lon="6.68262">
        <ele>2310.42</ele>
        <time>2016-03-25T08:30:09Z</time>
      </trkpt>
      <trkpt lat="45.48701" lon="6.68267">
        <ele>2306.05</ele>
        <time>2016-03-25T08:30:11Z</time>
      </trkpt>
      <trkpt lat="45.48681" lon="6.68268">
        <ele>2299.03</ele>
        <time>2016-03-25T08:30:15Z</time>
      </trkpt>
      <trkpt lat="45.48659" lon="6.68258">
        <ele>2264.99</ele>
        <time>2016-03-25T08:30:39Z</time>
      </trkpt>
      <trkpt lat="45.48639" lon="6.68251">
        <ele>2258.2</ele>
        <time>2016-03-25T08:30:42Z</time>
      </trkpt>
      <trkpt lat="45.48617" lon="6.68247">
        <ele>2249.09</ele>
        <time>2016-03-25T08:30:45Z</time>
      </trkpt>
      <trkpt lat="45.48594" lon="6.68242">
        <ele>2241.91</ele>
        <time>2016-03-25T08:30:48Z</time>
      </trkpt>
      <trkpt lat="45.48571" lon="6.68252">
        <ele>2237.79</ele>
        <time>2016-03-25T08:30:51Z</time>
      </trkpt>
      <trkpt lat="45.48551" lon="6.68266">
        <ele>2234.56</ele>
        <time>2016-03-25T08:30:54Z</time>
      </trkpt>
      <trkpt lat="45.48533" lon="6.68272">
        <ele>2231.97</ele>
        <time>2016-03-25T08:30:56Z</time>
      </trkpt>
      <trkpt lat="45.48507" lon="6.68269">
        <ele>2230.57</ele>
        <time>2016-03-25T08:30:59Z</time>
      </trkpt>
      <trkpt lat="45.48487" lon="6.68285">
        <ele>2227.01</ele>
        <time>2016-03-25T08:31:01Z</time>
      </trkpt>
      <trkpt lat="45.48465" lon="6.68277">
        <ele>2217.11</ele>
        <time>2016-03-25T08:31:03Z</time>
      </trkpt>
      <trkpt lat="45.48441" lon="6.68277">
        <ele>2213.99</ele>
        <time>2016-03-25T08:31:05Z</time>
      </trkpt>
      <trkpt lat="45.48416" lon="6.68275">
        <ele>2212.75</ele>
        <time>2016-03-25T08:31:07Z</time>
      </trkpt>
      <trkpt lat="45.48387" lon="6.68278">
        <ele>2208.86</ele>
        <time>2016-03-25T08:31:09Z</time>
      </trkpt>
      <trkpt lat="45.48363" lon="6.68279">
        <ele>2207.74</ele>
        <time>2016-03-25T08:31:11Z</time>
      </trkpt>
      <trkpt lat="45.48341" lon="6.68282">
        <ele>2202.9</ele>
        <time>2016-03-25T08:31:13Z</time>
      </trkpt>
      <trkpt lat="45.48322" lon="6.68285">
        <ele>2198.87</ele>
        <time>2016-03-25T08:31:15Z</time>
      </trkpt>
      <trkpt lat="45.48304" lon="6.68289">
        <ele>2197.58</ele>
        <time>2016-03-25T08:31:17Z</time>
      </trkpt>
      <trkpt lat="45.48283" lon="6.68297">
        <ele>2194.62</ele>
        <time>2016-03-25T08:31:20Z</time>
      </trkpt>
      <trkpt lat="45.48271" lon="6.68319">
        <ele>2180.23</ele>
        <time>2016-03-25T08:31:23Z</time>
      </trkpt>
      <trkpt lat="45.48255" lon="6.68345">
        <ele>2169.81</ele>
        <time>2016-03-25T08:31:26Z</time>
      </trkpt>
      <trkpt lat="45.48253" lon="6.68371">
        <ele>2150.11</ele>
        <time>2016-03-25T08:31:30Z</time>
      </trkpt>
      <trkpt lat="45.4825" lon="6.68403">
        <ele>2140.32</ele>
        <time>2016-03-25T08:31:33Z</time>
      </trkpt>
      <trkpt lat="45.48242" lon="6.68431">
        <ele>2132.63</ele>
        <time>2016-03-25T08:31:36Z</time>
      </trkpt>
      <trkpt lat="45.48243" lon="6.68464">
        <ele>2125.11</ele>
        <time>2016-03-25T08:31:39Z</time>
      </trkpt>
      <trkpt lat="45.48237" lon="6.68498">
        <ele>2116.47</ele>
        <time>2016-03-25T08:31:42Z</time>
      </trkpt>
      <trkpt lat="45.48226" lon="6.68527">
        <ele>2109.27</ele>
        <time>2016-03-25T08:31:45Z</time>
      </trkpt>
      <trkpt lat="45.4822" lon="6.68567">
        <ele>2103.28</ele>
        <time>2016-03-25T08:31:47Z</time>
      </trkpt>
      <trkpt lat="45.48211" lon="6.6859">
        <ele>2100.28</ele>
        <time>2016-03-25T08:31:48Z</time>
      </trkpt>
      <trkpt lat="45.48195" lon="6.68615">
        <ele>2096.04</ele>
        <time>2016-03-25T08:31:50Z</time>
      </trkpt>
      <trkpt lat="45.48187" lon="6.68641">
        <ele>2087.85</ele>
        <time>2016-03-25T08:31:53Z</time>
      </trkpt>
      <trkpt lat="45.48166" lon="6.68663">
        <ele>2082.96</ele>
        <time>2016-03-25T08:31:56Z</time>
      </trkpt>
      <trkpt lat="45.48146" lon="6.68673">
        <ele>2080.79</ele>
        <time>2016-03-25T08:31:58Z</time>
      </trkpt>
      <trkpt lat="45.48128" lon="6.68688">
        <ele>2072.86</ele>
        <time>2016-03-25T08:32:00Z</time>
      </trkpt>
      <trkpt lat="45.48117" lon="6.68713">
        <ele>2069.11</ele>
        <time>2016-03-25T08:32:03Z</time>
      </trkpt>
      <trkpt lat="45.48129" lon="6.68734">
        <ele>2053.02</ele>
        <time>2016-03-25T08:32:13Z</time>
      </trkpt>
      <trkpt lat="45.48136" lon="6.68764">
        <ele>2040.44</ele>
        <time>2016-03-25T08:32:17Z</time>
      </trkpt>
      <trkpt lat="45.48137" lon="6.688">
        <ele>2028.43</ele>
        <time>2016-03-25T08:32:20Z</time>
      </trkpt>
      <trkpt lat="45.4814" lon="6.68826">
        <ele>2025.81</ele>
        <time>2016-03-25T08:32:22Z</time>
      </trkpt>
      <trkpt lat="45.48144" lon="6.68855">
        <ele>2016.29</ele>
        <time>2016-03-25T08:32:25Z</time>
      </trkpt>
      <trkpt lat="45.48139" lon="6.68888">
        <ele>2007.92</ele>
        <time>2016-03-25T08:32:28Z</time>
      </trkpt>
      <trkpt lat="45.48134" lon="6.68921">
        <ele>2002.03</ele>
        <time>2016-03-25T08:32:31Z</time>
      </trkpt>
      <trkpt lat="45.48131" lon="6.68952">
        <ele>1995.01</ele>
        <time>2016-03-25T08:32:34Z</time>
      </trkpt>
      <trkpt lat="45.48126" lon="6.68985">
        <ele>1986.28</ele>
        <time>2016-03-25T08:32:37Z</time>
      </trkpt>
      <trkpt lat="45.48125" lon="6.69022">
        <ele>1982.79</ele>
        <time>2016-03-25T08:32:40Z</time>
      </trkpt>
      <trkpt lat="45.48141" lon="6.69049">
        <ele>1982.53</ele>
        <time>2016-03-25T08:32:43Z</time>
      </trkpt>
      <trkpt lat="45.48158" lon="6.69062">
        <ele>1979.81</ele>
        <time>2016-03-25T08:32:45Z</time>
      </trkpt>
      <trkpt lat="45.48178" lon="6.69065">
        <ele>1974.9</ele>
        <time>2016-03-25T08:32:47Z</time>
      </trkpt>
      <trkpt lat="45.48198" lon="6.69076">
        <ele>1972.79</ele>
        <time>2016-03-25T08:32:49Z</time>
      </trkpt>
      <trkpt lat="45.48217" lon="6.69086">
        <ele>1971.58</ele>
        <time>2016-03-25T08:32:51Z</time>
      </trkpt>
      <trkpt lat="45.48235" lon="6.69092">
        <ele>1970.89</ele>
        <time>2016-03-25T08:32:53Z</time>
      </trkpt>
      <trkpt lat="45.48262" lon="6.69098">
        <ele>1967.62</ele>
        <time>2016-03-25T08:32:56Z</time>
      </trkpt>
      <trkpt lat="45.48283" lon="6.69115">
        <ele>1963.98</ele>
        <time>2016-03-25T08:32:59Z</time>
      </trkpt>
      <trkpt lat="45.48286" lon="6.69142">
        <ele>1958.74</ele>
        <time>2016-03-25T08:33:03Z</time>
      </trkpt>
      <trkpt lat="45.48271" lon="6.6916">
        <ele>1956.78</ele>
        <time>2016-03-25T08:33:05Z</time>
      </trkpt>
      <trkpt lat="45.48234" lon="6.69157">
        <ele>1954.78</ele>
        <time>2016-03-25T08:33:07Z</time>
      </trkpt>
      <trkpt lat="45.48214" lon="6.69156">
        <ele>1953.78</ele>
        <time>2016-03-25T08:33:08Z</time>
      </trkpt>
      <trkpt lat="45.48184" lon="6.69149">
        <ele>1951.78</ele>
        <time>2016-03-25T08:33:10Z</time>
      </trkpt>
      <trkpt lat="45.48153" lon="6.6914">
        <ele>1950.74</ele>
        <time>2016-03-25T08:33:12Z</time>
      </trkpt>
      <trkpt lat="45.48124" lon="6.69139">
        <ele>1948.14</ele>
        <time>2016-03-25T08:33:14Z</time>
      </trkpt>
      <trkpt lat="45.48096" lon="6.69135">
        <ele>1945</ele>
        <time>2016-03-25T08:33:16Z</time>
      </trkpt>
      <trkpt lat="45.48073" lon="6.69137">
        <ele>1942.63</ele>
        <time>2016-03-25T08:33:18Z</time>
      </trkpt>
      <trkpt lat="45.48052" lon="6.69136">
        <ele>1939.81</ele>
        <time>2016-03-25T08:33:20Z</time>
      </trkpt>
      <trkpt lat="45.48028" lon="6.69129">
        <ele>1937.78</ele>
        <time>2016-03-25T08:33:22Z</time>
      </trkpt>
      <trkpt lat="45.47995" lon="6.69111">
        <ele>1933.86</ele>
        <time>2016-03-25T08:33:24Z</time>
      </trkpt>
      <trkpt lat="45.47969" lon="6.69102">
        <ele>1930.98</ele>
        <time>2016-03-25T08:33:26Z</time>
      </trkpt>
      <trkpt lat="45.47945" lon="6.69085">
        <ele>1927.99</ele>
        <time>2016-03-25T08:33:28Z</time>
      </trkpt>
      <trkpt lat="45.47928" lon="6.69077">
        <ele>1921.31</ele>
        <time>2016-03-25T08:33:30Z</time>
      </trkpt>
      <trkpt lat="45.47902" lon="6.69059">
        <ele>1919.76</ele>
        <time>2016-03-25T08:33:32Z</time>
      </trkpt>
      <trkpt lat="45.47874" lon="6.69043">
        <ele>1916.02</ele>
        <time>2016-03-25T08:33:34Z</time>
      </trkpt>
      <trkpt lat="45.47851" lon="6.69035">
        <ele>1912.83</ele>
        <time>2016-03-25T08:33:36Z</time>
      </trkpt>
      <trkpt lat="45.47825" lon="6.69016">
        <ele>1909.98</ele>
        <time>2016-03-25T08:33:38Z</time>
      </trkpt>
      <trkpt lat="45.47807" lon="6.68997">
        <ele>1906.19</ele>
        <time>2016-03-25T08:33:40Z</time>
      </trkpt>
      <trkpt lat="45.47785" lon="6.68984">
        <ele>1902.84</ele>
        <time>2016-03-25T08:33:42Z</time>
      </trkpt>
      <trkpt lat="45.47762" lon="6.68974">
        <ele>1899.34</ele>
        <time>2016-03-25T08:33:44Z</time>
      </trkpt>
      <trkpt lat="45.4774" lon="6.68972">
        <ele>1896</ele>
        <time>2016-03-25T08:33:46Z</time>
      </trkpt>
      <trkpt lat="45.47715" lon="6.68968">
        <ele>1893.79</ele>
        <time>2016-03-25T08:33:48Z</time>
      </trkpt>
      <trkpt lat="45.47692" lon="6.68967">
        <ele>1890.98</ele>
        <time>2016-03-25T08:33:50Z</time>
      </trkpt>
      <trkpt lat="45.47674" lon="6.68973">
        <ele>1886.87</ele>
        <time>2016-03-25T08:33:52Z</time>
      </trkpt>
      <trkpt lat="45.47651" lon="6.6897">
        <ele>1879.43</ele>
        <time>2016-03-25T08:33:55Z</time>
      </trkpt>
      <trkpt lat="45.47633" lon="6.68966">
        <ele>1873.03</ele>
        <time>2016-03-25T08:33:58Z</time>
      </trkpt>
      <trkpt lat="45.47613" lon="6.6896">
        <ele>1864.79</ele>
        <time>2016-03-25T08:34:03Z</time>
      </trkpt>
      <trkpt lat="45.47594" lon="6.68957">
        <ele>1853.83</ele>
        <time>2016-03-25T08:34:09Z</time>
      </trkpt>
      <trkpt lat="45.47574" lon="6.68954">
        <ele>1850.74</ele>
        <time>2016-03-25T08:34:14Z</time>
      </trkpt>
      <trkpt lat="45.47554" lon="6.68944">
        <ele>1845.63</ele>
        <time>2016-03-25T08:34:18Z</time>
      </trkpt>
      <trkpt lat="45.47532" lon="6.68935">
        <ele>1841.61</ele>
        <time>2016-03-25T08:34:22Z</time>
      </trkpt>
      <trkpt lat="45.4751" lon="6.68926">
        <ele>1840.56</ele>
        <time>2016-03-25T08:34:26Z</time>
      </trkpt>
      <trkpt lat="45.47487" lon="6.68924">
        <ele>1836.97</ele>
        <time>2016-03-25T08:34:30Z</time>
      </trkpt>
      <trkpt lat="45.47468" lon="6.68916">
        <ele>1834.58</ele>
        <time>2016-03-25T08:34:35Z</time>
      </trkpt>
      <trkpt lat="45.47452" lon="6.68902">
        <ele>1828.59</ele>
        <time>2016-03-25T08:34:41Z</time>
      </trkpt>
      <trkpt lat="45.47433" lon="6.68897">
        <ele>1826.33</ele>
        <time>2016-03-25T08:34:47Z</time>
      </trkpt>
      <trkpt lat="45.47415" lon="6.68893">
        <ele>1824.58</ele>
        <time>2016-03-25T08:34:52Z</time>
      </trkpt>
      <trkpt lat="45.47396" lon="6.68895">
        <ele>1820.58</ele>
        <time>2016-03-25T08:34:58Z</time>
      </trkpt>
      <trkpt lat="45.47376" lon="6.68899">
        <ele>1818.38</ele>
        <time>2016-03-25T08:35:05Z</time>
      </trkpt>
      <trkpt lat="45.47357" lon="6.68905">
        <ele>1822.27</ele>
        <time>2016-03-25T08:35:12Z</time>
      </trkpt>
      <trkpt lat="45.4734" lon="6.68913">
        <ele>1818.82</ele>
        <time>2016-03-25T08:35:20Z</time>
      </trkpt>
      <trkpt lat="45.47321" lon="6.68925">
        <ele>1818.53</ele>
        <time>2016-03-25T08:35:29Z</time>
      </trkpt>
      <trkpt lat="45.47304" lon="6.68933">
        <ele>1818.52</ele>
        <time>2016-03-25T08:35:50Z</time>
      </trkpt>
      <trkpt lat="45.47302" lon="6.68963">
        <ele>1823.53</ele>
        <time>2016-03-25T08:36:36Z</time>
      </trkpt>
      <trkpt lat="45.47305" lon="6.68991">
        <ele>1827.88</ele>
        <time>2016-03-25T08:36:40Z</time>
      </trkpt>
      <trkpt lat="45.47308" lon="6.69019">
        <ele>1830.48</ele>
        <time>2016-03-25T08:36:45Z</time>
      </trkpt>
      <trkpt lat="45.47316" lon="6.69044">
        <ele>1838.07</ele>
        <time>2016-03-25T08:36:50Z</time>
      </trkpt>
      <trkpt lat="45.47321" lon="6.6907">
        <ele>1843.48</ele>
        <time>2016-03-25T08:36:55Z</time>
      </trkpt>
      <trkpt lat="45.47323" lon="6.69097">
        <ele>1848.28</ele>
        <time>2016-03-25T08:37:00Z</time>
      </trkpt>
      <trkpt lat="45.47329" lon="6.69125">
        <ele>1857.81</ele>
        <time>2016-03-25T08:37:06Z</time>
      </trkpt>
      <trkpt lat="45.47333" lon="6.69151">
        <ele>1861.29</ele>
        <time>2016-03-25T08:37:11Z</time>
      </trkpt>
      <trkpt lat="45.47337" lon="6.69177">
        <ele>1864.28</ele>
        <time>2016-03-25T08:37:16Z</time>
      </trkpt>
      <trkpt lat="45.47341" lon="6.69203">
        <ele>1869.08</ele>
        <time>2016-03-25T08:37:21Z</time>
      </trkpt>
      <trkpt lat="45.47346" lon="6.69234">
        <ele>1877.28</ele>
        <time>2016-03-25T08:37:27Z</time>
      </trkpt>
      <trkpt lat="45.4735" lon="6.6926">
        <ele>1883.09</ele>
        <time>2016-03-25T08:37:32Z</time>
      </trkpt>
      <trkpt lat="45.4735" lon="6.69288">
        <ele>1886.48</ele>
        <time>2016-03-25T08:37:37Z</time>
      </trkpt>
      <trkpt lat="45.47354" lon="6.69319">
        <ele>1893.09</ele>
        <time>2016-03-25T08:37:43Z</time>
      </trkpt>
      <trkpt lat="45.4736" lon="6.69344">
        <ele>1904.03</ele>
        <time>2016-03-25T08:37:49Z</time>
      </trkpt>
      <trkpt lat="45.47367" lon="6.69371">
        <ele>1911.32</ele>
        <time>2016-03-25T08:37:55Z</time>
      </trkpt>
      <trkpt lat="45.4737" lon="6.69398">
        <ele>1917.04</ele>
        <time>2016-03-25T08:38:00Z</time>
      </trkpt>
      <trkpt lat="45.47375" lon="6.69424">
        <ele>1921.12</ele>
        <time>2016-03-25T08:38:05Z</time>
      </trkpt>
      <trkpt lat="45.47379" lon="6.69449">
        <ele>1928.8</ele>
        <time>2016-03-25T08:38:10Z</time>
      </trkpt>
      <trkpt lat="45.47388" lon="6.69473">
        <ele>1936.33</ele>
        <time>2016-03-25T08:38:17Z</time>
      </trkpt>
      <trkpt lat="45.47384" lon="6.69505">
        <ele>1941.47</ele>
        <time>2016-03-25T08:38:21Z</time>
      </trkpt>
      <trkpt lat="45.47388" lon="6.69535">
        <ele>1951.27</ele>
        <time>2016-03-25T08:38:27Z</time>
      </trkpt>
      <trkpt lat="45.47398" lon="6.69557">
        <ele>1960.27</ele>
        <time>2016-03-25T08:38:33Z</time>
      </trkpt>
      <trkpt lat="45.47404" lon="6.69584">
        <ele>1969.18</ele>
        <time>2016-03-25T08:38:39Z</time>
      </trkpt>
      <trkpt lat="45.47411" lon="6.69611">
        <ele>1976.24</ele>
        <time>2016-03-25T08:38:45Z</time>
      </trkpt>
      <trkpt lat="45.47416" lon="6.6964">
        <ele>1981.32</ele>
        <time>2016-03-25T08:38:50Z</time>
      </trkpt>
      <trkpt lat="45.47419" lon="6.69668">
        <ele>1988.08</ele>
        <time>2016-03-25T08:38:55Z</time>
      </trkpt>
      <trkpt lat="45.47423" lon="6.69699">
        <ele>1999.03</ele>
        <time>2016-03-25T08:39:01Z</time>
      </trkpt>
      <trkpt lat="45.47427" lon="6.69728">
        <ele>2007.28</ele>
        <time>2016-03-25T08:39:07Z</time>
      </trkpt>
      <trkpt lat="45.47431" lon="6.69758">
        <ele>2015.24</ele>
        <time>2016-03-25T08:39:13Z</time>
      </trkpt>
      <trkpt lat="45.47435" lon="6.69784">
        <ele>2021.24</ele>
        <time>2016-03-25T08:39:18Z</time>
      </trkpt>
      <trkpt lat="45.47438" lon="6.6981">
        <ele>2029.04</ele>
        <time>2016-03-25T08:39:23Z</time>
      </trkpt>
      <trkpt lat="45.47441" lon="6.69837">
        <ele>2038.07</ele>
        <time>2016-03-25T08:39:28Z</time>
      </trkpt>
      <trkpt lat="45.47445" lon="6.69868">
        <ele>2047.07</ele>
        <time>2016-03-25T08:39:34Z</time>
      </trkpt>
      <trkpt lat="45.4745" lon="6.69893">
        <ele>2054.04</ele>
        <time>2016-03-25T08:39:39Z</time>
      </trkpt>
      <trkpt lat="45.47455" lon="6.69922">
        <ele>2065.23</ele>
        <time>2016-03-25T08:39:45Z</time>
      </trkpt>
      <trkpt lat="45.47458" lon="6.6995">
        <ele>2071.12</ele>
        <time>2016-03-25T08:39:50Z</time>
      </trkpt>
      <trkpt lat="45.47463" lon="6.69978">
        <ele>2078.48</ele>
        <time>2016-03-25T08:39:56Z</time>
      </trkpt>
      <trkpt lat="45.47468" lon="6.70003">
        <ele>2086.03</ele>
        <time>2016-03-25T08:40:01Z</time>
      </trkpt>
      <trkpt lat="45.47474" lon="6.70029">
        <ele>2095.88</ele>
        <time>2016-03-25T08:40:07Z</time>
      </trkpt>
      <trkpt lat="45.47477" lon="6.70058">
        <ele>2103.24</ele>
        <time>2016-03-25T08:40:13Z</time>
      </trkpt>
      <trkpt lat="45.47482" lon="6.70084">
        <ele>2105.52</ele>
        <time>2016-03-25T08:40:19Z</time>
      </trkpt>
      <trkpt lat="45.47473" lon="6.70108">
        <ele>2104.56</ele>
        <time>2016-03-25T08:41:07Z</time>
      </trkpt>
      <trkpt lat="45.47459" lon="6.70123">
        <ele>2100.74</ele>
        <time>2016-03-25T08:41:12Z</time>
      </trkpt>
      <trkpt lat="45.47442" lon="6.70103">
        <ele>2097.73</ele>
        <time>2016-03-25T08:41:27Z</time>
      </trkpt>
      <trkpt lat="45.47423" lon="6.70081">
        <ele>2094.78</ele>
        <time>2016-03-25T08:41:32Z</time>
      </trkpt>
      <trkpt lat="45.474" lon="6.70076">
        <ele>2090.37</ele>
        <time>2016-03-25T08:41:35Z</time>
      </trkpt>
      <trkpt lat="45.47375" lon="6.70079">
        <ele>2080.99</ele>
        <time>2016-03-25T08:41:38Z</time>
      </trkpt>
      <trkpt lat="45.47355" lon="6.70073">
        <ele>2080.39</ele>
        <time>2016-03-25T08:41:40Z</time>
      </trkpt>
      <trkpt lat="45.47338" lon="6.70063">
        <ele>2078.13</ele>
        <time>2016-03-25T08:41:42Z</time>
      </trkpt>
      <trkpt lat="45.4732" lon="6.70066">
        <ele>2075.79</ele>
        <time>2016-03-25T08:41:44Z</time>
      </trkpt>
      <trkpt lat="45.47304" lon="6.70084">
        <ele>2071.6</ele>
        <time>2016-03-25T08:41:47Z</time>
      </trkpt>
      <trkpt lat="45.47293" lon="6.70106">
        <ele>2069.58</ele>
        <time>2016-03-25T08:41:51Z</time>
      </trkpt>
      <trkpt lat="45.47283" lon="6.70135">
        <ele>2065.94</ele>
        <time>2016-03-25T08:41:57Z</time>
      </trkpt>
      <trkpt lat="45.47262" lon="6.7013">
        <ele>2061.98</ele>
        <time>2016-03-25T08:42:00Z</time>
      </trkpt>
      <trkpt lat="45.47249" lon="6.70102">
        <ele>2056.86</ele>
        <time>2016-03-25T08:42:03Z</time>
      </trkpt>
      <trkpt lat="45.47251" lon="6.70068">
        <ele>2053.97</ele>
        <time>2016-03-25T08:42:06Z</time>
      </trkpt>
      <trkpt lat="45.4725" lon="6.70028">
        <ele>2048</ele>
        <time>2016-03-25T08:42:09Z</time>
      </trkpt>
      <trkpt lat="45.4725" lon="6.70001">
        <ele>2045.79</ele>
        <time>2016-03-25T08:42:11Z</time>
      </trkpt>
      <trkpt lat="45.47251" lon="6.69967">
        <ele>2045.57</ele>
        <time>2016-03-25T08:42:14Z</time>
      </trkpt>
      <trkpt lat="45.4725" lon="6.6993">
        <ele>2043.74</ele>
        <time>2016-03-25T08:42:17Z</time>
      </trkpt>
      <trkpt lat="45.47247" lon="6.69902">
        <ele>2040.66</ele>
        <time>2016-03-25T08:42:19Z</time>
      </trkpt>
      <trkpt lat="45.47242" lon="6.69873">
        <ele>2034.46</ele>
        <time>2016-03-25T08:42:21Z</time>
      </trkpt>
      <trkpt lat="45.47232" lon="6.69846">
        <ele>2031.97</ele>
        <time>2016-03-25T08:42:23Z</time>
      </trkpt>
      <trkpt lat="45.47223" lon="6.69815">
        <ele>2028.67</ele>
        <time>2016-03-25T08:42:25Z</time>
      </trkpt>
      <trkpt lat="45.47214" lon="6.69786">
        <ele>2024.06</ele>
        <time>2016-03-25T08:42:27Z</time>
      </trkpt>
      <trkpt lat="45.472" lon="6.69756">
        <ele>2020.03</ele>
        <time>2016-03-25T08:42:29Z</time>
      </trkpt>
      <trkpt lat="45.47185" lon="6.69728">
        <ele>2019.55</ele>
        <time>2016-03-25T08:42:31Z</time>
      </trkpt>
      <trkpt lat="45.47169" lon="6.69704">
        <ele>2015.85</ele>
        <time>2016-03-25T08:42:33Z</time>
      </trkpt>
      <trkpt lat="45.47151" lon="6.69682">
        <ele>2012.02</ele>
        <time>2016-03-25T08:42:35Z</time>
      </trkpt>
      <trkpt lat="45.47144" lon="6.69656">
        <ele>2007.07</ele>
        <time>2016-03-25T08:42:37Z</time>
      </trkpt>
      <trkpt lat="45.47145" lon="6.6963">
        <ele>2004.78</ele>
        <time>2016-03-25T08:42:40Z</time>
      </trkpt>
      <trkpt lat="45.47158" lon="6.69607">
        <ele>1998.79</ele>
        <time>2016-03-25T08:42:46Z</time>
      </trkpt>
      <trkpt lat="45.47175" lon="6.69591">
        <ele>1993.99</ele>
        <time>2016-03-25T08:42:49Z</time>
      </trkpt>
      <trkpt lat="45.47193" lon="6.6957">
        <ele>1987.45</ele>
        <time>2016-03-25T08:42:52Z</time>
      </trkpt>
      <trkpt lat="45.47209" lon="6.69555">
        <ele>1983.05</ele>
        <time>2016-03-25T08:42:54Z</time>
      </trkpt>
      <trkpt lat="45.47226" lon="6.69527">
        <ele>1978.02</ele>
        <time>2016-03-25T08:42:57Z</time>
      </trkpt>
      <trkpt lat="45.47234" lon="6.69499">
        <ele>1974.01</ele>
        <time>2016-03-25T08:43:00Z</time>
      </trkpt>
      <trkpt lat="45.47252" lon="6.69483">
        <ele>1967.07</ele>
        <time>2016-03-25T08:43:03Z</time>
      </trkpt>
      <trkpt lat="45.47266" lon="6.69462">
        <ele>1963.14</ele>
        <time>2016-03-25T08:43:06Z</time>
      </trkpt>
      <trkpt lat="45.47272" lon="6.69437">
        <ele>1959.78</ele>
        <time>2016-03-25T08:43:09Z</time>
      </trkpt>
      <trkpt lat="45.47291" lon="6.69445">
        <ele>1954.73</ele>
        <time>2016-03-25T08:43:38Z</time>
      </trkpt>
      <trkpt lat="45.47308" lon="6.69429">
        <ele>1946.79</ele>
        <time>2016-03-25T08:43:44Z</time>
      </trkpt>
      <trkpt lat="45.47304" lon="6.694">
        <ele>1940.04</ele>
        <time>2016-03-25T08:43:48Z</time>
      </trkpt>
      <trkpt lat="45.47302" lon="6.6937">
        <ele>1934.86</ele>
        <time>2016-03-25T08:43:52Z</time>
      </trkpt>
      <trkpt lat="45.47309" lon="6.69336">
        <ele>1930.02</ele>
        <time>2016-03-25T08:43:55Z</time>
      </trkpt>
      <trkpt lat="45.47312" lon="6.69302">
        <ele>1926.78</ele>
        <time>2016-03-25T08:43:58Z</time>
      </trkpt>
      <trkpt lat="45.47311" lon="6.69263">
        <ele>1916.62</ele>
        <time>2016-03-25T08:44:00Z</time>
      </trkpt>
      <trkpt lat="45.47304" lon="6.69234">
        <ele>1911.89</ele>
        <time>2016-03-25T08:44:02Z</time>
      </trkpt>
      <trkpt lat="45.473" lon="6.69203">
        <ele>1903.87</ele>
        <time>2016-03-25T08:44:04Z</time>
      </trkpt>
      <trkpt lat="45.47293" lon="6.69173">
        <ele>1899.06</ele>
        <time>2016-03-25T08:44:06Z</time>
      </trkpt>
      <trkpt lat="45.47287" lon="6.69139">
        <ele>1894.23</ele>
        <time>2016-03-25T08:44:08Z</time>
      </trkpt>
      <trkpt lat="45.4728" lon="6.69113">
        <ele>1888.12</ele>
        <time>2016-03-25T08:44:10Z</time>
      </trkpt>
      <trkpt lat="45.47269" lon="6.69092">
        <ele>1878.75</ele>
        <time>2016-03-25T08:44:12Z</time>
      </trkpt>
      <trkpt lat="45.47257" lon="6.69059">
        <ele>1871.24</ele>
        <time>2016-03-25T08:44:15Z</time>
      </trkpt>
      <trkpt lat="45.47245" lon="6.69029">
        <ele>1864.01</ele>
        <time>2016-03-25T08:44:18Z</time>
      </trkpt>
      <trkpt lat="45.47242" lon="6.69002">
        <ele>1860.78</ele>
        <time>2016-03-25T08:44:21Z</time>
      </trkpt>
      <trkpt lat="45.47252" lon="6.68976">
        <ele>1859.73</ele>
        <time>2016-03-25T08:44:24Z</time>
      </trkpt>
      <trkpt lat="45.4725" lon="6.68948">
        <ele>1856.82</ele>
        <time>2016-03-25T08:44:26Z</time>
      </trkpt>
      <trkpt lat="45.47271" lon="6.68933">
        <ele>1853.78</ele>
        <time>2016-03-25T08:44:29Z</time>
      </trkpt>
      <trkpt lat="45.47292" lon="6.68926">
        <ele>1846.98</ele>
        <time>2016-03-25T08:44:33Z</time>
      </trkpt>
      <trkpt lat="45.47312" lon="6.68924">
        <ele>1843.73</ele>
        <time>2016-03-25T08:44:38Z</time>
      </trkpt>
      <trkpt lat="45.47304" lon="6.68956">
        <ele>1818.73</ele>
        <time>2016-03-25T08:45:52Z</time>
      </trkpt>
      <trkpt lat="45.47306" lon="6.68983">
        <ele>1819.17</ele>
        <time>2016-03-25T08:45:55Z</time>
      </trkpt>
      <trkpt lat="45.47313" lon="6.69012">
        <ele>1825.29</ele>
        <time>2016-03-25T08:46:00Z</time>
      </trkpt>
      <trkpt lat="45.4732" lon="6.69036">
        <ele>1830.25</ele>
        <time>2016-03-25T08:46:05Z</time>
      </trkpt>
      <trkpt lat="45.47323" lon="6.69063">
        <ele>1840.06</ele>
        <time>2016-03-25T08:46:10Z</time>
      </trkpt>
      <trkpt lat="45.47325" lon="6.69091">
        <ele>1845.25</ele>
        <time>2016-03-25T08:46:15Z</time>
      </trkpt>
      <trkpt lat="45.4733" lon="6.69117">
        <ele>1850.28</ele>
        <time>2016-03-25T08:46:20Z</time>
      </trkpt>
      <trkpt lat="45.47334" lon="6.69143">
        <ele>1856.27</ele>
        <time>2016-03-25T08:46:25Z</time>
      </trkpt>
      <trkpt lat="45.47339" lon="6.69167">
        <ele>1862.07</ele>
        <time>2016-03-25T08:46:30Z</time>
      </trkpt>
      <trkpt lat="45.47342" lon="6.69194">
        <ele>1866.52</ele>
        <time>2016-03-25T08:46:35Z</time>
      </trkpt>
      <trkpt lat="45.47347" lon="6.69222">
        <ele>1876.24</ele>
        <time>2016-03-25T08:46:41Z</time>
      </trkpt>
      <trkpt lat="45.4735" lon="6.69248">
        <ele>1880.44</ele>
        <time>2016-03-25T08:46:46Z</time>
      </trkpt>
      <trkpt lat="45.47355" lon="6.69275">
        <ele>1885.31</ele>
        <time>2016-03-25T08:46:51Z</time>
      </trkpt>
      <trkpt lat="45.47357" lon="6.69302">
        <ele>1890.28</ele>
        <time>2016-03-25T08:46:56Z</time>
      </trkpt>
      <trkpt lat="45.47362" lon="6.69327">
        <ele>1893.36</ele>
        <time>2016-03-25T08:47:01Z</time>
      </trkpt>
      <trkpt lat="45.47365" lon="6.69359">
        <ele>1897.44</ele>
        <time>2016-03-25T08:47:07Z</time>
      </trkpt>
      <trkpt lat="45.4737" lon="6.6939">
        <ele>1901.09</ele>
        <time>2016-03-25T08:47:13Z</time>
      </trkpt>
      <trkpt lat="45.47373" lon="6.69417">
        <ele>1905.48</ele>
        <time>2016-03-25T08:47:18Z</time>
      </trkpt>
      <trkpt lat="45.47379" lon="6.69447">
        <ele>1911.27</ele>
        <time>2016-03-25T08:47:24Z</time>
      </trkpt>
      <trkpt lat="45.47381" lon="6.69474">
        <ele>1920.08</ele>
        <time>2016-03-25T08:47:29Z</time>
      </trkpt>
      <trkpt lat="45.47388" lon="6.69502">
        <ele>1930.04</ele>
        <time>2016-03-25T08:47:35Z</time>
      </trkpt>
      <trkpt lat="45.47391" lon="6.69527">
        <ele>1936.02</ele>
        <time>2016-03-25T08:47:40Z</time>
      </trkpt>
      <trkpt lat="45.47398" lon="6.69554">
        <ele>1945.26</ele>
        <time>2016-03-25T08:47:46Z</time>
      </trkpt>
      <trkpt lat="45.47405" lon="6.69578">
        <ele>1957.02</ele>
        <time>2016-03-25T08:47:52Z</time>
      </trkpt>
      <trkpt lat="45.47407" lon="6.69604">
        <ele>1965.23</ele>
        <time>2016-03-25T08:47:57Z</time>
      </trkpt>
      <trkpt lat="45.47412" lon="6.69629">
        <ele>1973.28</ele>
        <time>2016-03-25T08:48:02Z</time>
      </trkpt>
      <trkpt lat="45.47414" lon="6.69656">
        <ele>1979.04</ele>
        <time>2016-03-25T08:48:07Z</time>
      </trkpt>
      <trkpt lat="45.4742" lon="6.69682">
        <ele>1982.13</ele>
        <time>2016-03-25T08:48:12Z</time>
      </trkpt>
      <trkpt lat="45.47425" lon="6.69711">
        <ele>1987.28</ele>
        <time>2016-03-25T08:48:18Z</time>
      </trkpt>
      <trkpt lat="45.47429" lon="6.69737">
        <ele>1995.24</ele>
        <time>2016-03-25T08:48:23Z</time>
      </trkpt>
      <trkpt lat="45.47433" lon="6.69764">
        <ele>2006.25</ele>
        <time>2016-03-25T08:48:29Z</time>
      </trkpt>
      <trkpt lat="45.47439" lon="6.69794">
        <ele>2015.92</ele>
        <time>2016-03-25T08:48:35Z</time>
      </trkpt>
      <trkpt lat="45.47445" lon="6.69822">
        <ele>2024.24</ele>
        <time>2016-03-25T08:48:41Z</time>
      </trkpt>
      <trkpt lat="45.47448" lon="6.69847">
        <ele>2031.07</ele>
        <time>2016-03-25T08:48:46Z</time>
      </trkpt>
      <trkpt lat="45.47452" lon="6.69878">
        <ele>2041.27</ele>
        <time>2016-03-25T08:48:52Z</time>
      </trkpt>
      <trkpt lat="45.47462" lon="6.69901">
        <ele>2048.32</ele>
        <time>2016-03-25T08:48:58Z</time>
      </trkpt>
      <trkpt lat="45.47471" lon="6.69924">
        <ele>2055.45</ele>
        <time>2016-03-25T08:49:04Z</time>
      </trkpt>
      <trkpt lat="45.47473" lon="6.6995">
        <ele>2063.86</ele>
        <time>2016-03-25T08:49:09Z</time>
      </trkpt>
      <trkpt lat="45.47475" lon="6.69977">
        <ele>2073.47</ele>
        <time>2016-03-25T08:49:14Z</time>
      </trkpt>
      <trkpt lat="45.47478" lon="6.70004">
        <ele>2081.3</ele>
        <time>2016-03-25T08:49:19Z</time>
      </trkpt>
      <trkpt lat="45.4748" lon="6.70031">
        <ele>2093.78</ele>
        <time>2016-03-25T08:49:24Z</time>
      </trkpt>
      <trkpt lat="45.47483" lon="6.70057">
        <ele>2099.25</ele>
        <time>2016-03-25T08:49:29Z</time>
      </trkpt>
      <trkpt lat="45.47484" lon="6.70083">
        <ele>2098.72</ele>
        <time>2016-03-25T08:49:34Z</time>
      </trkpt>
      <trkpt lat="45.47482" lon="6.70114">
        <ele>2101.3</ele>
        <time>2016-03-25T08:49:41Z</time>
      </trkpt>
      <trkpt lat="45.47472" lon="6.70137">
        <ele>2099.58</ele>
        <time>2016-03-25T08:49:48Z</time>
      </trkpt>
      <trkpt lat="45.47459" lon="6.70162">
        <ele>2096.81</ele>
        <time>2016-03-25T08:49:53Z</time>
      </trkpt>
      <trkpt lat="45.47437" lon="6.70162">
        <ele>2092.81</ele>
        <time>2016-03-25T08:49:57Z</time>
      </trkpt>
      <trkpt lat="45.47417" lon="6.70148">
        <ele>2091.74</ele>
        <time>2016-03-25T08:49:59Z</time>
      </trkpt>
      <trkpt lat="45.47391" lon="6.70129">
        <ele>2086.58</ele>
        <time>2016-03-25T08:50:01Z</time>
      </trkpt>
      <trkpt lat="45.47368" lon="6.70108">
        <ele>2085.57</ele>
        <time>2016-03-25T08:50:03Z</time>
      </trkpt>
      <trkpt lat="45.47343" lon="6.70096">
        <ele>2074.17</ele>
        <time>2016-03-25T08:50:06Z</time>
      </trkpt>
      <trkpt lat="45.47322" lon="6.70085">
        <ele>2068.77</ele>
        <time>2016-03-25T08:50:09Z</time>
      </trkpt>
      <trkpt lat="45.47307" lon="6.701">
        <ele>2065.53</ele>
        <time>2016-03-25T08:50:26Z</time>
      </trkpt>
      <trkpt lat="45.47307" lon="6.70126">
        <ele>2069.29</ele>
        <time>2016-03-25T08:51:29Z</time>
      </trkpt>
      <trkpt lat="45.47326" lon="6.7014">
        <ele>2067.55</ele>
        <time>2016-03-25T08:51:39Z</time>
      </trkpt>
      <trkpt lat="45.47343" lon="6.70154">
        <ele>2065.94</ele>
        <time>2016-03-25T08:51:44Z</time>
      </trkpt>
      <trkpt lat="45.47362" lon="6.70167">
        <ele>2071.47</ele>
        <time>2016-03-25T08:51:50Z</time>
      </trkpt>
      <trkpt lat="45.47378" lon="6.70181">
        <ele>2076.28</ele>
        <time>2016-03-25T08:51:56Z</time>
      </trkpt>
      <trkpt lat="45.47394" lon="6.70195">
        <ele>2079.13</ele>
        <time>2016-03-25T08:52:02Z</time>
      </trkpt>
      <trkpt lat="45.47413" lon="6.70207">
        <ele>2087.27</ele>
        <time>2016-03-25T08:52:07Z</time>
      </trkpt>
      <trkpt lat="45.4743" lon="6.7022">
        <ele>2090.49</ele>
        <time>2016-03-25T08:52:12Z</time>
      </trkpt>
      <trkpt lat="45.4745" lon="6.7023">
        <ele>2098.9</ele>
        <time>2016-03-25T08:52:17Z</time>
      </trkpt>
      <trkpt lat="45.47465" lon="6.7025">
        <ele>2105.28</ele>
        <time>2016-03-25T08:52:24Z</time>
      </trkpt>
      <trkpt lat="45.47482" lon="6.70263">
        <ele>2110.49</ele>
        <time>2016-03-25T08:52:30Z</time>
      </trkpt>
      <trkpt lat="45.47499" lon="6.70279">
        <ele>2114.48</ele>
        <time>2016-03-25T08:52:36Z</time>
      </trkpt>
      <trkpt lat="45.47517" lon="6.70294">
        <ele>2118.52</ele>
        <time>2016-03-25T08:52:42Z</time>
      </trkpt>
      <trkpt lat="45.47535" lon="6.7031">
        <ele>2122.25</ele>
        <time>2016-03-25T08:52:48Z</time>
      </trkpt>
      <trkpt lat="45.47551" lon="6.70324">
        <ele>2130.23</ele>
        <time>2016-03-25T08:52:54Z</time>
      </trkpt>
      <trkpt lat="45.47568" lon="6.70336">
        <ele>2140.07</ele>
        <time>2016-03-25T08:53:00Z</time>
      </trkpt>
      <trkpt lat="45.47585" lon="6.70351">
        <ele>2144.69</ele>
        <time>2016-03-25T08:53:06Z</time>
      </trkpt>
      <trkpt lat="45.47601" lon="6.70367">
        <ele>2149.28</ele>
        <time>2016-03-25T08:53:12Z</time>
      </trkpt>
      <trkpt lat="45.47619" lon="6.70382">
        <ele>2153.48</ele>
        <time>2016-03-25T08:53:18Z</time>
      </trkpt>
      <trkpt lat="45.47637" lon="6.70396">
        <ele>2159.27</ele>
        <time>2016-03-25T08:53:24Z</time>
      </trkpt>
      <trkpt lat="45.47653" lon="6.70411">
        <ele>2166.29</ele>
        <time>2016-03-25T08:53:30Z</time>
      </trkpt>
      <trkpt lat="45.47669" lon="6.70427">
        <ele>2175.25</ele>
        <time>2016-03-25T08:53:37Z</time>
      </trkpt>
      <trkpt lat="45.47688" lon="6.70441">
        <ele>2177.33</ele>
        <time>2016-03-25T08:53:43Z</time>
      </trkpt>
      <trkpt lat="45.47706" lon="6.70453">
        <ele>2181.29</ele>
        <time>2016-03-25T08:53:49Z</time>
      </trkpt>
      <trkpt lat="45.47724" lon="6.70469">
        <ele>2183.57</ele>
        <time>2016-03-25T08:53:55Z</time>
      </trkpt>
      <trkpt lat="45.4774" lon="6.70483">
        <ele>2186.32</ele>
        <time>2016-03-25T08:54:00Z</time>
      </trkpt>
      <trkpt lat="45.47757" lon="6.70495">
        <ele>2189.29</ele>
        <time>2016-03-25T08:54:05Z</time>
      </trkpt>
      <trkpt lat="45.47776" lon="6.70507">
        <ele>2194.28</ele>
        <time>2016-03-25T08:54:10Z</time>
      </trkpt>
      <trkpt lat="45.47793" lon="6.70522">
        <ele>2201.11</ele>
        <time>2016-03-25T08:54:16Z</time>
      </trkpt>
      <trkpt lat="45.47811" lon="6.70536">
        <ele>2208.24</ele>
        <time>2016-03-25T08:54:22Z</time>
      </trkpt>
      <trkpt lat="45.47827" lon="6.70549">
        <ele>2210.53</ele>
        <time>2016-03-25T08:54:28Z</time>
      </trkpt>
      <trkpt lat="45.47845" lon="6.7056">
        <ele>2213.44</ele>
        <time>2016-03-25T08:54:33Z</time>
      </trkpt>
      <trkpt lat="45.47865" lon="6.70574">
        <ele>2217.32</ele>
        <time>2016-03-25T08:54:39Z</time>
      </trkpt>
      <trkpt lat="45.47883" lon="6.70587">
        <ele>2218.5</ele>
        <time>2016-03-25T08:54:44Z</time>
      </trkpt>
      <trkpt lat="45.47898" lon="6.70604">
        <ele>2226.2</ele>
        <time>2016-03-25T08:54:50Z</time>
      </trkpt>
      <trkpt lat="45.47916" lon="6.70617">
        <ele>2228.37</ele>
        <time>2016-03-25T08:54:56Z</time>
      </trkpt>
      <trkpt lat="45.47933" lon="6.7063">
        <ele>2231.32</ele>
        <time>2016-03-25T08:55:01Z</time>
      </trkpt>
      <trkpt lat="45.47952" lon="6.70645">
        <ele>2237.29</ele>
        <time>2016-03-25T08:55:07Z</time>
      </trkpt>
      <trkpt lat="45.47967" lon="6.70662">
        <ele>2241.48</ele>
        <time>2016-03-25T08:55:13Z</time>
      </trkpt>
      <trkpt lat="45.47986" lon="6.70673">
        <ele>2244.13</ele>
        <time>2016-03-25T08:55:18Z</time>
      </trkpt>
      <trkpt lat="45.48002" lon="6.70687">
        <ele>2244.72</ele>
        <time>2016-03-25T08:55:23Z</time>
      </trkpt>
      <trkpt lat="45.48019" lon="6.70701">
        <ele>2248.29</ele>
        <time>2016-03-25T08:55:29Z</time>
      </trkpt>
      <trkpt lat="45.48035" lon="6.70717">
        <ele>2254.32</ele>
        <time>2016-03-25T08:55:35Z</time>
      </trkpt>
      <trkpt lat="45.48053" lon="6.70728">
        <ele>2259.06</ele>
        <time>2016-03-25T08:55:40Z</time>
      </trkpt>
      <trkpt lat="45.48067" lon="6.70745">
        <ele>2264.32</ele>
        <time>2016-03-25T08:55:46Z</time>
      </trkpt>
      <trkpt lat="45.48085" lon="6.70759">
        <ele>2270.12</ele>
        <time>2016-03-25T08:55:52Z</time>
      </trkpt>
      <trkpt lat="45.48103" lon="6.7077">
        <ele>2270.52</ele>
        <time>2016-03-25T08:55:57Z</time>
      </trkpt>
      <trkpt lat="45.48119" lon="6.70782">
        <ele>2272.45</ele>
        <time>2016-03-25T08:56:02Z</time>
      </trkpt>
      <trkpt lat="45.48135" lon="6.70799">
        <ele>2278.47</ele>
        <time>2016-03-25T08:56:08Z</time>
      </trkpt>
      <trkpt lat="45.48154" lon="6.70811">
        <ele>2287.08</ele>
        <time>2016-03-25T08:56:14Z</time>
      </trkpt>
      <trkpt lat="45.48172" lon="6.70828">
        <ele>2293.08</ele>
        <time>2016-03-25T08:56:20Z</time>
      </trkpt>
      <trkpt lat="45.48189" lon="6.70843">
        <ele>2296.51</ele>
        <time>2016-03-25T08:56:26Z</time>
      </trkpt>
      <trkpt lat="45.48206" lon="6.70858">
        <ele>2298.32</ele>
        <time>2016-03-25T08:56:32Z</time>
      </trkpt>
      <trkpt lat="45.48224" lon="6.70873">
        <ele>2305.45</ele>
        <time>2016-03-25T08:56:38Z</time>
      </trkpt>
      <trkpt lat="45.48239" lon="6.70887">
        <ele>2313.08</ele>
        <time>2016-03-25T08:56:44Z</time>
      </trkpt>
      <trkpt lat="45.48258" lon="6.70902">
        <ele>2320.08</ele>
        <time>2016-03-25T08:56:50Z</time>
      </trkpt>
      <trkpt lat="45.48274" lon="6.70913">
        <ele>2321.53</ele>
        <time>2016-03-25T08:56:55Z</time>
      </trkpt>
      <trkpt lat="45.48291" lon="6.70925">
        <ele>2327.25</ele>
        <time>2016-03-25T08:57:00Z</time>
      </trkpt>
      <trkpt lat="45.48308" lon="6.7094">
        <ele>2330.52</ele>
        <time>2016-03-25T08:57:06Z</time>
      </trkpt>
      <trkpt lat="45.48326" lon="6.70956">
        <ele>2329.58</ele>
        <time>2016-03-25T08:57:12Z</time>
      </trkpt>
      <trkpt lat="45.48342" lon="6.70974">
        <ele>2331.32</ele>
        <time>2016-03-25T08:57:18Z</time>
      </trkpt>
      <trkpt lat="45.4836" lon="6.70985">
        <ele>2336.32</ele>
        <time>2016-03-25T08:57:23Z</time>
      </trkpt>
      <trkpt lat="45.48377" lon="6.70997">
        <ele>2340.28</ele>
        <time>2016-03-25T08:57:28Z</time>
      </trkpt>
      <trkpt lat="45.48395" lon="6.71013">
        <ele>2343.29</ele>
        <time>2016-03-25T08:57:34Z</time>
      </trkpt>
      <trkpt lat="45.48412" lon="6.7103">
        <ele>2349.24</ele>
        <time>2016-03-25T08:57:40Z</time>
      </trkpt>
      <trkpt lat="45.48427" lon="6.71043">
        <ele>2353.5</ele>
        <time>2016-03-25T08:57:46Z</time>
      </trkpt>
      <trkpt lat="45.48447" lon="6.71054">
        <ele>2355.53</ele>
        <time>2016-03-25T08:57:51Z</time>
      </trkpt>
      <trkpt lat="45.48463" lon="6.71066">
        <ele>2360.09</ele>
        <time>2016-03-25T08:57:56Z</time>
      </trkpt>
      <trkpt lat="45.48482" lon="6.71078">
        <ele>2365.44</ele>
        <time>2016-03-25T08:58:01Z</time>
      </trkpt>
      <trkpt lat="45.48497" lon="6.71096">
        <ele>2368.53</ele>
        <time>2016-03-25T08:58:07Z</time>
      </trkpt>
      <trkpt lat="45.48515" lon="6.71104">
        <ele>2370.75</ele>
        <time>2016-03-25T08:58:14Z</time>
      </trkpt>
      <trkpt lat="45.48533" lon="6.7111">
        <ele>2378.53</ele>
        <time>2016-03-25T08:59:01Z</time>
      </trkpt>
      <trkpt lat="45.48552" lon="6.71111">
        <ele>2375.53</ele>
        <time>2016-03-25T08:59:09Z</time>
      </trkpt>
      <trkpt lat="45.4857" lon="6.7112">
        <ele>2374.33</ele>
        <time>2016-03-25T08:59:15Z</time>
      </trkpt>
      <trkpt lat="45.48591" lon="6.71131">
        <ele>2370.7</ele>
        <time>2016-03-25T08:59:19Z</time>
      </trkpt>
      <trkpt lat="45.48604" lon="6.71149">
        <ele>2366.6</ele>
        <time>2016-03-25T08:59:22Z</time>
      </trkpt>
      <trkpt lat="45.48626" lon="6.71164">
        <ele>2365.73</ele>
        <time>2016-03-25T08:59:25Z</time>
      </trkpt>
      <trkpt lat="45.48651" lon="6.71158">
        <ele>2363.94</ele>
        <time>2016-03-25T08:59:27Z</time>
      </trkpt>
      <trkpt lat="45.4868" lon="6.71155">
        <ele>2360.03</ele>
        <time>2016-03-25T08:59:29Z</time>
      </trkpt>
      <trkpt lat="45.48706" lon="6.71153">
        <ele>2356.03</ele>
        <time>2016-03-25T08:59:31Z</time>
      </trkpt>
      <trkpt lat="45.48727" lon="6.71151">
        <ele>2354.75</ele>
        <time>2016-03-25T08:59:33Z</time>
      </trkpt>
      <trkpt lat="45.48745" lon="6.71141">
        <ele>2351.97</ele>
        <time>2016-03-25T08:59:36Z</time>
      </trkpt>
      <trkpt lat="45.48754" lon="6.71112">
        <ele>2344.96</ele>
        <time>2016-03-25T08:59:40Z</time>
      </trkpt>
      <trkpt lat="45.48775" lon="6.71095">
        <ele>2341.74</ele>
        <time>2016-03-25T08:59:44Z</time>
      </trkpt>
      <trkpt lat="45.48785" lon="6.71067">
        <ele>2339.78</ele>
        <time>2016-03-25T08:59:46Z</time>
      </trkpt>
      <trkpt lat="45.488" lon="6.71038">
        <ele>2334.26</ele>
        <time>2016-03-25T08:59:48Z</time>
      </trkpt>
      <trkpt lat="45.4883" lon="6.71013">
        <ele>2330.36</ele>
        <time>2016-03-25T08:59:50Z</time>
      </trkpt>
      <trkpt lat="45.48853" lon="6.70993">
        <ele>2327</ele>
        <time>2016-03-25T08:59:52Z</time>
      </trkpt>
      <trkpt lat="45.48877" lon="6.7097">
        <ele>2322.71</ele>
        <time>2016-03-25T08:59:54Z</time>
      </trkpt>
      <trkpt lat="45.4889" lon="6.70951">
        <ele>2321.58</ele>
        <time>2016-03-25T08:59:56Z</time>
      </trkpt>
      <trkpt lat="45.48908" lon="6.70929">
        <ele>2320.54</ele>
        <time>2016-03-25T08:59:59Z</time>
      </trkpt>
      <trkpt lat="45.48921" lon="6.70908">
        <ele>2313.07</ele>
        <time>2016-03-25T09:00:02Z</time>
      </trkpt>
      <trkpt lat="45.48939" lon="6.70893">
        <ele>2307.58</ele>
        <time>2016-03-25T09:00:06Z</time>
      </trkpt>
      <trkpt lat="45.4895" lon="6.70913">
        <ele>2303.33</ele>
        <time>2016-03-25T09:01:20Z</time>
      </trkpt>
      <trkpt lat="45.48955" lon="6.70939">
        <ele>2302.51</ele>
        <time>2016-03-25T09:01:23Z</time>
      </trkpt>
      <trkpt lat="45.48962" lon="6.70969">
        <ele>2306.27</ele>
        <time>2016-03-25T09:01:27Z</time>
      </trkpt>
      <trkpt lat="45.48966" lon="6.70999">
        <ele>2312.2</ele>
        <time>2016-03-25T09:01:32Z</time>
      </trkpt>
      <trkpt lat="45.4897" lon="6.71025">
        <ele>2318.23</ele>
        <time>2016-03-25T09:01:36Z</time>
      </trkpt>
      <trkpt lat="45.48973" lon="6.7105">
        <ele>2321.29</ele>
        <time>2016-03-25T09:01:40Z</time>
      </trkpt>
      <trkpt lat="45.48978" lon="6.71076">
        <ele>2319.57</ele>
        <time>2016-03-25T09:01:44Z</time>
      </trkpt>
      <trkpt lat="45.48982" lon="6.71105">
        <ele>2325.27</ele>
        <time>2016-03-25T09:01:49Z</time>
      </trkpt>
      <trkpt lat="45.48987" lon="6.71133">
        <ele>2331.31</ele>
        <time>2016-03-25T09:01:54Z</time>
      </trkpt>
      <trkpt lat="45.48991" lon="6.71163">
        <ele>2336.08</ele>
        <time>2016-03-25T09:01:59Z</time>
      </trkpt>
      <trkpt lat="45.48996" lon="6.71191">
        <ele>2344.23</ele>
        <time>2016-03-25T09:02:04Z</time>
      </trkpt>
      <trkpt lat="45.49002" lon="6.7122">
        <ele>2354.98</ele>
        <time>2016-03-25T09:02:09Z</time>
      </trkpt>
      <trkpt lat="45.49006" lon="6.71245">
        <ele>2365.83</ele>
        <time>2016-03-25T09:02:14Z</time>
      </trkpt>
      <trkpt lat="45.4901" lon="6.71275">
        <ele>2373.24</ele>
        <time>2016-03-25T09:02:19Z</time>
      </trkpt>
      <trkpt lat="45.49015" lon="6.71299">
        <ele>2380.23</ele>
        <time>2016-03-25T09:02:23Z</time>
      </trkpt>
      <trkpt lat="45.4902" lon="6.71327">
        <ele>2388.44</ele>
        <time>2016-03-25T09:02:29Z</time>
      </trkpt>
      <trkpt lat="45.49023" lon="6.71354">
        <ele>2395.21</ele>
        <time>2016-03-25T09:02:34Z</time>
      </trkpt>
      <trkpt lat="45.49028" lon="6.71382">
        <ele>2402.04</ele>
        <time>2016-03-25T09:02:39Z</time>
      </trkpt>
      <trkpt lat="45.49032" lon="6.71408">
        <ele>2409.09</ele>
        <time>2016-03-25T09:02:44Z</time>
      </trkpt>
      <trkpt lat="45.49037" lon="6.71436">
        <ele>2416.07</ele>
        <time>2016-03-25T09:02:49Z</time>
      </trkpt>
      <trkpt lat="45.49043" lon="6.71465">
        <ele>2414.93</ele>
        <time>2016-03-25T09:02:55Z</time>
      </trkpt>
      <trkpt lat="45.49049" lon="6.71494">
        <ele>2410.57</ele>
        <time>2016-03-25T09:03:00Z</time>
      </trkpt>
      <trkpt lat="45.49054" lon="6.71521">
        <ele>2407.78</ele>
        <time>2016-03-25T09:03:05Z</time>
      </trkpt>
      <trkpt lat="45.49058" lon="6.71548">
        <ele>2407.53</ele>
        <time>2016-03-25T09:03:10Z</time>
      </trkpt>
      <trkpt lat="45.49062" lon="6.71576">
        <ele>2406.54</ele>
        <time>2016-03-25T09:03:15Z</time>
      </trkpt>
      <trkpt lat="45.49067" lon="6.71606">
        <ele>2404.53</ele>
        <time>2016-03-25T09:03:20Z</time>
      </trkpt>
      <trkpt lat="45.4907" lon="6.71635">
        <ele>2407.45</ele>
        <time>2016-03-25T09:03:25Z</time>
      </trkpt>
      <trkpt lat="45.49074" lon="6.71663">
        <ele>2406.53</ele>
        <time>2016-03-25T09:03:30Z</time>
      </trkpt>
      <trkpt lat="45.49079" lon="6.7169">
        <ele>2408.49</ele>
        <time>2016-03-25T09:03:35Z</time>
      </trkpt>
      <trkpt lat="45.49084" lon="6.7172">
        <ele>2410.33</ele>
        <time>2016-03-25T09:03:40Z</time>
      </trkpt>
      <trkpt lat="45.49088" lon="6.7175">
        <ele>2411.53</ele>
        <time>2016-03-25T09:03:45Z</time>
      </trkpt>
      <trkpt lat="45.49093" lon="6.7178">
        <ele>2415.32</ele>
        <time>2016-03-25T09:03:50Z</time>
      </trkpt>
      <trkpt lat="45.49099" lon="6.71809">
        <ele>2418.48</ele>
        <time>2016-03-25T09:03:55Z</time>
      </trkpt>
      <trkpt lat="45.49105" lon="6.71837">
        <ele>2422.28</ele>
        <time>2016-03-25T09:04:00Z</time>
      </trkpt>
      <trkpt lat="45.49109" lon="6.71864">
        <ele>2428.28</ele>
        <time>2016-03-25T09:04:05Z</time>
      </trkpt>
      <trkpt lat="45.49114" lon="6.71891">
        <ele>2428.52</ele>
        <time>2016-03-25T09:04:09Z</time>
      </trkpt>
      <trkpt lat="45.49119" lon="6.7192">
        <ele>2436.09</ele>
        <time>2016-03-25T09:04:14Z</time>
      </trkpt>
      <trkpt lat="45.49123" lon="6.71947">
        <ele>2445.23</ele>
        <time>2016-03-25T09:04:19Z</time>
      </trkpt>
      <trkpt lat="45.49129" lon="6.71978">
        <ele>2454.41</ele>
        <time>2016-03-25T09:04:25Z</time>
      </trkpt>
      <trkpt lat="45.49131" lon="6.72007">
        <ele>2459.31</ele>
        <time>2016-03-25T09:04:30Z</time>
      </trkpt>
      <trkpt lat="45.49135" lon="6.72034">
        <ele>2464.11</ele>
        <time>2016-03-25T09:04:35Z</time>
      </trkpt>
      <trkpt lat="45.49141" lon="6.72062">
        <ele>2467.32</ele>
        <time>2016-03-25T09:04:40Z</time>
      </trkpt>
      <trkpt lat="45.49145" lon="6.7209">
        <ele>2468.53</ele>
        <time>2016-03-25T09:04:45Z</time>
      </trkpt>
      <trkpt lat="45.49151" lon="6.72117">
        <ele>2469.49</ele>
        <time>2016-03-25T09:04:50Z</time>
      </trkpt>
      <trkpt lat="45.49158" lon="6.72146">
        <ele>2472.32</ele>
        <time>2016-03-25T09:04:55Z</time>
      </trkpt>
      <trkpt lat="45.49166" lon="6.72172">
        <ele>2476.28</ele>
        <time>2016-03-25T09:05:00Z</time>
      </trkpt>
      <trkpt lat="45.49165" lon="6.72201">
        <ele>2475.69</ele>
        <time>2016-03-25T09:05:06Z</time>
      </trkpt>
      <trkpt lat="45.49172" lon="6.72225">
        <ele>2478.13</ele>
        <time>2016-03-25T09:05:10Z</time>
      </trkpt>
      <trkpt lat="45.49179" lon="6.72256">
        <ele>2480.53</ele>
        <time>2016-03-25T09:05:15Z</time>
      </trkpt>
      <trkpt lat="45.49181" lon="6.72283">
        <ele>2483.12</ele>
        <time>2016-03-25T09:05:20Z</time>
      </trkpt>
      <trkpt lat="45.49183" lon="6.72313">
        <ele>2482.54</ele>
        <time>2016-03-25T09:05:25Z</time>
      </trkpt>
      <trkpt lat="45.49188" lon="6.7234">
        <ele>2484.4</ele>
        <time>2016-03-25T09:05:30Z</time>
      </trkpt>
      <trkpt lat="45.49196" lon="6.72365">
        <ele>2485.32</ele>
        <time>2016-03-25T09:05:34Z</time>
      </trkpt>
      <trkpt lat="45.49201" lon="6.72391">
        <ele>2485.7</ele>
        <time>2016-03-25T09:05:38Z</time>
      </trkpt>
      <trkpt lat="45.49205" lon="6.72418">
        <ele>2485.49</ele>
        <time>2016-03-25T09:05:43Z</time>
      </trkpt>
      <trkpt lat="45.49211" lon="6.72449">
        <ele>2486.48</ele>
        <time>2016-03-25T09:05:48Z</time>
      </trkpt>
      <trkpt lat="45.49212" lon="6.72475">
        <ele>2494.85</ele>
        <time>2016-03-25T09:05:53Z</time>
      </trkpt>
      <trkpt lat="45.49216" lon="6.72502">
        <ele>2499.53</ele>
        <time>2016-03-25T09:05:58Z</time>
      </trkpt>
      <trkpt lat="45.49223" lon="6.72532">
        <ele>2497.74</ele>
        <time>2016-03-25T09:06:03Z</time>
      </trkpt>
      <trkpt lat="45.49226" lon="6.72561">
        <ele>2497.66</ele>
        <time>2016-03-25T09:06:08Z</time>
      </trkpt>
      <trkpt lat="45.4923" lon="6.72589">
        <ele>2499.33</ele>
        <time>2016-03-25T09:06:13Z</time>
      </trkpt>
      <trkpt lat="45.49235" lon="6.72615">
        <ele>2498.47</ele>
        <time>2016-03-25T09:06:17Z</time>
      </trkpt>
      <trkpt lat="45.49239" lon="6.72644">
        <ele>2502.49</ele>
        <time>2016-03-25T09:06:22Z</time>
      </trkpt>
      <trkpt lat="45.49244" lon="6.72672">
        <ele>2506.3</ele>
        <time>2016-03-25T09:06:27Z</time>
      </trkpt>
      <trkpt lat="45.49247" lon="6.727">
        <ele>2516</ele>
        <time>2016-03-25T09:06:32Z</time>
      </trkpt>
      <trkpt lat="45.49252" lon="6.72726">
        <ele>2521.24</ele>
        <time>2016-03-25T09:06:37Z</time>
      </trkpt>
      <trkpt lat="45.49257" lon="6.72752">
        <ele>2528.2</ele>
        <time>2016-03-25T09:06:42Z</time>
      </trkpt>
      <trkpt lat="45.49262" lon="6.72781">
        <ele>2533.28</ele>
        <time>2016-03-25T09:06:47Z</time>
      </trkpt>
      <trkpt lat="45.49267" lon="6.72811">
        <ele>2535.52</ele>
        <time>2016-03-25T09:06:52Z</time>
      </trkpt>
      <trkpt lat="45.4927" lon="6.72842">
        <ele>2538.29</ele>
        <time>2016-03-25T09:06:57Z</time>
      </trkpt>
      <trkpt lat="45.49275" lon="6.72871">
        <ele>2540.33</ele>
        <time>2016-03-25T09:07:02Z</time>
      </trkpt>
      <trkpt lat="45.4928" lon="6.72898">
        <ele>2545.28</ele>
        <time>2016-03-25T09:07:07Z</time>
      </trkpt>
      <trkpt lat="45.49286" lon="6.72926">
        <ele>2548.29</ele>
        <time>2016-03-25T09:07:12Z</time>
      </trkpt>
      <trkpt lat="45.4929" lon="6.72953">
        <ele>2553.32</ele>
        <time>2016-03-25T09:07:17Z</time>
      </trkpt>
      <trkpt lat="45.49296" lon="6.72982">
        <ele>2555.32</ele>
        <time>2016-03-25T09:07:22Z</time>
      </trkpt>
      <trkpt lat="45.49301" lon="6.73011">
        <ele>2556.52</ele>
        <time>2016-03-25T09:07:27Z</time>
      </trkpt>
      <trkpt lat="45.49305" lon="6.7304">
        <ele>2560.48</ele>
        <time>2016-03-25T09:07:32Z</time>
      </trkpt>
      <trkpt lat="45.49309" lon="6.73069">
        <ele>2564.28</ele>
        <time>2016-03-25T09:07:37Z</time>
      </trkpt>
      <trkpt lat="45.49315" lon="6.73097">
        <ele>2566.49</ele>
        <time>2016-03-25T09:07:42Z</time>
      </trkpt>
      <trkpt lat="45.49319" lon="6.73124">
        <ele>2575.83</ele>
        <time>2016-03-25T09:07:47Z</time>
      </trkpt>
      <trkpt lat="45.49324" lon="6.73152">
        <ele>2583.24</ele>
        <time>2016-03-25T09:07:52Z</time>
      </trkpt>
      <trkpt lat="45.49328" lon="6.73177">
        <ele>2593.22</ele>
        <time>2016-03-25T09:07:57Z</time>
      </trkpt>
      <trkpt lat="45.49333" lon="6.73205">
        <ele>2602.08</ele>
        <time>2016-03-25T09:08:02Z</time>
      </trkpt>
      <trkpt lat="45.49337" lon="6.73231">
        <ele>2613.82</ele>
        <time>2016-03-25T09:08:07Z</time>
      </trkpt>
      <trkpt lat="45.49342" lon="6.7326">
        <ele>2627.27</ele>
        <time>2016-03-25T09:08:13Z</time>
      </trkpt>
      <trkpt lat="45.49345" lon="6.73285">
        <ele>2638.76</ele>
        <time>2016-03-25T09:08:18Z</time>
      </trkpt>
      <trkpt lat="45.49351" lon="6.73314">
        <ele>2655.59</ele>
        <time>2016-03-25T09:08:24Z</time>
      </trkpt>
      <trkpt lat="45.49354" lon="6.73344">
        <ele>2670.22</ele>
        <time>2016-03-25T09:08:30Z</time>
      </trkpt>
      <trkpt lat="45.49359" lon="6.7337">
        <ele>2680.16</ele>
        <time>2016-03-25T09:08:35Z</time>
      </trkpt>
      <trkpt lat="45.49364" lon="6.73395">
        <ele>2693.18</ele>
        <time>2016-03-25T09:08:40Z</time>
      </trkpt>
      <trkpt lat="45.49371" lon="6.7342">
        <ele>2699.53</ele>
        <time>2016-03-25T09:08:49Z</time>
      </trkpt>
      <trkpt lat="45.49372" lon="6.73445">
        <ele>2705.04</ele>
        <time>2016-03-25T09:08:59Z</time>
      </trkpt>
      <trkpt lat="45.49375" lon="6.73472">
        <ele>2715.29</ele>
        <time>2016-03-25T09:11:03Z</time>
      </trkpt>
      <trkpt lat="45.49391" lon="6.73493">
        <ele>2712.78</ele>
        <time>2016-03-25T09:11:11Z</time>
      </trkpt>
      <trkpt lat="45.49411" lon="6.73497">
        <ele>2710.54</ele>
        <time>2016-03-25T09:11:16Z</time>
      </trkpt>
      <trkpt lat="45.4943" lon="6.73486">
        <ele>2708.73</ele>
        <time>2016-03-25T09:11:21Z</time>
      </trkpt>
      <trkpt lat="45.49445" lon="6.73469">
        <ele>2704.78</ele>
        <time>2016-03-25T09:11:26Z</time>
      </trkpt>
      <trkpt lat="45.49459" lon="6.73446">
        <ele>2702.74</ele>
        <time>2016-03-25T09:11:30Z</time>
      </trkpt>
      <trkpt lat="45.49477" lon="6.73428">
        <ele>2700.74</ele>
        <time>2016-03-25T09:11:33Z</time>
      </trkpt>
      <trkpt lat="45.49494" lon="6.73409">
        <ele>2699.57</ele>
        <time>2016-03-25T09:11:36Z</time>
      </trkpt>
      <trkpt lat="45.49515" lon="6.73391">
        <ele>2696.78</ele>
        <time>2016-03-25T09:11:39Z</time>
      </trkpt>
      <trkpt lat="45.49537" lon="6.73374">
        <ele>2694.74</ele>
        <time>2016-03-25T09:11:42Z</time>
      </trkpt>
      <trkpt lat="45.49561" lon="6.7336">
        <ele>2690.79</ele>
        <time>2016-03-25T09:11:45Z</time>
      </trkpt>
      <trkpt lat="45.4958" lon="6.7336">
        <ele>2687.02</ele>
        <time>2016-03-25T09:11:47Z</time>
      </trkpt>
      <trkpt lat="45.49608" lon="6.73354">
        <ele>2681.67</ele>
        <time>2016-03-25T09:11:50Z</time>
      </trkpt>
      <trkpt lat="45.49628" lon="6.73351">
        <ele>2675.3</ele>
        <time>2016-03-25T09:11:52Z</time>
      </trkpt>
      <trkpt lat="45.49646" lon="6.73339">
        <ele>2670.88</ele>
        <time>2016-03-25T09:11:54Z</time>
      </trkpt>
      <trkpt lat="45.49662" lon="6.73322">
        <ele>2667.19</ele>
        <time>2016-03-25T09:11:56Z</time>
      </trkpt>
      <trkpt lat="45.49669" lon="6.73296">
        <ele>2663.04</ele>
        <time>2016-03-25T09:11:58Z</time>
      </trkpt>
      <trkpt lat="45.49681" lon="6.73271">
        <ele>2657.11</ele>
        <time>2016-03-25T09:12:00Z</time>
      </trkpt>
      <trkpt lat="45.49689" lon="6.73239">
        <ele>2653.03</ele>
        <time>2016-03-25T09:12:02Z</time>
      </trkpt>
      <trkpt lat="45.49694" lon="6.73201">
        <ele>2644.25</ele>
        <time>2016-03-25T09:12:05Z</time>
      </trkpt>
      <trkpt lat="45.49699" lon="6.73175">
        <ele>2640.68</ele>
        <time>2016-03-25T09:12:07Z</time>
      </trkpt>
      <trkpt lat="45.49705" lon="6.73148">
        <ele>2634.39</ele>
        <time>2016-03-25T09:12:10Z</time>
      </trkpt>
      <trkpt lat="45.49708" lon="6.73116">
        <ele>2630.79</ele>
        <time>2016-03-25T09:12:13Z</time>
      </trkpt>
      <trkpt lat="45.49718" lon="6.73093">
        <ele>2628.58</ele>
        <time>2016-03-25T09:12:16Z</time>
      </trkpt>
      <trkpt lat="45.49731" lon="6.73071">
        <ele>2620.9</ele>
        <time>2016-03-25T09:12:43Z</time>
      </trkpt>
      <trkpt lat="45.49748" lon="6.73061">
        <ele>2617.14</ele>
        <time>2016-03-25T09:12:46Z</time>
      </trkpt>
      <trkpt lat="45.4976" lon="6.73038">
        <ele>2614.74</ele>
        <time>2016-03-25T09:12:49Z</time>
      </trkpt>
      <trkpt lat="45.49775" lon="6.73012">
        <ele>2605.34</ele>
        <time>2016-03-25T09:12:53Z</time>
      </trkpt>
      <trkpt lat="45.49795" lon="6.73003">
        <ele>2599.07</ele>
        <time>2016-03-25T09:12:56Z</time>
      </trkpt>
      <trkpt lat="45.49814" lon="6.72986">
        <ele>2596.79</ele>
        <time>2016-03-25T09:12:58Z</time>
      </trkpt>
      <trkpt lat="45.49845" lon="6.72975">
        <ele>2593.82</ele>
        <time>2016-03-25T09:13:00Z</time>
      </trkpt>
      <trkpt lat="45.49868" lon="6.72962">
        <ele>2591.94</ele>
        <time>2016-03-25T09:13:02Z</time>
      </trkpt>
      <trkpt lat="45.49891" lon="6.7295">
        <ele>2585.15</ele>
        <time>2016-03-25T09:13:04Z</time>
      </trkpt>
      <trkpt lat="45.49914" lon="6.72934">
        <ele>2575.44</ele>
        <time>2016-03-25T09:13:06Z</time>
      </trkpt>
      <trkpt lat="45.49937" lon="6.72923">
        <ele>2569.13</ele>
        <time>2016-03-25T09:13:08Z</time>
      </trkpt>
      <trkpt lat="45.49953" lon="6.72909">
        <ele>2565.83</ele>
        <time>2016-03-25T09:13:10Z</time>
      </trkpt>
      <trkpt lat="45.49967" lon="6.72889">
        <ele>2562.02</ele>
        <time>2016-03-25T09:13:12Z</time>
      </trkpt>
      <trkpt lat="45.49983" lon="6.72865">
        <ele>2555.87</ele>
        <time>2016-03-25T09:13:15Z</time>
      </trkpt>
      <trkpt lat="45.49996" lon="6.72843">
        <ele>2552.02</ele>
        <time>2016-03-25T09:13:17Z</time>
      </trkpt>
      <trkpt lat="45.5002" lon="6.72831">
        <ele>2544.11</ele>
        <time>2016-03-25T09:13:20Z</time>
      </trkpt>
      <trkpt lat="45.50042" lon="6.7283">
        <ele>2537.25</ele>
        <time>2016-03-25T09:13:21Z</time>
      </trkpt>
      <trkpt lat="45.50067" lon="6.72815">
        <ele>2527.6</ele>
        <time>2016-03-25T09:13:23Z</time>
      </trkpt>
      <trkpt lat="45.50096" lon="6.72804">
        <ele>2521.29</ele>
        <time>2016-03-25T09:13:25Z</time>
      </trkpt>
      <trkpt lat="45.50123" lon="6.72802">
        <ele>2515.28</ele>
        <time>2016-03-25T09:13:27Z</time>
      </trkpt>
      <trkpt lat="45.50148" lon="6.72803">
        <ele>2510.24</ele>
        <time>2016-03-25T09:13:29Z</time>
      </trkpt>
      <trkpt lat="45.5017" lon="6.72801">
        <ele>2506.84</ele>
        <time>2016-03-25T09:13:31Z</time>
      </trkpt>
      <trkpt lat="45.50187" lon="6.72794">
        <ele>2502.06</ele>
        <time>2016-03-25T09:13:33Z</time>
      </trkpt>
      <trkpt lat="45.50208" lon="6.7278">
        <ele>2497.02</ele>
        <time>2016-03-25T09:13:36Z</time>
      </trkpt>
      <trkpt lat="45.50233" lon="6.7277">
        <ele>2490.23</ele>
        <time>2016-03-25T09:13:39Z</time>
      </trkpt>
      <trkpt lat="45.50255" lon="6.7276">
        <ele>2481.56</ele>
        <time>2016-03-25T09:13:41Z</time>
      </trkpt>
      <trkpt lat="45.50273" lon="6.72745">
        <ele>2473.53</ele>
        <time>2016-03-25T09:13:43Z</time>
      </trkpt>
      <trkpt lat="45.50293" lon="6.72734">
        <ele>2467.29</ele>
        <time>2016-03-25T09:13:45Z</time>
      </trkpt>
      <trkpt lat="45.50311" lon="6.72715">
        <ele>2463.84</ele>
        <time>2016-03-25T09:13:47Z</time>
      </trkpt>
      <trkpt lat="45.50327" lon="6.72699">
        <ele>2460.98</ele>
        <time>2016-03-25T09:13:49Z</time>
      </trkpt>
      <trkpt lat="45.5034" lon="6.72673">
        <ele>2456.95</ele>
        <time>2016-03-25T09:13:52Z</time>
      </trkpt>
      <trkpt lat="45.50358" lon="6.72653">
        <ele>2452.07</ele>
        <time>2016-03-25T09:13:54Z</time>
      </trkpt>
      <trkpt lat="45.50379" lon="6.7264">
        <ele>2447.07</ele>
        <time>2016-03-25T09:13:56Z</time>
      </trkpt>
      <trkpt lat="45.50396" lon="6.72618">
        <ele>2444.79</ele>
        <time>2016-03-25T09:13:58Z</time>
      </trkpt>
      <trkpt lat="45.50415" lon="6.72611">
        <ele>2443.58</ele>
        <time>2016-03-25T09:14:00Z</time>
      </trkpt>
      <trkpt lat="45.50435" lon="6.72607">
        <ele>2439.85</ele>
        <time>2016-03-25T09:14:02Z</time>
      </trkpt>
      <trkpt lat="45.50456" lon="6.72601">
        <ele>2438.42</ele>
        <time>2016-03-25T09:14:04Z</time>
      </trkpt>
      <trkpt lat="45.50481" lon="6.72603">
        <ele>2436.13</ele>
        <time>2016-03-25T09:14:06Z</time>
      </trkpt>
      <trkpt lat="45.505" lon="6.72598">
        <ele>2432.83</ele>
        <time>2016-03-25T09:14:08Z</time>
      </trkpt>
      <trkpt lat="45.50515" lon="6.72578">
        <ele>2423.09</ele>
        <time>2016-03-25T09:14:12Z</time>
      </trkpt>
      <trkpt lat="45.50534" lon="6.72568">
        <ele>2416.07</ele>
        <time>2016-03-25T09:14:15Z</time>
      </trkpt>
      <trkpt lat="45.50556" lon="6.72567">
        <ele>2410.8</ele>
        <time>2016-03-25T09:14:18Z</time>
      </trkpt>
      <trkpt lat="45.5058" lon="6.72558">
        <ele>2405.9</ele>
        <time>2016-03-25T09:14:20Z</time>
      </trkpt>
      <trkpt lat="45.50602" lon="6.72557">
        <ele>2402.83</ele>
        <time>2016-03-25T09:14:22Z</time>
      </trkpt>
      <trkpt lat="45.50625" lon="6.72545">
        <ele>2395.66</ele>
        <time>2016-03-25T09:14:24Z</time>
      </trkpt>
      <trkpt lat="45.50644" lon="6.72536">
        <ele>2390.9</ele>
        <time>2016-03-25T09:14:26Z</time>
      </trkpt>
      <trkpt lat="45.50668" lon="6.72538">
        <ele>2382.23</ele>
        <time>2016-03-25T09:14:28Z</time>
      </trkpt>
      <trkpt lat="45.50691" lon="6.72529">
        <ele>2376.92</ele>
        <time>2016-03-25T09:14:30Z</time>
      </trkpt>
      <trkpt lat="45.50711" lon="6.72534">
        <ele>2373.19</ele>
        <time>2016-03-25T09:14:32Z</time>
      </trkpt>
      <trkpt lat="45.50734" lon="6.72538">
        <ele>2367.92</ele>
        <time>2016-03-25T09:14:34Z</time>
      </trkpt>
      <trkpt lat="45.50757" lon="6.72537">
        <ele>2363.07</ele>
        <time>2016-03-25T09:14:36Z</time>
      </trkpt>
      <trkpt lat="45.50784" lon="6.72542">
        <ele>2358.39</ele>
        <time>2016-03-25T09:14:38Z</time>
      </trkpt>
      <trkpt lat="45.50815" lon="6.72543">
        <ele>2349.57</ele>
        <time>2016-03-25T09:14:40Z</time>
      </trkpt>
      <trkpt lat="45.5084" lon="6.72545">
        <ele>2343.45</ele>
        <time>2016-03-25T09:14:42Z</time>
      </trkpt>
      <trkpt lat="45.50861" lon="6.72535">
        <ele>2335.69</ele>
        <time>2016-03-25T09:14:44Z</time>
      </trkpt>
      <trkpt lat="45.5088" lon="6.72533">
        <ele>2328.5</ele>
        <time>2016-03-25T09:14:46Z</time>
      </trkpt>
      <trkpt lat="45.50898" lon="6.72522">
        <ele>2323.09</ele>
        <time>2016-03-25T09:14:48Z</time>
      </trkpt>
      <trkpt lat="45.50925" lon="6.7252">
        <ele>2311.56</ele>
        <time>2016-03-25T09:14:51Z</time>
      </trkpt>
      <trkpt lat="45.50949" lon="6.72501">
        <ele>2297.74</ele>
        <time>2016-03-25T09:14:54Z</time>
      </trkpt>
      <trkpt lat="45.50964" lon="6.72485">
        <ele>2289.38</ele>
        <time>2016-03-25T09:14:56Z</time>
      </trkpt>
      <trkpt lat="45.5099" lon="6.72483">
        <ele>2283.19</ele>
        <time>2016-03-25T09:14:59Z</time>
      </trkpt>
      <trkpt lat="45.51009" lon="6.7248">
        <ele>2279.04</ele>
        <time>2016-03-25T09:15:01Z</time>
      </trkpt>
      <trkpt lat="45.51028" lon="6.72474">
        <ele>2275.99</ele>
        <time>2016-03-25T09:15:03Z</time>
      </trkpt>
      <trkpt lat="45.51046" lon="6.72485">
        <ele>2272.03</ele>
        <time>2016-03-25T09:15:05Z</time>
      </trkpt>
      <trkpt lat="45.51064" lon="6.72471">
        <ele>2259.01</ele>
        <time>2016-03-25T09:15:09Z</time>
      </trkpt>
      <trkpt lat="45.51063" lon="6.72497">
        <ele>2220.38</ele>
        <time>2016-03-25T09:15:49Z</time>
      </trkpt>
      <trkpt lat="45.51045" lon="6.72511">
        <ele>2204.49</ele>
        <time>2016-03-25T09:16:51Z</time>
      </trkpt>
      <trkpt lat="45.51028" lon="6.72522">
        <ele>2210.3</ele>
        <time>2016-03-25T09:17:02Z</time>
      </trkpt>
      <trkpt lat="45.51011" lon="6.72532">
        <ele>2212.53</ele>
        <time>2016-03-25T09:17:13Z</time>
      </trkpt>
      <trkpt lat="45.50994" lon="6.72542">
        <ele>2219.24</ele>
        <time>2016-03-25T09:17:21Z</time>
      </trkpt>
      <trkpt lat="45.50977" lon="6.72554">
        <ele>2224.33</ele>
        <time>2016-03-25T09:17:29Z</time>
      </trkpt>
      <trkpt lat="45.50959" lon="6.72565">
        <ele>2227.32</ele>
        <time>2016-03-25T09:17:38Z</time>
      </trkpt>
      <trkpt lat="45.50942" lon="6.72576">
        <ele>2230.31</ele>
        <time>2016-03-25T09:17:48Z</time>
      </trkpt>
      <trkpt lat="45.50924" lon="6.72584">
        <ele>2237.28</ele>
        <time>2016-03-25T09:17:59Z</time>
      </trkpt>
      <trkpt lat="45.50906" lon="6.72599">
        <ele>2241.68</ele>
        <time>2016-03-25T09:18:09Z</time>
      </trkpt>
      <trkpt lat="45.5089" lon="6.72614">
        <ele>2244.49</ele>
        <time>2016-03-25T09:18:19Z</time>
      </trkpt>
      <trkpt lat="45.50872" lon="6.72623">
        <ele>2247.67</ele>
        <time>2016-03-25T09:18:30Z</time>
      </trkpt>
      <trkpt lat="45.50855" lon="6.72632">
        <ele>2259.28</ele>
        <time>2016-03-25T09:18:41Z</time>
      </trkpt>
      <trkpt lat="45.50837" lon="6.72641">
        <ele>2266.48</ele>
        <time>2016-03-25T09:18:51Z</time>
      </trkpt>
      <trkpt lat="45.5082" lon="6.72648">
        <ele>2274.28</ele>
        <time>2016-03-25T09:19:00Z</time>
      </trkpt>
      <trkpt lat="45.50803" lon="6.72659">
        <ele>2279.52</ele>
        <time>2016-03-25T09:19:09Z</time>
      </trkpt>
      <trkpt lat="45.50785" lon="6.72667">
        <ele>2285.32</ele>
        <time>2016-03-25T09:19:18Z</time>
      </trkpt>
      <trkpt lat="45.50768" lon="6.72681">
        <ele>2294.28</ele>
        <time>2016-03-25T09:19:27Z</time>
      </trkpt>
      <trkpt lat="45.5075" lon="6.72692">
        <ele>2295.34</ele>
        <time>2016-03-25T09:19:37Z</time>
      </trkpt>
      <trkpt lat="45.50731" lon="6.72696">
        <ele>2300.49</ele>
        <time>2016-03-25T09:19:47Z</time>
      </trkpt>
      <trkpt lat="45.50712" lon="6.72706">
        <ele>2302.49</ele>
        <time>2016-03-25T09:19:56Z</time>
      </trkpt>
      <trkpt lat="45.50694" lon="6.72717">
        <ele>2304.53</ele>
        <time>2016-03-25T09:20:07Z</time>
      </trkpt>
      <trkpt lat="45.50678" lon="6.72729">
        <ele>2309.28</ele>
        <time>2016-03-25T09:20:15Z</time>
      </trkpt>
      <trkpt lat="45.50661" lon="6.72739">
        <ele>2313.28</ele>
        <time>2016-03-25T09:20:24Z</time>
      </trkpt>
      <trkpt lat="45.50644" lon="6.72755">
        <ele>2314.54</ele>
        <time>2016-03-25T09:20:34Z</time>
      </trkpt>
      <trkpt lat="45.50625" lon="6.72758">
        <ele>2324.27</ele>
        <time>2016-03-25T09:20:44Z</time>
      </trkpt>
      <trkpt lat="45.50609" lon="6.7277">
        <ele>2331.29</ele>
        <time>2016-03-25T09:20:54Z</time>
      </trkpt>
      <trkpt lat="45.50593" lon="6.72784">
        <ele>2338.29</ele>
        <time>2016-03-25T09:21:04Z</time>
      </trkpt>
      <trkpt lat="45.50575" lon="6.72796">
        <ele>2345.45</ele>
        <time>2016-03-25T09:21:14Z</time>
      </trkpt>
      <trkpt lat="45.50558" lon="6.72805">
        <ele>2354.27</ele>
        <time>2016-03-25T09:21:24Z</time>
      </trkpt>
      <trkpt lat="45.5054" lon="6.72816">
        <ele>2364.52</ele>
        <time>2016-03-25T09:21:35Z</time>
      </trkpt>
      <trkpt lat="45.50523" lon="6.7283">
        <ele>2367.72</ele>
        <time>2016-03-25T09:21:45Z</time>
      </trkpt>
      <trkpt lat="45.50505" lon="6.72835">
        <ele>2377.08</ele>
        <time>2016-03-25T09:21:56Z</time>
      </trkpt>
      <trkpt lat="45.50488" lon="6.7285">
        <ele>2385.49</ele>
        <time>2016-03-25T09:22:06Z</time>
      </trkpt>
      <trkpt lat="45.50471" lon="6.7286">
        <ele>2394.29</ele>
        <time>2016-03-25T09:22:17Z</time>
      </trkpt>
      <trkpt lat="45.50453" lon="6.72863">
        <ele>2410.11</ele>
        <time>2016-03-25T09:22:26Z</time>
      </trkpt>
      <trkpt lat="45.50435" lon="6.72876">
        <ele>2416.49</ele>
        <time>2016-03-25T09:22:37Z</time>
      </trkpt>
      <trkpt lat="45.50417" lon="6.72885">
        <ele>2425.08</ele>
        <time>2016-03-25T09:22:47Z</time>
      </trkpt>
      <trkpt lat="45.50399" lon="6.72892">
        <ele>2440.32</ele>
        <time>2016-03-25T09:22:56Z</time>
      </trkpt>
      <trkpt lat="45.50383" lon="6.72903">
        <ele>2445.29</ele>
        <time>2016-03-25T09:23:07Z</time>
      </trkpt>
      <trkpt lat="45.50366" lon="6.72914">
        <ele>2450.28</ele>
        <time>2016-03-25T09:23:17Z</time>
      </trkpt>
      <trkpt lat="45.50348" lon="6.72926">
        <ele>2454.48</ele>
        <time>2016-03-25T09:23:27Z</time>
      </trkpt>
      <trkpt lat="45.50331" lon="6.72934">
        <ele>2460.53</ele>
        <time>2016-03-25T09:23:36Z</time>
      </trkpt>
      <trkpt lat="45.50313" lon="6.72938">
        <ele>2470.05</ele>
        <time>2016-03-25T09:23:44Z</time>
      </trkpt>
      <trkpt lat="45.50294" lon="6.72946">
        <ele>2479.48</ele>
        <time>2016-03-25T09:23:54Z</time>
      </trkpt>
      <trkpt lat="45.50276" lon="6.72955">
        <ele>2486.48</ele>
        <time>2016-03-25T09:24:03Z</time>
      </trkpt>
      <trkpt lat="45.50258" lon="6.72968">
        <ele>2494.56</ele>
        <time>2016-03-25T09:24:12Z</time>
      </trkpt>
      <trkpt lat="45.5024" lon="6.72976">
        <ele>2498.53</ele>
        <time>2016-03-25T09:24:19Z</time>
      </trkpt>
      <trkpt lat="45.50223" lon="6.72985">
        <ele>2507.29</ele>
        <time>2016-03-25T09:24:30Z</time>
      </trkpt>
      <trkpt lat="45.50205" lon="6.72996">
        <ele>2510.32</ele>
        <time>2016-03-25T09:24:40Z</time>
      </trkpt>
      <trkpt lat="45.50187" lon="6.73005">
        <ele>2514.72</ele>
        <time>2016-03-25T09:24:50Z</time>
      </trkpt>
      <trkpt lat="45.50169" lon="6.73017">
        <ele>2520.33</ele>
        <time>2016-03-25T09:25:00Z</time>
      </trkpt>
      <trkpt lat="45.50152" lon="6.7303">
        <ele>2525.33</ele>
        <time>2016-03-25T09:25:09Z</time>
      </trkpt>
      <trkpt lat="45.50134" lon="6.73037">
        <ele>2533.11</ele>
        <time>2016-03-25T09:25:19Z</time>
      </trkpt>
      <trkpt lat="45.50115" lon="6.73045">
        <ele>2539.32</ele>
        <time>2016-03-25T09:25:30Z</time>
      </trkpt>
      <trkpt lat="45.50099" lon="6.73056">
        <ele>2542.69</ele>
        <time>2016-03-25T09:25:39Z</time>
      </trkpt>
      <trkpt lat="45.50081" lon="6.73067">
        <ele>2543.72</ele>
        <time>2016-03-25T09:25:48Z</time>
      </trkpt>
      <trkpt lat="45.50064" lon="6.73077">
        <ele>2548.36</ele>
        <time>2016-03-25T09:25:58Z</time>
      </trkpt>
      <trkpt lat="45.50047" lon="6.73087">
        <ele>2552.52</ele>
        <time>2016-03-25T09:26:09Z</time>
      </trkpt>
      <trkpt lat="45.50031" lon="6.73098">
        <ele>2559.49</ele>
        <time>2016-03-25T09:26:18Z</time>
      </trkpt>
      <trkpt lat="45.50013" lon="6.73107">
        <ele>2567.48</ele>
        <time>2016-03-25T09:26:29Z</time>
      </trkpt>
      <trkpt lat="45.49996" lon="6.73119">
        <ele>2576.48</ele>
        <time>2016-03-25T09:26:39Z</time>
      </trkpt>
      <trkpt lat="45.49979" lon="6.7313">
        <ele>2585.45</ele>
        <time>2016-03-25T09:26:47Z</time>
      </trkpt>
      <trkpt lat="45.49961" lon="6.73137">
        <ele>2593.33</ele>
        <time>2016-03-25T09:26:57Z</time>
      </trkpt>
      <trkpt lat="45.49946" lon="6.73152">
        <ele>2602.1</ele>
        <time>2016-03-25T09:27:06Z</time>
      </trkpt>
      <trkpt lat="45.49928" lon="6.73163">
        <ele>2606.68</ele>
        <time>2016-03-25T09:27:18Z</time>
      </trkpt>
      <trkpt lat="45.4991" lon="6.73171">
        <ele>2608.57</ele>
        <time>2016-03-25T09:27:29Z</time>
      </trkpt>
      <trkpt lat="45.49892" lon="6.73179">
        <ele>2613.49</ele>
        <time>2016-03-25T09:27:39Z</time>
      </trkpt>
      <trkpt lat="45.49875" lon="6.7319">
        <ele>2624.08</ele>
        <time>2016-03-25T09:27:48Z</time>
      </trkpt>
      <trkpt lat="45.49857" lon="6.732">
        <ele>2633.3</ele>
        <time>2016-03-25T09:27:57Z</time>
      </trkpt>
      <trkpt lat="45.49839" lon="6.73211">
        <ele>2645.07</ele>
        <time>2016-03-25T09:28:07Z</time>
      </trkpt>
      <trkpt lat="45.49821" lon="6.73223">
        <ele>2655.09</ele>
        <time>2016-03-25T09:28:17Z</time>
      </trkpt>
      <trkpt lat="45.49803" lon="6.73232">
        <ele>2665.44</ele>
        <time>2016-03-25T09:28:27Z</time>
      </trkpt>
      <trkpt lat="45.49785" lon="6.73239">
        <ele>2675.3</ele>
        <time>2016-03-25T09:28:36Z</time>
      </trkpt>
      <trkpt lat="45.49767" lon="6.7325">
        <ele>2676.53</ele>
        <time>2016-03-25T09:28:47Z</time>
      </trkpt>
      <trkpt lat="45.49749" lon="6.73259">
        <ele>2678.49</ele>
        <time>2016-03-25T09:28:56Z</time>
      </trkpt>
      <trkpt lat="45.49732" lon="6.73269">
        <ele>2680.52</ele>
        <time>2016-03-25T09:29:05Z</time>
      </trkpt>
      <trkpt lat="45.49715" lon="6.73279">
        <ele>2680.57</ele>
        <time>2016-03-25T09:29:14Z</time>
      </trkpt>
      <trkpt lat="45.49698" lon="6.73287">
        <ele>2683.49</ele>
        <time>2016-03-25T09:29:22Z</time>
      </trkpt>
      <trkpt lat="45.49681" lon="6.73297">
        <ele>2685.33</ele>
        <time>2016-03-25T09:29:30Z</time>
      </trkpt>
      <trkpt lat="45.49663" lon="6.73307">
        <ele>2688.49</ele>
        <time>2016-03-25T09:29:39Z</time>
      </trkpt>
      <trkpt lat="45.49646" lon="6.73317">
        <ele>2689.52</ele>
        <time>2016-03-25T09:29:48Z</time>
      </trkpt>
      <trkpt lat="45.49629" lon="6.73327">
        <ele>2690.53</ele>
        <time>2016-03-25T09:29:57Z</time>
      </trkpt>
      <trkpt lat="45.49612" lon="6.73337">
        <ele>2691.53</ele>
        <time>2016-03-25T09:30:06Z</time>
      </trkpt>
      <trkpt lat="45.49593" lon="6.73347">
        <ele>2693.49</ele>
        <time>2016-03-25T09:30:16Z</time>
      </trkpt>
      <trkpt lat="45.49576" lon="6.73359">
        <ele>2698.32</ele>
        <time>2016-03-25T09:30:26Z</time>
      </trkpt>
      <trkpt lat="45.49557" lon="6.73368">
        <ele>2702.49</ele>
        <time>2016-03-25T09:30:37Z</time>
      </trkpt>
      <trkpt lat="45.4954" lon="6.73378">
        <ele>2707.48</ele>
        <time>2016-03-25T09:30:46Z</time>
      </trkpt>
      <trkpt lat="45.49523" lon="6.73388">
        <ele>2712.32</ele>
        <time>2016-03-25T09:30:55Z</time>
      </trkpt>
      <trkpt lat="45.49505" lon="6.73397">
        <ele>2715.53</ele>
        <time>2016-03-25T09:31:05Z</time>
      </trkpt>
      <trkpt lat="45.49487" lon="6.73405">
        <ele>2722.29</ele>
        <time>2016-03-25T09:31:13Z</time>
      </trkpt>
      <trkpt lat="45.49469" lon="6.73415">
        <ele>2725.5</ele>
        <time>2016-03-25T09:31:23Z</time>
      </trkpt>
      <trkpt lat="45.4945" lon="6.73426">
        <ele>2730.33</ele>
        <time>2016-03-25T09:31:32Z</time>
      </trkpt>
      <trkpt lat="45.49432" lon="6.73437">
        <ele>2732.13</ele>
        <time>2016-03-25T09:31:41Z</time>
      </trkpt>
      <trkpt lat="45.49423" lon="6.7346">
        <ele>2723.33</ele>
        <time>2016-03-25T09:31:53Z</time>
      </trkpt>
      <trkpt lat="45.49442" lon="6.7346">
        <ele>2714.79</ele>
        <time>2016-03-25T09:33:37Z</time>
      </trkpt>
      <trkpt lat="45.49463" lon="6.73447">
        <ele>2708.83</ele>
        <time>2016-03-25T09:33:41Z</time>
      </trkpt>
      <trkpt lat="45.49479" lon="6.73427">
        <ele>2704.95</ele>
        <time>2016-03-25T09:33:44Z</time>
      </trkpt>
      <trkpt lat="45.49498" lon="6.73407">
        <ele>2701.97</ele>
        <time>2016-03-25T09:33:47Z</time>
      </trkpt>
      <trkpt lat="45.49519" lon="6.73393">
        <ele>2697.82</ele>
        <time>2016-03-25T09:33:50Z</time>
      </trkpt>
      <trkpt lat="45.49541" lon="6.73384">
        <ele>2693.02</ele>
        <time>2016-03-25T09:33:53Z</time>
      </trkpt>
      <trkpt lat="45.49565" lon="6.73385">
        <ele>2688.82</ele>
        <time>2016-03-25T09:33:56Z</time>
      </trkpt>
      <trkpt lat="45.49585" lon="6.73377">
        <ele>2683.83</ele>
        <time>2016-03-25T09:33:59Z</time>
      </trkpt>
      <trkpt lat="45.49609" lon="6.73366">
        <ele>2678.22</ele>
        <time>2016-03-25T09:34:02Z</time>
      </trkpt>
      <trkpt lat="45.49626" lon="6.73354">
        <ele>2674.84</ele>
        <time>2016-03-25T09:34:04Z</time>
      </trkpt>
      <trkpt lat="45.49642" lon="6.73339">
        <ele>2671.82</ele>
        <time>2016-03-25T09:34:06Z</time>
      </trkpt>
      <trkpt lat="45.4966" lon="6.73326">
        <ele>2670.42</ele>
        <time>2016-03-25T09:34:08Z</time>
      </trkpt>
      <trkpt lat="45.49669" lon="6.73303">
        <ele>2667.97</ele>
        <time>2016-03-25T09:34:10Z</time>
      </trkpt>
      <trkpt lat="45.49681" lon="6.73278">
        <ele>2664.03</ele>
        <time>2016-03-25T09:34:12Z</time>
      </trkpt>
      <trkpt lat="45.49687" lon="6.73251">
        <ele>2660.99</ele>
        <time>2016-03-25T09:34:14Z</time>
      </trkpt>
      <trkpt lat="45.49698" lon="6.73215">
        <ele>2655.83</ele>
        <time>2016-03-25T09:34:17Z</time>
      </trkpt>
      <trkpt lat="45.49703" lon="6.73189">
        <ele>2655.38</ele>
        <time>2016-03-25T09:34:19Z</time>
      </trkpt>
      <trkpt lat="45.49708" lon="6.73163">
        <ele>2652.97</ele>
        <time>2016-03-25T09:34:21Z</time>
      </trkpt>
      <trkpt lat="45.49711" lon="6.7313">
        <ele>2652.39</ele>
        <time>2016-03-25T09:34:23Z</time>
      </trkpt>
      <trkpt lat="45.49714" lon="6.73098">
        <ele>2634.75</ele>
        <time>2016-03-25T09:34:29Z</time>
      </trkpt>
      <trkpt lat="45.49722" lon="6.73075">
        <ele>2627.6</ele>
        <time>2016-03-25T09:34:45Z</time>
      </trkpt>
      <trkpt lat="45.4974" lon="6.73057">
        <ele>2621.03</ele>
        <time>2016-03-25T09:34:50Z</time>
      </trkpt>
      <trkpt lat="45.49762" lon="6.73041">
        <ele>2611.83</ele>
        <time>2016-03-25T09:34:55Z</time>
      </trkpt>
      <trkpt lat="45.49776" lon="6.73022">
        <ele>2609.77</ele>
        <time>2016-03-25T09:34:58Z</time>
      </trkpt>
      <trkpt lat="45.49797" lon="6.73006">
        <ele>2607.9</ele>
        <time>2016-03-25T09:35:01Z</time>
      </trkpt>
      <trkpt lat="45.49814" lon="6.72994">
        <ele>2598.44</ele>
        <time>2016-03-25T09:35:05Z</time>
      </trkpt>
      <trkpt lat="45.49831" lon="6.72981">
        <ele>2596.77</ele>
        <time>2016-03-25T09:35:07Z</time>
      </trkpt>
      <trkpt lat="45.49852" lon="6.72957">
        <ele>2589.17</ele>
        <time>2016-03-25T09:35:10Z</time>
      </trkpt>
      <trkpt lat="45.4987" lon="6.72941">
        <ele>2582.8</ele>
        <time>2016-03-25T09:35:12Z</time>
      </trkpt>
      <trkpt lat="45.49898" lon="6.72932">
        <ele>2575.05</ele>
        <time>2016-03-25T09:35:15Z</time>
      </trkpt>
      <trkpt lat="45.4992" lon="6.72918">
        <ele>2567.19</ele>
        <time>2016-03-25T09:35:17Z</time>
      </trkpt>
      <trkpt lat="45.4994" lon="6.72904">
        <ele>2558.92</ele>
        <time>2016-03-25T09:35:20Z</time>
      </trkpt>
      <trkpt lat="45.49958" lon="6.72897">
        <ele>2551.78</ele>
        <time>2016-03-25T09:35:27Z</time>
      </trkpt>
      <trkpt lat="45.49976" lon="6.72877">
        <ele>2542.38</ele>
        <time>2016-03-25T09:35:32Z</time>
      </trkpt>
      <trkpt lat="45.49996" lon="6.72858">
        <ele>2534.27</ele>
        <time>2016-03-25T09:35:35Z</time>
      </trkpt>
      <trkpt lat="45.50015" lon="6.72841">
        <ele>2531.8</ele>
        <time>2016-03-25T09:35:37Z</time>
      </trkpt>
      <trkpt lat="45.50031" lon="6.72823">
        <ele>2528.82</ele>
        <time>2016-03-25T09:35:39Z</time>
      </trkpt>
      <trkpt lat="45.50064" lon="6.72817">
        <ele>2524.22</ele>
        <time>2016-03-25T09:35:41Z</time>
      </trkpt>
      <trkpt lat="45.50093" lon="6.7281">
        <ele>2520.04</ele>
        <time>2016-03-25T09:35:43Z</time>
      </trkpt>
      <trkpt lat="45.50122" lon="6.72805">
        <ele>2514.27</ele>
        <time>2016-03-25T09:35:45Z</time>
      </trkpt>
      <trkpt lat="45.50142" lon="6.72804">
        <ele>2506.2</ele>
        <time>2016-03-25T09:35:47Z</time>
      </trkpt>
      <trkpt lat="45.50162" lon="6.72801">
        <ele>2500.28</ele>
        <time>2016-03-25T09:35:49Z</time>
      </trkpt>
      <trkpt lat="45.50179" lon="6.72793">
        <ele>2495.88</ele>
        <time>2016-03-25T09:35:51Z</time>
      </trkpt>
      <trkpt lat="45.50201" lon="6.72775">
        <ele>2489.04</ele>
        <time>2016-03-25T09:35:54Z</time>
      </trkpt>
      <trkpt lat="45.50226" lon="6.7276">
        <ele>2483</ele>
        <time>2016-03-25T09:35:57Z</time>
      </trkpt>
      <trkpt lat="45.50247" lon="6.72747">
        <ele>2479.03</ele>
        <time>2016-03-25T09:35:59Z</time>
      </trkpt>
      <trkpt lat="45.50274" lon="6.72734">
        <ele>2476.79</ele>
        <time>2016-03-25T09:36:01Z</time>
      </trkpt>
      <trkpt lat="45.50297" lon="6.72713">
        <ele>2466.84</ele>
        <time>2016-03-25T09:36:04Z</time>
      </trkpt>
      <trkpt lat="45.50315" lon="6.72693">
        <ele>2461.26</ele>
        <time>2016-03-25T09:36:06Z</time>
      </trkpt>
      <trkpt lat="45.50334" lon="6.72672">
        <ele>2456.4</ele>
        <time>2016-03-25T09:36:08Z</time>
      </trkpt>
      <trkpt lat="45.50353" lon="6.7266">
        <ele>2452.05</ele>
        <time>2016-03-25T09:36:10Z</time>
      </trkpt>
      <trkpt lat="45.50374" lon="6.72637">
        <ele>2446.06</ele>
        <time>2016-03-25T09:36:13Z</time>
      </trkpt>
      <trkpt lat="45.504" lon="6.72622">
        <ele>2435.79</ele>
        <time>2016-03-25T09:36:15Z</time>
      </trkpt>
      <trkpt lat="45.50419" lon="6.72617">
        <ele>2432.66</ele>
        <time>2016-03-25T09:36:17Z</time>
      </trkpt>
      <trkpt lat="45.50445" lon="6.72615">
        <ele>2429.98</ele>
        <time>2016-03-25T09:36:19Z</time>
      </trkpt>
      <trkpt lat="45.50468" lon="6.72613">
        <ele>2425.07</ele>
        <time>2016-03-25T09:36:21Z</time>
      </trkpt>
      <trkpt lat="45.50487" lon="6.72607">
        <ele>2420.07</ele>
        <time>2016-03-25T09:36:23Z</time>
      </trkpt>
      <trkpt lat="45.50502" lon="6.72581">
        <ele>2411.85</ele>
        <time>2016-03-25T09:36:27Z</time>
      </trkpt>
      <trkpt lat="45.50528" lon="6.72574">
        <ele>2401.46</ele>
        <time>2016-03-25T09:36:31Z</time>
      </trkpt>
      <trkpt lat="45.50546" lon="6.72563">
        <ele>2396.89</ele>
        <time>2016-03-25T09:36:33Z</time>
      </trkpt>
      <trkpt lat="45.50563" lon="6.72554">
        <ele>2396.69</ele>
        <time>2016-03-25T09:36:36Z</time>
      </trkpt>
      <trkpt lat="45.5059" lon="6.7255">
        <ele>2391.83</ele>
        <time>2016-03-25T09:36:39Z</time>
      </trkpt>
      <trkpt lat="45.5062" lon="6.72546">
        <ele>2390.26</ele>
        <time>2016-03-25T09:36:41Z</time>
      </trkpt>
      <trkpt lat="45.5064" lon="6.72552">
        <ele>2385.24</ele>
        <time>2016-03-25T09:36:43Z</time>
      </trkpt>
      <trkpt lat="45.50666" lon="6.72545">
        <ele>2380.08</ele>
        <time>2016-03-25T09:36:45Z</time>
      </trkpt>
      <trkpt lat="45.50693" lon="6.72541">
        <ele>2379.71</ele>
        <time>2016-03-25T09:36:47Z</time>
      </trkpt>
      <trkpt lat="45.50714" lon="6.72551">
        <ele>2376.98</ele>
        <time>2016-03-25T09:36:49Z</time>
      </trkpt>
      <trkpt lat="45.50734" lon="6.72559">
        <ele>2372.23</ele>
        <time>2016-03-25T09:36:51Z</time>
      </trkpt>
      <trkpt lat="45.50753" lon="6.72553">
        <ele>2370.07</ele>
        <time>2016-03-25T09:36:52Z</time>
      </trkpt>
      <trkpt lat="45.50771" lon="6.72553">
        <ele>2370.44</ele>
        <time>2016-03-25T09:36:53Z</time>
      </trkpt>
      <trkpt lat="45.50803" lon="6.72557">
        <ele>2364.45</ele>
        <time>2016-03-25T09:36:55Z</time>
      </trkpt>
      <trkpt lat="45.50832" lon="6.72554">
        <ele>2357.33</ele>
        <time>2016-03-25T09:36:57Z</time>
      </trkpt>
      <trkpt lat="45.50858" lon="6.72545">
        <ele>2352.08</ele>
        <time>2016-03-25T09:36:59Z</time>
      </trkpt>
      <trkpt lat="45.50881" lon="6.7254">
        <ele>2340.75</ele>
        <time>2016-03-25T09:37:02Z</time>
      </trkpt>
      <trkpt lat="45.50906" lon="6.7253">
        <ele>2323.92</ele>
        <time>2016-03-25T09:37:05Z</time>
      </trkpt>
      <trkpt lat="45.50922" lon="6.72519">
        <ele>2312.03</ele>
        <time>2016-03-25T09:37:07Z</time>
      </trkpt>
      <trkpt lat="45.50939" lon="6.72505">
        <ele>2303.39</ele>
        <time>2016-03-25T09:37:09Z</time>
      </trkpt>
      <trkpt lat="45.50957" lon="6.72494">
        <ele>2293.13</ele>
        <time>2016-03-25T09:37:11Z</time>
      </trkpt>
      <trkpt lat="45.50977" lon="6.72479">
        <ele>2286.31</ele>
        <time>2016-03-25T09:37:13Z</time>
      </trkpt>
      <trkpt lat="45.50999" lon="6.7247">
        <ele>2276.64</ele>
        <time>2016-03-25T09:37:16Z</time>
      </trkpt>
      <trkpt lat="45.51024" lon="6.72469">
        <ele>2272.06</ele>
        <time>2016-03-25T09:37:18Z</time>
      </trkpt>
      <trkpt lat="45.51043" lon="6.72461">
        <ele>2267.23</ele>
        <time>2016-03-25T09:37:20Z</time>
      </trkpt>
      <trkpt lat="45.51063" lon="6.72464">
        <ele>2260.01</ele>
        <time>2016-03-25T09:37:23Z</time>
      </trkpt>
      <trkpt lat="45.51068" lon="6.72491">
        <ele>2238.53</ele>
        <time>2016-03-25T09:37:49Z</time>
      </trkpt>
      <trkpt lat="45.51076" lon="6.7252">
        <ele>2226.99</ele>
        <time>2016-03-25T09:37:58Z</time>
      </trkpt>
      <trkpt lat="45.51086" lon="6.72545">
        <ele>2224.63</ele>
        <time>2016-03-25T09:38:00Z</time>
      </trkpt>
      <trkpt lat="45.51098" lon="6.72564">
        <ele>2220.05</ele>
        <time>2016-03-25T09:38:02Z</time>
      </trkpt>
      <trkpt lat="45.51111" lon="6.7259">
        <ele>2219.54</ele>
        <time>2016-03-25T09:38:05Z</time>
      </trkpt>
      <trkpt lat="45.51124" lon="6.72614">
        <ele>2218.54</ele>
        <time>2016-03-25T09:38:08Z</time>
      </trkpt>
      <trkpt lat="45.51136" lon="6.72634">
        <ele>2216.77</ele>
        <time>2016-03-25T09:38:11Z</time>
      </trkpt>
      <trkpt lat="45.51157" lon="6.72638">
        <ele>2204.98</ele>
        <time>2016-03-25T09:38:15Z</time>
      </trkpt>
      <trkpt lat="45.51167" lon="6.72661">
        <ele>2200.85</ele>
        <time>2016-03-25T09:38:18Z</time>
      </trkpt>
      <trkpt lat="45.5118" lon="6.72689">
        <ele>2196.86</ele>
        <time>2016-03-25T09:38:20Z</time>
      </trkpt>
      <trkpt lat="45.5119" lon="6.72712">
        <ele>2191.58</ele>
        <time>2016-03-25T09:38:22Z</time>
      </trkpt>
      <trkpt lat="45.51191" lon="6.72749">
        <ele>2185.8</ele>
        <time>2016-03-25T09:38:25Z</time>
      </trkpt>
      <trkpt lat="45.51186" lon="6.72779">
        <ele>2183.78</ele>
        <time>2016-03-25T09:38:27Z</time>
      </trkpt>
      <trkpt lat="45.5119" lon="6.72808">
        <ele>2177.46</ele>
        <time>2016-03-25T09:38:29Z</time>
      </trkpt>
      <trkpt lat="45.51194" lon="6.72832">
        <ele>2173.21</ele>
        <time>2016-03-25T09:38:31Z</time>
      </trkpt>
      <trkpt lat="45.51212" lon="6.72857">
        <ele>2168.24</ele>
        <time>2016-03-25T09:38:33Z</time>
      </trkpt>
      <trkpt lat="45.51227" lon="6.72873">
        <ele>2164.04</ele>
        <time>2016-03-25T09:38:35Z</time>
      </trkpt>
      <trkpt lat="45.51246" lon="6.72876">
        <ele>2156.35</ele>
        <time>2016-03-25T09:38:37Z</time>
      </trkpt>
      <trkpt lat="45.51258" lon="6.72901">
        <ele>2152.04</ele>
        <time>2016-03-25T09:38:39Z</time>
      </trkpt>
      <trkpt lat="45.51281" lon="6.72904">
        <ele>2144.51</ele>
        <time>2016-03-25T09:38:41Z</time>
      </trkpt>
      <trkpt lat="45.51307" lon="6.72894">
        <ele>2137.97</ele>
        <time>2016-03-25T09:38:43Z</time>
      </trkpt>
      <trkpt lat="45.51326" lon="6.72898">
        <ele>2134.83</ele>
        <time>2016-03-25T09:38:45Z</time>
      </trkpt>
      <trkpt lat="45.51349" lon="6.72903">
        <ele>2130.06</ele>
        <time>2016-03-25T09:38:47Z</time>
      </trkpt>
      <trkpt lat="45.5137" lon="6.72916">
        <ele>2125.23</ele>
        <time>2016-03-25T09:38:49Z</time>
      </trkpt>
      <trkpt lat="45.5139" lon="6.72935">
        <ele>2121.84</ele>
        <time>2016-03-25T09:38:51Z</time>
      </trkpt>
      <trkpt lat="45.51412" lon="6.72961">
        <ele>2118.82</ele>
        <time>2016-03-25T09:38:53Z</time>
      </trkpt>
      <trkpt lat="45.51441" lon="6.72978">
        <ele>2108.97</ele>
        <time>2016-03-25T09:38:56Z</time>
      </trkpt>
      <trkpt lat="45.51456" lon="6.72995">
        <ele>2105.99</ele>
        <time>2016-03-25T09:38:58Z</time>
      </trkpt>
      <trkpt lat="45.51471" lon="6.73023">
        <ele>2100.99</ele>
        <time>2016-03-25T09:39:01Z</time>
      </trkpt>
      <trkpt lat="45.51491" lon="6.73045">
        <ele>2095.06</ele>
        <time>2016-03-25T09:39:04Z</time>
      </trkpt>
      <trkpt lat="45.51511" lon="6.73053">
        <ele>2088.65</ele>
        <time>2016-03-25T09:39:07Z</time>
      </trkpt>
      <trkpt lat="45.51532" lon="6.73063">
        <ele>2084.79</ele>
        <time>2016-03-25T09:39:10Z</time>
      </trkpt>
      <trkpt lat="45.51554" lon="6.7307">
        <ele>2081.78</ele>
        <time>2016-03-25T09:39:13Z</time>
      </trkpt>
      <trkpt lat="45.51575" lon="6.73078">
        <ele>2079.62</ele>
        <time>2016-03-25T09:39:17Z</time>
      </trkpt>
      <trkpt lat="45.5159" lon="6.731">
        <ele>2076.94</ele>
        <time>2016-03-25T09:39:20Z</time>
      </trkpt>
      <trkpt lat="45.5159" lon="6.73127">
        <ele>2071.77</ele>
        <time>2016-03-25T09:39:36Z</time>
      </trkpt>
      <trkpt lat="45.51585" lon="6.73152">
        <ele>2058.86</ele>
        <time>2016-03-25T09:39:45Z</time>
      </trkpt>
      <trkpt lat="45.51574" lon="6.73173">
        <ele>2056.54</ele>
        <time>2016-03-25T09:39:50Z</time>
      </trkpt>
      <trkpt lat="45.51558" lon="6.73192">
        <ele>2048.63</ele>
        <time>2016-03-25T09:39:58Z</time>
      </trkpt>
      <trkpt lat="45.5154" lon="6.73205">
        <ele>2043.78</ele>
        <time>2016-03-25T09:40:03Z</time>
      </trkpt>
      <trkpt lat="45.51526" lon="6.73224">
        <ele>2039.59</ele>
        <time>2016-03-25T09:40:07Z</time>
      </trkpt>
      <trkpt lat="45.51521" lon="6.73252">
        <ele>2035.82</ele>
        <time>2016-03-25T09:40:10Z</time>
      </trkpt>
      <trkpt lat="45.5151" lon="6.73282">
        <ele>2028.75</ele>
        <time>2016-03-25T09:40:15Z</time>
      </trkpt>
      <trkpt lat="45.515" lon="6.7331">
        <ele>2017.83</ele>
        <time>2016-03-25T09:40:21Z</time>
      </trkpt>
      <trkpt lat="45.515" lon="6.73348">
        <ele>2004.02</ele>
        <time>2016-03-25T09:40:28Z</time>
      </trkpt>
      <trkpt lat="45.51511" lon="6.73374">
        <ele>1992.86</ele>
        <time>2016-03-25T09:40:34Z</time>
      </trkpt>
      <trkpt lat="45.51507" lon="6.73402">
        <ele>1984.22</ele>
        <time>2016-03-25T09:40:39Z</time>
      </trkpt>
      <trkpt lat="45.51524" lon="6.73397">
        <ele>1972.63</ele>
        <time>2016-03-25T09:40:45Z</time>
      </trkpt>
      <trkpt lat="45.51538" lon="6.73425">
        <ele>1964.69</ele>
        <time>2016-03-25T09:40:53Z</time>
      </trkpt>
      <trkpt lat="45.51534" lon="6.73451">
        <ele>1959.79</ele>
        <time>2016-03-25T09:40:57Z</time>
      </trkpt>
      <trkpt lat="45.51533" lon="6.73478">
        <ele>1954.03</ele>
        <time>2016-03-25T09:41:00Z</time>
      </trkpt>
      <trkpt lat="45.5155" lon="6.735">
        <ele>1948.83</ele>
        <time>2016-03-25T09:41:04Z</time>
      </trkpt>
      <trkpt lat="45.51553" lon="6.73535">
        <ele>1941.11</ele>
        <time>2016-03-25T09:41:07Z</time>
      </trkpt>
      <trkpt lat="45.51561" lon="6.73563">
        <ele>1935.82</ele>
        <time>2016-03-25T09:41:11Z</time>
      </trkpt>
      <trkpt lat="45.51576" lon="6.73581">
        <ele>1932.56</ele>
        <time>2016-03-25T09:41:14Z</time>
      </trkpt>
      <trkpt lat="45.51589" lon="6.73603">
        <ele>1926.07</ele>
        <time>2016-03-25T09:41:17Z</time>
      </trkpt>
      <trkpt lat="45.51603" lon="6.73622">
        <ele>1918.71</ele>
        <time>2016-03-25T09:41:21Z</time>
      </trkpt>
      <trkpt lat="45.51621" lon="6.73633">
        <ele>1915.66</ele>
        <time>2016-03-25T09:41:23Z</time>
      </trkpt>
      <trkpt lat="45.51638" lon="6.73646">
        <ele>1913.96</ele>
        <time>2016-03-25T09:41:24Z</time>
      </trkpt>
      <trkpt lat="45.51665" lon="6.73665">
        <ele>1910.03</ele>
        <time>2016-03-25T09:41:26Z</time>
      </trkpt>
      <trkpt lat="45.51689" lon="6.7368">
        <ele>1906.83</ele>
        <time>2016-03-25T09:41:28Z</time>
      </trkpt>
      <trkpt lat="45.51711" lon="6.73703">
        <ele>1902.06</ele>
        <time>2016-03-25T09:41:30Z</time>
      </trkpt>
      <trkpt lat="45.51732" lon="6.73718">
        <ele>1891.9</ele>
        <time>2016-03-25T09:41:35Z</time>
      </trkpt>
      <trkpt lat="45.51751" lon="6.73728">
        <ele>1883.07</ele>
        <time>2016-03-25T09:41:39Z</time>
      </trkpt>
      <trkpt lat="45.51772" lon="6.73731">
        <ele>1872.03</ele>
        <time>2016-03-25T09:41:45Z</time>
      </trkpt>
      <trkpt lat="45.5179" lon="6.73733">
        <ele>1851.99</ele>
        <time>2016-03-25T09:41:57Z</time>
      </trkpt>
      <trkpt lat="45.5181" lon="6.73727">
        <ele>1846.38</ele>
        <time>2016-03-25T09:42:03Z</time>
      </trkpt>
      <trkpt lat="45.51828" lon="6.73715">
        <ele>1840.77</ele>
        <time>2016-03-25T09:42:11Z</time>
      </trkpt>
      <trkpt lat="45.51847" lon="6.73708">
        <ele>1836.58</ele>
        <time>2016-03-25T09:42:18Z</time>
      </trkpt>
      <trkpt lat="45.51866" lon="6.73715">
        <ele>1835.49</ele>
        <time>2016-03-25T09:42:25Z</time>
      </trkpt>
      <trkpt lat="45.51888" lon="6.73721">
        <ele>1832.77</ele>
        <time>2016-03-25T09:42:31Z</time>
      </trkpt>
      <trkpt lat="45.51908" lon="6.73723">
        <ele>1829.77</ele>
        <time>2016-03-25T09:42:35Z</time>
      </trkpt>
      <trkpt lat="45.51931" lon="6.73726">
        <ele>1825.6</ele>
        <time>2016-03-25T09:42:39Z</time>
      </trkpt>
      <trkpt lat="45.51949" lon="6.73733">
        <ele>1822.94</ele>
        <time>2016-03-25T09:42:43Z</time>
      </trkpt>
      <trkpt lat="45.51968" lon="6.73737">
        <ele>1818.82</ele>
        <time>2016-03-25T09:42:46Z</time>
      </trkpt>
      <trkpt lat="45.51991" lon="6.73735">
        <ele>1816.74</ele>
        <time>2016-03-25T09:42:49Z</time>
      </trkpt>
      <trkpt lat="45.52015" lon="6.73739">
        <ele>1814.39</ele>
        <time>2016-03-25T09:42:52Z</time>
      </trkpt>
      <trkpt lat="45.52036" lon="6.73725">
        <ele>1812.13</ele>
        <time>2016-03-25T09:42:55Z</time>
      </trkpt>
      <trkpt lat="45.52053" lon="6.73704">
        <ele>1809.78</ele>
        <time>2016-03-25T09:42:58Z</time>
      </trkpt>
      <trkpt lat="45.52078" lon="6.73694">
        <ele>1806.78</ele>
        <time>2016-03-25T09:43:01Z</time>
      </trkpt>
      <trkpt lat="45.52099" lon="6.73699">
        <ele>1804.58</ele>
        <time>2016-03-25T09:43:04Z</time>
      </trkpt>
      <trkpt lat="45.52119" lon="6.73715">
        <ele>1804.53</ele>
        <time>2016-03-25T09:43:07Z</time>
      </trkpt>
      <trkpt lat="45.52131" lon="6.73738">
        <ele>1803.57</ele>
        <time>2016-03-25T09:43:09Z</time>
      </trkpt>
      <trkpt lat="45.52141" lon="6.73762">
        <ele>1802.57</ele>
        <time>2016-03-25T09:43:11Z</time>
      </trkpt>
      <trkpt lat="45.5216" lon="6.73789">
        <ele>1801.54</ele>
        <time>2016-03-25T09:43:14Z</time>
      </trkpt>
      <trkpt lat="45.52178" lon="6.73813">
        <ele>1798.97</ele>
        <time>2016-03-25T09:43:17Z</time>
      </trkpt>
      <trkpt lat="45.52197" lon="6.73841">
        <ele>1803.08</ele>
        <time>2016-03-25T09:43:20Z</time>
      </trkpt>
      <trkpt lat="45.52215" lon="6.73851">
        <ele>1799.81</ele>
        <time>2016-03-25T09:43:25Z</time>
      </trkpt>
      <trkpt lat="45.52232" lon="6.73842">
        <ele>1785.37</ele>
        <time>2016-03-25T09:44:05Z</time>
      </trkpt>
      <trkpt lat="45.52242" lon="6.73821">
        <ele>1786.49</ele>
        <time>2016-03-25T09:44:21Z</time>
      </trkpt>
      <trkpt lat="45.52246" lon="6.73795">
        <ele>1792.28</ele>
        <time>2016-03-25T09:44:33Z</time>
      </trkpt>
      <trkpt lat="45.52252" lon="6.7377">
        <ele>1799.49</ele>
        <time>2016-03-25T09:44:42Z</time>
      </trkpt>
      <trkpt lat="45.52258" lon="6.73745">
        <ele>1805.72</ele>
        <time>2016-03-25T09:44:52Z</time>
      </trkpt>
      <trkpt lat="45.52265" lon="6.73718">
        <ele>1812.48</ele>
        <time>2016-03-25T09:45:03Z</time>
      </trkpt>
      <trkpt lat="45.52268" lon="6.73692">
        <ele>1823.48</ele>
        <time>2016-03-25T09:45:14Z</time>
      </trkpt>
      <trkpt lat="45.52275" lon="6.73665">
        <ele>1824.53</ele>
        <time>2016-03-25T09:45:24Z</time>
      </trkpt>
      <trkpt lat="45.52281" lon="6.73641">
        <ele>1831.28</ele>
        <time>2016-03-25T09:45:34Z</time>
      </trkpt>
      <trkpt lat="45.52287" lon="6.73615">
        <ele>1836.33</ele>
        <time>2016-03-25T09:45:44Z</time>
      </trkpt>
      <trkpt lat="45.52285" lon="6.73589">
        <ele>1851.09</ele>
        <time>2016-03-25T09:45:56Z</time>
      </trkpt>
      <trkpt lat="45.52287" lon="6.73563">
        <ele>1866.12</ele>
        <time>2016-03-25T09:46:08Z</time>
      </trkpt>
      <trkpt lat="45.52291" lon="6.73537">
        <ele>1879.48</ele>
        <time>2016-03-25T09:46:20Z</time>
      </trkpt>
      <trkpt lat="45.52298" lon="6.73512">
        <ele>1891.32</ele>
        <time>2016-03-25T09:46:32Z</time>
      </trkpt>
      <trkpt lat="45.52303" lon="6.73486">
        <ele>1895.48</ele>
        <time>2016-03-25T09:46:43Z</time>
      </trkpt>
      <trkpt lat="45.52312" lon="6.73461">
        <ele>1900.33</ele>
        <time>2016-03-25T09:46:53Z</time>
      </trkpt>
      <trkpt lat="45.5232" lon="6.73436">
        <ele>1905.33</ele>
        <time>2016-03-25T09:47:04Z</time>
      </trkpt>
      <trkpt lat="45.52323" lon="6.73408">
        <ele>1913.33</ele>
        <time>2016-03-25T09:47:17Z</time>
      </trkpt>
      <trkpt lat="45.52331" lon="6.73383">
        <ele>1924.48</ele>
        <time>2016-03-25T09:47:27Z</time>
      </trkpt>
      <trkpt lat="45.52333" lon="6.73357">
        <ele>1937.09</ele>
        <time>2016-03-25T09:47:39Z</time>
      </trkpt>
      <trkpt lat="45.52339" lon="6.7333">
        <ele>1949.49</ele>
        <time>2016-03-25T09:47:51Z</time>
      </trkpt>
      <trkpt lat="45.52345" lon="6.73305">
        <ele>1958.52</ele>
        <time>2016-03-25T09:48:02Z</time>
      </trkpt>
      <trkpt lat="45.52347" lon="6.73278">
        <ele>1968.09</ele>
        <time>2016-03-25T09:48:13Z</time>
      </trkpt>
      <trkpt lat="45.5235" lon="6.73251">
        <ele>1978.13</ele>
        <time>2016-03-25T09:48:24Z</time>
      </trkpt>
      <trkpt lat="45.52355" lon="6.73224">
        <ele>1988.38</ele>
        <time>2016-03-25T09:48:36Z</time>
      </trkpt>
      <trkpt lat="45.52361" lon="6.73198">
        <ele>2002.25</ele>
        <time>2016-03-25T09:48:48Z</time>
      </trkpt>
      <trkpt lat="45.52367" lon="6.73172">
        <ele>2010.29</ele>
        <time>2016-03-25T09:49:00Z</time>
      </trkpt>
      <trkpt lat="45.52372" lon="6.73145">
        <ele>2015.68</ele>
        <time>2016-03-25T09:49:11Z</time>
      </trkpt>
      <trkpt lat="45.52378" lon="6.73121">
        <ele>2021.25</ele>
        <time>2016-03-25T09:49:20Z</time>
      </trkpt>
      <trkpt lat="45.52382" lon="6.73096">
        <ele>2032.28</ele>
        <time>2016-03-25T09:49:31Z</time>
      </trkpt>
      <trkpt lat="45.52387" lon="6.7307">
        <ele>2039.29</ele>
        <time>2016-03-25T09:49:41Z</time>
      </trkpt>
      <trkpt lat="45.52392" lon="6.73044">
        <ele>2048.24</ele>
        <time>2016-03-25T09:49:52Z</time>
      </trkpt>
      <trkpt lat="45.52397" lon="6.73018">
        <ele>2055.24</ele>
        <time>2016-03-25T09:50:03Z</time>
      </trkpt>
      <trkpt lat="45.52402" lon="6.7299">
        <ele>2060.53</ele>
        <time>2016-03-25T09:50:14Z</time>
      </trkpt>
      <trkpt lat="45.52409" lon="6.72965">
        <ele>2064.32</ele>
        <time>2016-03-25T09:50:24Z</time>
      </trkpt>
      <trkpt lat="45.52412" lon="6.72938">
        <ele>2066.81</ele>
        <time>2016-03-25T09:50:39Z</time>
      </trkpt>
      <trkpt lat="45.52394" lon="6.72942">
        <ele>2067.53</ele>
        <time>2016-03-25T09:50:50Z</time>
      </trkpt>
      <trkpt lat="45.52377" lon="6.72952">
        <ele>2068.73</ele>
        <time>2016-03-25T09:50:58Z</time>
      </trkpt>
      <trkpt lat="45.52365" lon="6.72977">
        <ele>2066.53</ele>
        <time>2016-03-25T09:51:14Z</time>
      </trkpt>
      <trkpt lat="45.52352" lon="6.73003">
        <ele>2064.96</ele>
        <time>2016-03-25T09:51:18Z</time>
      </trkpt>
      <trkpt lat="45.52332" lon="6.73027">
        <ele>2067.32</ele>
        <time>2016-03-25T09:51:21Z</time>
      </trkpt>
      <trkpt lat="45.52314" lon="6.73038">
        <ele>2065.32</ele>
        <time>2016-03-25T09:51:28Z</time>
      </trkpt>
      <trkpt lat="45.52303" lon="6.73016">
        <ele>2058.32</ele>
        <time>2016-03-25T09:53:12Z</time>
      </trkpt>
      <trkpt lat="45.52289" lon="6.72997">
        <ele>2057.38</ele>
        <time>2016-03-25T09:53:21Z</time>
      </trkpt>
      <trkpt lat="45.52275" lon="6.72976">
        <ele>2062.28</ele>
        <time>2016-03-25T09:53:33Z</time>
      </trkpt>
      <trkpt lat="45.52265" lon="6.72954">
        <ele>2070.23</ele>
        <time>2016-03-25T09:53:41Z</time>
      </trkpt>
      <trkpt lat="45.52255" lon="6.72932">
        <ele>2075.25</ele>
        <time>2016-03-25T09:53:53Z</time>
      </trkpt>
      <trkpt lat="45.52243" lon="6.72907">
        <ele>2077.53</ele>
        <time>2016-03-25T09:54:05Z</time>
      </trkpt>
      <trkpt lat="45.52231" lon="6.72885">
        <ele>2080.53</ele>
        <time>2016-03-25T09:54:17Z</time>
      </trkpt>
      <trkpt lat="45.52223" lon="6.72861">
        <ele>2084.5</ele>
        <time>2016-03-25T09:54:32Z</time>
      </trkpt>
      <trkpt lat="45.52213" lon="6.72837">
        <ele>2084.5</ele>
        <time>2016-03-25T09:54:45Z</time>
      </trkpt>
      <trkpt lat="45.52201" lon="6.72817">
        <ele>2089.47</ele>
        <time>2016-03-25T09:54:54Z</time>
      </trkpt>
      <trkpt lat="45.52188" lon="6.72797">
        <ele>2092.12</ele>
        <time>2016-03-25T09:55:03Z</time>
      </trkpt>
      <trkpt lat="45.52176" lon="6.72774">
        <ele>2094.32</ele>
        <time>2016-03-25T09:55:10Z</time>
      </trkpt>
      <trkpt lat="45.52164" lon="6.72749">
        <ele>2097.52</ele>
        <time>2016-03-25T09:55:22Z</time>
      </trkpt>
      <trkpt lat="45.52152" lon="6.72724">
        <ele>2101.29</ele>
        <time>2016-03-25T09:55:33Z</time>
      </trkpt>
      <trkpt lat="45.52146" lon="6.727">
        <ele>2103.33</ele>
        <time>2016-03-25T09:55:48Z</time>
      </trkpt>
      <trkpt lat="45.52136" lon="6.72675">
        <ele>2110.26</ele>
        <time>2016-03-25T09:56:01Z</time>
      </trkpt>
      <trkpt lat="45.52123" lon="6.72655">
        <ele>2121.04</ele>
        <time>2016-03-25T09:56:10Z</time>
      </trkpt>
      <trkpt lat="45.52113" lon="6.72633">
        <ele>2136.2</ele>
        <time>2016-03-25T09:56:23Z</time>
      </trkpt>
      <trkpt lat="45.52101" lon="6.72611">
        <ele>2144.12</ele>
        <time>2016-03-25T09:56:33Z</time>
      </trkpt>
      <trkpt lat="45.5209" lon="6.72589">
        <ele>2152.31</ele>
        <time>2016-03-25T09:56:44Z</time>
      </trkpt>
      <trkpt lat="45.52078" lon="6.72567">
        <ele>2171.27</ele>
        <time>2016-03-25T09:56:56Z</time>
      </trkpt>
      <trkpt lat="45.52068" lon="6.72544">
        <ele>2183.09</ele>
        <time>2016-03-25T09:57:10Z</time>
      </trkpt>
      <trkpt lat="45.52056" lon="6.72522">
        <ele>2191.27</ele>
        <time>2016-03-25T09:57:21Z</time>
      </trkpt>
      <trkpt lat="45.52044" lon="6.72499">
        <ele>2202.48</ele>
        <time>2016-03-25T09:57:32Z</time>
      </trkpt>
      <trkpt lat="45.52033" lon="6.72476">
        <ele>2209.48</ele>
        <time>2016-03-25T09:57:43Z</time>
      </trkpt>
      <trkpt lat="45.52021" lon="6.72453">
        <ele>2216.28</ele>
        <time>2016-03-25T09:57:53Z</time>
      </trkpt>
      <trkpt lat="45.5201" lon="6.72431">
        <ele>2219.33</ele>
        <time>2016-03-25T09:58:05Z</time>
      </trkpt>
      <trkpt lat="45.51998" lon="6.72408">
        <ele>2226.32</ele>
        <time>2016-03-25T09:58:15Z</time>
      </trkpt>
      <trkpt lat="45.51988" lon="6.72386">
        <ele>2229.48</ele>
        <time>2016-03-25T09:58:25Z</time>
      </trkpt>
      <trkpt lat="45.51978" lon="6.72363">
        <ele>2233.53</ele>
        <time>2016-03-25T09:58:36Z</time>
      </trkpt>
      <trkpt lat="45.51966" lon="6.72344">
        <ele>2243.2</ele>
        <time>2016-03-25T09:58:45Z</time>
      </trkpt>
      <trkpt lat="45.51955" lon="6.72321">
        <ele>2247.68</ele>
        <time>2016-03-25T09:58:55Z</time>
      </trkpt>
      <trkpt lat="45.51944" lon="6.72299">
        <ele>2253.49</ele>
        <time>2016-03-25T09:59:05Z</time>
      </trkpt>
      <trkpt lat="45.51933" lon="6.72276">
        <ele>2259.49</ele>
        <time>2016-03-25T09:59:17Z</time>
      </trkpt>
      <trkpt lat="45.51923" lon="6.72255">
        <ele>2266.31</ele>
        <time>2016-03-25T09:59:27Z</time>
      </trkpt>
      <trkpt lat="45.51911" lon="6.72231">
        <ele>2273.49</ele>
        <time>2016-03-25T09:59:38Z</time>
      </trkpt>
      <trkpt lat="45.519" lon="6.72208">
        <ele>2280.52</ele>
        <time>2016-03-25T09:59:49Z</time>
      </trkpt>
      <trkpt lat="45.51888" lon="6.72184">
        <ele>2285.52</ele>
        <time>2016-03-25T10:00:00Z</time>
      </trkpt>
      <trkpt lat="45.51879" lon="6.72159">
        <ele>2288.31</ele>
        <time>2016-03-25T10:00:15Z</time>
      </trkpt>
      <trkpt lat="45.51867" lon="6.72138">
        <ele>2294.12</ele>
        <time>2016-03-25T10:00:22Z</time>
      </trkpt>
      <trkpt lat="45.5186" lon="6.72111">
        <ele>2303.14</ele>
        <time>2016-03-25T10:00:40Z</time>
      </trkpt>
      <trkpt lat="45.51849" lon="6.72089">
        <ele>2302.7</ele>
        <time>2016-03-25T10:00:51Z</time>
      </trkpt>
      <trkpt lat="45.51836" lon="6.72063">
        <ele>2302.34</ele>
        <time>2016-03-25T10:01:02Z</time>
      </trkpt>
      <trkpt lat="45.51821" lon="6.72042">
        <ele>2304.37</ele>
        <time>2016-03-25T10:01:08Z</time>
      </trkpt>
      <trkpt lat="45.51811" lon="6.72018">
        <ele>2302.3</ele>
        <time>2016-03-25T10:01:20Z</time>
      </trkpt>
      <trkpt lat="45.518" lon="6.71998">
        <ele>2305.67</ele>
        <time>2016-03-25T10:01:28Z</time>
      </trkpt>
      <trkpt lat="45.51789" lon="6.71973">
        <ele>2306.1</ele>
        <time>2016-03-25T10:01:39Z</time>
      </trkpt>
      <trkpt lat="45.51782" lon="6.71946">
        <ele>2311.73</ele>
        <time>2016-03-25T10:01:45Z</time>
      </trkpt>
      <trkpt lat="45.51768" lon="6.71929">
        <ele>2315.08</ele>
        <time>2016-03-25T10:01:51Z</time>
      </trkpt>
      <trkpt lat="45.51755" lon="6.7191">
        <ele>2351.99</ele>
        <time>2016-03-25T10:02:14Z</time>
      </trkpt>
      <trkpt lat="45.51742" lon="6.71888">
        <ele>2364.08</ele>
        <time>2016-03-25T10:02:24Z</time>
      </trkpt>
      <trkpt lat="45.51723" lon="6.71888">
        <ele>2372.53</ele>
        <time>2016-03-25T10:02:55Z</time>
      </trkpt>
      <trkpt lat="45.51706" lon="6.71898">
        <ele>2372.52</ele>
        <time>2016-03-25T10:03:10Z</time>
      </trkpt>
      <trkpt lat="45.51689" lon="6.71907">
        <ele>2372.33</ele>
        <time>2016-03-25T10:03:22Z</time>
      </trkpt>
      <trkpt lat="45.51671" lon="6.71918">
        <ele>2370.54</ele>
        <time>2016-03-25T10:03:34Z</time>
      </trkpt>
      <trkpt lat="45.51654" lon="6.71933">
        <ele>2371.32</ele>
        <time>2016-03-25T10:03:42Z</time>
      </trkpt>
      <trkpt lat="45.51638" lon="6.71948">
        <ele>2369.49</ele>
        <time>2016-03-25T10:03:48Z</time>
      </trkpt>
      <trkpt lat="45.51622" lon="6.71965">
        <ele>2367.58</ele>
        <time>2016-03-25T10:03:53Z</time>
      </trkpt>
      <trkpt lat="45.51606" lon="6.71982">
        <ele>2366.54</ele>
        <time>2016-03-25T10:03:57Z</time>
      </trkpt>
      <trkpt lat="45.51591" lon="6.71997">
        <ele>2359.2</ele>
        <time>2016-03-25T10:04:00Z</time>
      </trkpt>
      <trkpt lat="45.51579" lon="6.72026">
        <ele>2356.94</ele>
        <time>2016-03-25T10:04:03Z</time>
      </trkpt>
      <trkpt lat="45.51577" lon="6.72052">
        <ele>2356.53</ele>
        <time>2016-03-25T10:04:06Z</time>
      </trkpt>
      <trkpt lat="45.51578" lon="6.72086">
        <ele>2356.69</ele>
        <time>2016-03-25T10:04:10Z</time>
      </trkpt>
      <trkpt lat="45.51586" lon="6.72121">
        <ele>2357.17</ele>
        <time>2016-03-25T10:04:13Z</time>
      </trkpt>
      <trkpt lat="45.51601" lon="6.72144">
        <ele>2354.52</ele>
        <time>2016-03-25T10:04:16Z</time>
      </trkpt>
      <trkpt lat="45.51605" lon="6.72172">
        <ele>2353.73</ele>
        <time>2016-03-25T10:04:19Z</time>
      </trkpt>
      <trkpt lat="45.51594" lon="6.722">
        <ele>2352.57</ele>
        <time>2016-03-25T10:04:22Z</time>
      </trkpt>
      <trkpt lat="45.5158" lon="6.72231">
        <ele>2351.7</ele>
        <time>2016-03-25T10:04:25Z</time>
      </trkpt>
      <trkpt lat="45.51578" lon="6.72257">
        <ele>2349.78</ele>
        <time>2016-03-25T10:04:27Z</time>
      </trkpt>
      <trkpt lat="45.51588" lon="6.72283">
        <ele>2347.13</ele>
        <time>2016-03-25T10:04:30Z</time>
      </trkpt>
      <trkpt lat="45.51599" lon="6.72315">
        <ele>2339.42</ele>
        <time>2016-03-25T10:04:34Z</time>
      </trkpt>
      <trkpt lat="45.51603" lon="6.72341">
        <ele>2336.81</ele>
        <time>2016-03-25T10:04:37Z</time>
      </trkpt>
      <trkpt lat="45.51583" lon="6.72336">
        <ele>2331.81</ele>
        <time>2016-03-25T10:04:41Z</time>
      </trkpt>
      <trkpt lat="45.51568" lon="6.72316">
        <ele>2326.82</ele>
        <time>2016-03-25T10:04:45Z</time>
      </trkpt>
      <trkpt lat="45.51552" lon="6.72302">
        <ele>2323.59</ele>
        <time>2016-03-25T10:04:48Z</time>
      </trkpt>
      <trkpt lat="45.51533" lon="6.72287">
        <ele>2321.55</ele>
        <time>2016-03-25T10:04:51Z</time>
      </trkpt>
      <trkpt lat="45.51522" lon="6.72308">
        <ele>2318.77</ele>
        <time>2016-03-25T10:05:00Z</time>
      </trkpt>
      <trkpt lat="45.5151" lon="6.7233">
        <ele>2311.98</ele>
        <time>2016-03-25T10:05:04Z</time>
      </trkpt>
      <trkpt lat="45.51492" lon="6.72342">
        <ele>2305.95</ele>
        <time>2016-03-25T10:05:08Z</time>
      </trkpt>
      <trkpt lat="45.51484" lon="6.72369">
        <ele>2302.78</ele>
        <time>2016-03-25T10:05:11Z</time>
      </trkpt>
      <trkpt lat="45.51473" lon="6.72395">
        <ele>2299.91</ele>
        <time>2016-03-25T10:05:14Z</time>
      </trkpt>
      <trkpt lat="45.51452" lon="6.72406">
        <ele>2294.99</ele>
        <time>2016-03-25T10:05:17Z</time>
      </trkpt>
      <trkpt lat="45.51428" lon="6.72403">
        <ele>2286.92</ele>
        <time>2016-03-25T10:05:20Z</time>
      </trkpt>
      <trkpt lat="45.51406" lon="6.72403">
        <ele>2277.87</ele>
        <time>2016-03-25T10:05:24Z</time>
      </trkpt>
      <trkpt lat="45.51385" lon="6.72403">
        <ele>2269.02</ele>
        <time>2016-03-25T10:05:29Z</time>
      </trkpt>
      <trkpt lat="45.51365" lon="6.72403">
        <ele>2262.94</ele>
        <time>2016-03-25T10:05:34Z</time>
      </trkpt>
      <trkpt lat="45.51344" lon="6.72407">
        <ele>2256.83</ele>
        <time>2016-03-25T10:05:39Z</time>
      </trkpt>
      <trkpt lat="45.51319" lon="6.72407">
        <ele>2251.02</ele>
        <time>2016-03-25T10:05:43Z</time>
      </trkpt>
      <trkpt lat="45.513" lon="6.72403">
        <ele>2246.07</ele>
        <time>2016-03-25T10:05:45Z</time>
      </trkpt>
      <trkpt lat="45.51274" lon="6.72399">
        <ele>2241.98</ele>
        <time>2016-03-25T10:05:48Z</time>
      </trkpt>
      <trkpt lat="45.51252" lon="6.72403">
        <ele>2239.74</ele>
        <time>2016-03-25T10:05:51Z</time>
      </trkpt>
      <trkpt lat="45.51232" lon="6.72398">
        <ele>2237.42</ele>
        <time>2016-03-25T10:05:54Z</time>
      </trkpt>
      <trkpt lat="45.51213" lon="6.72389">
        <ele>2235.77</ele>
        <time>2016-03-25T10:05:56Z</time>
      </trkpt>
      <trkpt lat="45.51193" lon="6.72379">
        <ele>2232.82</ele>
        <time>2016-03-25T10:05:58Z</time>
      </trkpt>
      <trkpt lat="45.5117" lon="6.7237">
        <ele>2228.98</ele>
        <time>2016-03-25T10:06:01Z</time>
      </trkpt>
      <trkpt lat="45.51147" lon="6.72365">
        <ele>2224.79</ele>
        <time>2016-03-25T10:06:04Z</time>
      </trkpt>
      <trkpt lat="45.51123" lon="6.72373">
        <ele>2221.94</ele>
        <time>2016-03-25T10:06:07Z</time>
      </trkpt>
      <trkpt lat="45.51102" lon="6.72385">
        <ele>2219.13</ele>
        <time>2016-03-25T10:06:10Z</time>
      </trkpt>
      <trkpt lat="45.51085" lon="6.72403">
        <ele>2217.64</ele>
        <time>2016-03-25T10:06:14Z</time>
      </trkpt>
      <trkpt lat="45.51061" lon="6.72415">
        <ele>2213.97</ele>
        <time>2016-03-25T10:06:18Z</time>
      </trkpt>
      <trkpt lat="45.51046" lon="6.72431">
        <ele>2211.74</ele>
        <time>2016-03-25T10:06:21Z</time>
      </trkpt>
      <trkpt lat="45.51036" lon="6.7246">
        <ele>2209.77</ele>
        <time>2016-03-25T10:06:24Z</time>
      </trkpt>
      <trkpt lat="45.51052" lon="6.72476">
        <ele>2202.82</ele>
        <time>2016-03-25T10:06:30Z</time>
      </trkpt>
      <trkpt lat="45.51065" lon="6.72494">
        <ele>2200.53</ele>
        <time>2016-03-25T10:07:04Z</time>
      </trkpt>
      <trkpt lat="45.51048" lon="6.7251">
        <ele>2196.33</ele>
        <time>2016-03-25T10:07:40Z</time>
      </trkpt>
      <trkpt lat="45.51031" lon="6.72523">
        <ele>2200.08</ele>
        <time>2016-03-25T10:07:51Z</time>
      </trkpt>
      <trkpt lat="45.51013" lon="6.72534">
        <ele>2212.68</ele>
        <time>2016-03-25T10:08:02Z</time>
      </trkpt>
      <trkpt lat="45.50996" lon="6.72544">
        <ele>2222.28</ele>
        <time>2016-03-25T10:08:12Z</time>
      </trkpt>
      <trkpt lat="45.50978" lon="6.72554">
        <ele>2230.29</ele>
        <time>2016-03-25T10:08:23Z</time>
      </trkpt>
      <trkpt lat="45.50959" lon="6.72564">
        <ele>2240.12</ele>
        <time>2016-03-25T10:08:33Z</time>
      </trkpt>
      <trkpt lat="45.5094" lon="6.72574">
        <ele>2246.52</ele>
        <time>2016-03-25T10:08:43Z</time>
      </trkpt>
      <trkpt lat="45.50922" lon="6.72584">
        <ele>2252.32</ele>
        <time>2016-03-25T10:08:53Z</time>
      </trkpt>
      <trkpt lat="45.50905" lon="6.72594">
        <ele>2256.32</ele>
        <time>2016-03-25T10:09:02Z</time>
      </trkpt>
      <trkpt lat="45.50888" lon="6.72605">
        <ele>2261.33</ele>
        <time>2016-03-25T10:09:11Z</time>
      </trkpt>
      <trkpt lat="45.5087" lon="6.72617">
        <ele>2269.28</ele>
        <time>2016-03-25T10:09:21Z</time>
      </trkpt>
      <trkpt lat="45.50853" lon="6.72626">
        <ele>2276.28</ele>
        <time>2016-03-25T10:09:30Z</time>
      </trkpt>
      <trkpt lat="45.50836" lon="6.72636">
        <ele>2281.33</ele>
        <time>2016-03-25T10:09:40Z</time>
      </trkpt>
      <trkpt lat="45.50818" lon="6.72646">
        <ele>2283.7</ele>
        <time>2016-03-25T10:09:50Z</time>
      </trkpt>
      <trkpt lat="45.50799" lon="6.72656">
        <ele>2287.33</ele>
        <time>2016-03-25T10:10:00Z</time>
      </trkpt>
      <trkpt lat="45.50783" lon="6.72665">
        <ele>2291.49</ele>
        <time>2016-03-25T10:10:09Z</time>
      </trkpt>
      <trkpt lat="45.50764" lon="6.72674">
        <ele>2296.49</ele>
        <time>2016-03-25T10:10:19Z</time>
      </trkpt>
      <trkpt lat="45.50747" lon="6.72686">
        <ele>2298.56</ele>
        <time>2016-03-25T10:10:36Z</time>
      </trkpt>
      <trkpt lat="45.50729" lon="6.72695">
        <ele>2298.53</ele>
        <time>2016-03-25T10:10:55Z</time>
      </trkpt>
      <trkpt lat="45.50712" lon="6.72706">
        <ele>2300.28</ele>
        <time>2016-03-25T10:11:08Z</time>
      </trkpt>
      <trkpt lat="45.50694" lon="6.72716">
        <ele>2303.5</ele>
        <time>2016-03-25T10:11:17Z</time>
      </trkpt>
      <trkpt lat="45.50675" lon="6.72727">
        <ele>2305.69</ele>
        <time>2016-03-25T10:11:27Z</time>
      </trkpt>
      <trkpt lat="45.50658" lon="6.72736">
        <ele>2307.29</ele>
        <time>2016-03-25T10:11:36Z</time>
      </trkpt>
      <trkpt lat="45.50639" lon="6.72746">
        <ele>2317.28</ele>
        <time>2016-03-25T10:11:47Z</time>
      </trkpt>
      <trkpt lat="45.50621" lon="6.72758">
        <ele>2324.24</ele>
        <time>2016-03-25T10:11:57Z</time>
      </trkpt>
      <trkpt lat="45.50603" lon="6.72767">
        <ele>2333.28</ele>
        <time>2016-03-25T10:12:08Z</time>
      </trkpt>
      <trkpt lat="45.50586" lon="6.72778">
        <ele>2344.28</ele>
        <time>2016-03-25T10:12:19Z</time>
      </trkpt>
      <trkpt lat="45.50568" lon="6.72787">
        <ele>2353.29</ele>
        <time>2016-03-25T10:12:29Z</time>
      </trkpt>
      <trkpt lat="45.50551" lon="6.72796">
        <ele>2363.31</ele>
        <time>2016-03-25T10:12:39Z</time>
      </trkpt>
      <trkpt lat="45.50534" lon="6.72804">
        <ele>2376.04</ele>
        <time>2016-03-25T10:12:49Z</time>
      </trkpt>
      <trkpt lat="45.50517" lon="6.72815">
        <ele>2387.27</ele>
        <time>2016-03-25T10:12:59Z</time>
      </trkpt>
      <trkpt lat="45.50499" lon="6.72826">
        <ele>2396.48</ele>
        <time>2016-03-25T10:13:10Z</time>
      </trkpt>
      <trkpt lat="45.50481" lon="6.72837">
        <ele>2405.48</ele>
        <time>2016-03-25T10:13:20Z</time>
      </trkpt>
      <trkpt lat="45.50462" lon="6.72846">
        <ele>2417.28</ele>
        <time>2016-03-25T10:13:31Z</time>
      </trkpt>
      <trkpt lat="45.50446" lon="6.72859">
        <ele>2427.48</ele>
        <time>2016-03-25T10:13:41Z</time>
      </trkpt>
      <trkpt lat="45.5043" lon="6.72872">
        <ele>2435.28</ele>
        <time>2016-03-25T10:13:51Z</time>
      </trkpt>
      <trkpt lat="45.50413" lon="6.72886">
        <ele>2441.52</ele>
        <time>2016-03-25T10:14:01Z</time>
      </trkpt>
      <trkpt lat="45.50395" lon="6.72897">
        <ele>2449.12</ele>
        <time>2016-03-25T10:14:11Z</time>
      </trkpt>
      <trkpt lat="45.50379" lon="6.72909">
        <ele>2455.29</ele>
        <time>2016-03-25T10:14:21Z</time>
      </trkpt>
      <trkpt lat="45.50361" lon="6.72918">
        <ele>2460.49</ele>
        <time>2016-03-25T10:14:31Z</time>
      </trkpt>
      <trkpt lat="45.50342" lon="6.72923">
        <ele>2467.32</ele>
        <time>2016-03-25T10:14:41Z</time>
      </trkpt>
      <trkpt lat="45.50326" lon="6.72934">
        <ele>2473.29</ele>
        <time>2016-03-25T10:14:50Z</time>
      </trkpt>
      <trkpt lat="45.5031" lon="6.72946">
        <ele>2476.68</ele>
        <time>2016-03-25T10:14:59Z</time>
      </trkpt>
      <trkpt lat="45.50292" lon="6.72957">
        <ele>2480.49</ele>
        <time>2016-03-25T10:15:08Z</time>
      </trkpt>
      <trkpt lat="45.50276" lon="6.7297">
        <ele>2485.28</ele>
        <time>2016-03-25T10:15:17Z</time>
      </trkpt>
      <trkpt lat="45.50259" lon="6.72983">
        <ele>2490.69</ele>
        <time>2016-03-25T10:15:27Z</time>
      </trkpt>
      <trkpt lat="45.50241" lon="6.72993">
        <ele>2497.44</ele>
        <time>2016-03-25T10:15:37Z</time>
      </trkpt>
      <trkpt lat="45.50222" lon="6.72998">
        <ele>2504.32</ele>
        <time>2016-03-25T10:15:47Z</time>
      </trkpt>
      <trkpt lat="45.50203" lon="6.73001">
        <ele>2510.09</ele>
        <time>2016-03-25T10:15:57Z</time>
      </trkpt>
      <trkpt lat="45.50185" lon="6.7301">
        <ele>2514.33</ele>
        <time>2016-03-25T10:16:07Z</time>
      </trkpt>
      <trkpt lat="45.50168" lon="6.7302">
        <ele>2519.29</ele>
        <time>2016-03-25T10:16:16Z</time>
      </trkpt>
      <trkpt lat="45.5015" lon="6.7303">
        <ele>2523.29</ele>
        <time>2016-03-25T10:16:26Z</time>
      </trkpt>
      <trkpt lat="45.50131" lon="6.73041">
        <ele>2529.28</ele>
        <time>2016-03-25T10:16:36Z</time>
      </trkpt>
      <trkpt lat="45.50113" lon="6.73047">
        <ele>2536.48</ele>
        <time>2016-03-25T10:16:46Z</time>
      </trkpt>
      <trkpt lat="45.50095" lon="6.73059">
        <ele>2542.51</ele>
        <time>2016-03-25T10:16:56Z</time>
      </trkpt>
      <trkpt lat="45.50078" lon="6.73069">
        <ele>2547.49</ele>
        <time>2016-03-25T10:17:05Z</time>
      </trkpt>
      <trkpt lat="45.5006" lon="6.73079">
        <ele>2553.32</ele>
        <time>2016-03-25T10:17:15Z</time>
      </trkpt>
      <trkpt lat="45.50045" lon="6.73095">
        <ele>2559.29</ele>
        <time>2016-03-25T10:17:24Z</time>
      </trkpt>
      <trkpt lat="45.50028" lon="6.73109">
        <ele>2565.48</ele>
        <time>2016-03-25T10:17:34Z</time>
      </trkpt>
      <trkpt lat="45.5001" lon="6.73115">
        <ele>2575.29</ele>
        <time>2016-03-25T10:17:44Z</time>
      </trkpt>
      <trkpt lat="45.49991" lon="6.73124">
        <ele>2583.28</ele>
        <time>2016-03-25T10:17:54Z</time>
      </trkpt>
      <trkpt lat="45.49973" lon="6.7313">
        <ele>2592.28</ele>
        <time>2016-03-25T10:18:04Z</time>
      </trkpt>
      <trkpt lat="45.49956" lon="6.73144">
        <ele>2598.29</ele>
        <time>2016-03-25T10:18:14Z</time>
      </trkpt>
      <trkpt lat="45.49939" lon="6.73158">
        <ele>2605.28</ele>
        <time>2016-03-25T10:18:24Z</time>
      </trkpt>
      <trkpt lat="45.49921" lon="6.73166">
        <ele>2613.32</ele>
        <time>2016-03-25T10:18:34Z</time>
      </trkpt>
      <trkpt lat="45.49904" lon="6.7318">
        <ele>2618.29</ele>
        <time>2016-03-25T10:18:44Z</time>
      </trkpt>
      <trkpt lat="45.49887" lon="6.73191">
        <ele>2625.28</ele>
        <time>2016-03-25T10:18:54Z</time>
      </trkpt>
      <trkpt lat="45.49868" lon="6.7319">
        <ele>2636.48</ele>
        <time>2016-03-25T10:19:04Z</time>
      </trkpt>
      <trkpt lat="45.49853" lon="6.73203">
        <ele>2642.29</ele>
        <time>2016-03-25T10:19:13Z</time>
      </trkpt>
      <trkpt lat="45.49837" lon="6.73217">
        <ele>2649.28</ele>
        <time>2016-03-25T10:19:22Z</time>
      </trkpt>
      <trkpt lat="45.4982" lon="6.7323">
        <ele>2656.48</ele>
        <time>2016-03-25T10:19:32Z</time>
      </trkpt>
      <trkpt lat="45.49804" lon="6.73242">
        <ele>2663.48</ele>
        <time>2016-03-25T10:19:42Z</time>
      </trkpt>
      <trkpt lat="45.49787" lon="6.73254">
        <ele>2670.29</ele>
        <time>2016-03-25T10:19:52Z</time>
      </trkpt>
      <trkpt lat="45.49768" lon="6.73261">
        <ele>2676.48</ele>
        <time>2016-03-25T10:20:02Z</time>
      </trkpt>
      <trkpt lat="45.4975" lon="6.73263">
        <ele>2680.28</ele>
        <time>2016-03-25T10:20:11Z</time>
      </trkpt>
      <trkpt lat="45.49731" lon="6.73273">
        <ele>2679.53</ele>
        <time>2016-03-25T10:20:21Z</time>
      </trkpt>
      <trkpt lat="45.49714" lon="6.73283">
        <ele>2680.53</ele>
        <time>2016-03-25T10:20:30Z</time>
      </trkpt>
      <trkpt lat="45.49694" lon="6.73287">
        <ele>2681.73</ele>
        <time>2016-03-25T10:20:40Z</time>
      </trkpt>
      <trkpt lat="45.49677" lon="6.73297">
        <ele>2680.74</ele>
        <time>2016-03-25T10:20:49Z</time>
      </trkpt>
      <trkpt lat="45.4966" lon="6.7331">
        <ele>2681.52</ele>
        <time>2016-03-25T10:20:58Z</time>
      </trkpt>
      <trkpt lat="45.49643" lon="6.73319">
        <ele>2682.52</ele>
        <time>2016-03-25T10:21:07Z</time>
      </trkpt>
      <trkpt lat="45.49625" lon="6.73329">
        <ele>2683.49</ele>
        <time>2016-03-25T10:21:17Z</time>
      </trkpt>
      <trkpt lat="45.49608" lon="6.73342">
        <ele>2684.48</ele>
        <time>2016-03-25T10:21:26Z</time>
      </trkpt>
      <trkpt lat="45.49589" lon="6.73349">
        <ele>2688.49</ele>
        <time>2016-03-25T10:21:36Z</time>
      </trkpt>
      <trkpt lat="45.49572" lon="6.73363">
        <ele>2693.32</ele>
        <time>2016-03-25T10:21:45Z</time>
      </trkpt>
      <trkpt lat="45.49554" lon="6.73373">
        <ele>2698.33</ele>
        <time>2016-03-25T10:21:55Z</time>
      </trkpt>
      <trkpt lat="45.49536" lon="6.73381">
        <ele>2701.32</ele>
        <time>2016-03-25T10:22:05Z</time>
      </trkpt>
      <trkpt lat="45.49519" lon="6.73394">
        <ele>2704.32</ele>
        <time>2016-03-25T10:22:15Z</time>
      </trkpt>
      <trkpt lat="45.49501" lon="6.73404">
        <ele>2708.28</ele>
        <time>2016-03-25T10:22:25Z</time>
      </trkpt>
      <trkpt lat="45.49483" lon="6.73413">
        <ele>2712.52</ele>
        <time>2016-03-25T10:22:34Z</time>
      </trkpt>
      <trkpt lat="45.49466" lon="6.73423">
        <ele>2715.52</ele>
        <time>2016-03-25T10:22:43Z</time>
      </trkpt>
      <trkpt lat="45.49448" lon="6.73431">
        <ele>2717.5</ele>
        <time>2016-03-25T10:22:52Z</time>
      </trkpt>
      <trkpt lat="45.4943" lon="6.73443">
        <ele>2720.7</ele>
        <time>2016-03-25T10:23:02Z</time>
      </trkpt>
      <trkpt lat="45.49424" lon="6.73468">
        <ele>2715.73</ele>
        <time>2016-03-25T10:23:09Z</time>
      </trkpt>
      <trkpt lat="45.49442" lon="6.73459">
        <ele>2711.53</ele>
        <time>2016-03-25T10:23:39Z</time>
      </trkpt>
      <trkpt lat="45.49461" lon="6.73439">
        <ele>2708.55</ele>
        <time>2016-03-25T10:23:43Z</time>
      </trkpt>
      <trkpt lat="45.4947" lon="6.73414">
        <ele>2705.81</ele>
        <time>2016-03-25T10:23:46Z</time>
      </trkpt>
      <trkpt lat="45.49484" lon="6.73394">
        <ele>2704.54</ele>
        <time>2016-03-25T10:23:49Z</time>
      </trkpt>
      <trkpt lat="45.49505" lon="6.73387">
        <ele>2701.62</ele>
        <time>2016-03-25T10:23:52Z</time>
      </trkpt>
      <trkpt lat="45.49529" lon="6.73371">
        <ele>2695.51</ele>
        <time>2016-03-25T10:23:56Z</time>
      </trkpt>
      <trkpt lat="45.49552" lon="6.73365">
        <ele>2694.89</ele>
        <time>2016-03-25T10:23:59Z</time>
      </trkpt>
      <trkpt lat="45.49573" lon="6.73363">
        <ele>2690.98</ele>
        <time>2016-03-25T10:24:02Z</time>
      </trkpt>
      <trkpt lat="45.49595" lon="6.7336">
        <ele>2687.59</ele>
        <time>2016-03-25T10:24:05Z</time>
      </trkpt>
      <trkpt lat="45.49617" lon="6.73349">
        <ele>2682.19</ele>
        <time>2016-03-25T10:24:08Z</time>
      </trkpt>
      <trkpt lat="45.49636" lon="6.73334">
        <ele>2675.66</ele>
        <time>2016-03-25T10:24:12Z</time>
      </trkpt>
      <trkpt lat="45.49655" lon="6.73321">
        <ele>2674.58</ele>
        <time>2016-03-25T10:24:14Z</time>
      </trkpt>
      <trkpt lat="45.49669" lon="6.73294">
        <ele>2669.83</ele>
        <time>2016-03-25T10:24:17Z</time>
      </trkpt>
      <trkpt lat="45.49675" lon="6.73262">
        <ele>2665.79</ele>
        <time>2016-03-25T10:24:20Z</time>
      </trkpt>
      <trkpt lat="45.49687" lon="6.73236">
        <ele>2659.23</ele>
        <time>2016-03-25T10:24:23Z</time>
      </trkpt>
      <trkpt lat="45.49696" lon="6.7321">
        <ele>2655.78</ele>
        <time>2016-03-25T10:24:26Z</time>
      </trkpt>
      <trkpt lat="45.49704" lon="6.7318">
        <ele>2650.8</ele>
        <time>2016-03-25T10:24:30Z</time>
      </trkpt>
      <trkpt lat="45.49705" lon="6.73148">
        <ele>2646.75</ele>
        <time>2016-03-25T10:24:34Z</time>
      </trkpt>
      <trkpt lat="45.49702" lon="6.73119">
        <ele>2642.75</ele>
        <time>2016-03-25T10:24:38Z</time>
      </trkpt>
      <trkpt lat="45.49709" lon="6.73094">
        <ele>2638.94</ele>
        <time>2016-03-25T10:24:42Z</time>
      </trkpt>
      <trkpt lat="45.4971" lon="6.73063">
        <ele>2631.99</ele>
        <time>2016-03-25T10:24:46Z</time>
      </trkpt>
      <trkpt lat="45.49733" lon="6.73045">
        <ele>2621.63</ele>
        <time>2016-03-25T10:25:01Z</time>
      </trkpt>
      <trkpt lat="45.49742" lon="6.73021">
        <ele>2614.97</ele>
        <time>2016-03-25T10:25:12Z</time>
      </trkpt>
      <trkpt lat="45.49761" lon="6.73007">
        <ele>2605.15</ele>
        <time>2016-03-25T10:25:18Z</time>
      </trkpt>
      <trkpt lat="45.49766" lon="6.72981">
        <ele>2600.08</ele>
        <time>2016-03-25T10:25:20Z</time>
      </trkpt>
      <trkpt lat="45.49777" lon="6.72955">
        <ele>2594.06</ele>
        <time>2016-03-25T10:25:23Z</time>
      </trkpt>
      <trkpt lat="45.49776" lon="6.72929">
        <ele>2589.82</ele>
        <time>2016-03-25T10:25:26Z</time>
      </trkpt>
      <trkpt lat="45.49789" lon="6.72904">
        <ele>2582.69</ele>
        <time>2016-03-25T10:25:29Z</time>
      </trkpt>
      <trkpt lat="45.49804" lon="6.72878">
        <ele>2578.02</ele>
        <time>2016-03-25T10:25:32Z</time>
      </trkpt>
      <trkpt lat="45.49821" lon="6.72853">
        <ele>2572.99</ele>
        <time>2016-03-25T10:25:35Z</time>
      </trkpt>
      <trkpt lat="45.49831" lon="6.72825">
        <ele>2566.87</ele>
        <time>2016-03-25T10:25:38Z</time>
      </trkpt>
      <trkpt lat="45.49837" lon="6.72793">
        <ele>2562.95</ele>
        <time>2016-03-25T10:25:41Z</time>
      </trkpt>
      <trkpt lat="45.49851" lon="6.72776">
        <ele>2560.79</ele>
        <time>2016-03-25T10:25:43Z</time>
      </trkpt>
      <trkpt lat="45.49867" lon="6.72751">
        <ele>2559.74</ele>
        <time>2016-03-25T10:25:45Z</time>
      </trkpt>
      <trkpt lat="45.49877" lon="6.72727">
        <ele>2557.17</ele>
        <time>2016-03-25T10:25:46Z</time>
      </trkpt>
      <trkpt lat="45.49885" lon="6.72697">
        <ele>2551.28</ele>
        <time>2016-03-25T10:25:48Z</time>
      </trkpt>
      <trkpt lat="45.49898" lon="6.72677">
        <ele>2548.8</ele>
        <time>2016-03-25T10:25:50Z</time>
      </trkpt>
      <trkpt lat="45.49917" lon="6.72658">
        <ele>2544.98</ele>
        <time>2016-03-25T10:25:53Z</time>
      </trkpt>
      <trkpt lat="45.49934" lon="6.72641">
        <ele>2531.87</ele>
        <time>2016-03-25T10:25:57Z</time>
      </trkpt>
      <trkpt lat="45.49954" lon="6.72615">
        <ele>2523.31</ele>
        <time>2016-03-25T10:26:00Z</time>
      </trkpt>
      <trkpt lat="45.49976" lon="6.72597">
        <ele>2519.84</ele>
        <time>2016-03-25T10:26:02Z</time>
      </trkpt>
      <trkpt lat="45.49995" lon="6.72582">
        <ele>2516.98</ele>
        <time>2016-03-25T10:26:04Z</time>
      </trkpt>
      <trkpt lat="45.50016" lon="6.72568">
        <ele>2515.75</ele>
        <time>2016-03-25T10:26:06Z</time>
      </trkpt>
      <trkpt lat="45.50033" lon="6.72555">
        <ele>2512.82</ele>
        <time>2016-03-25T10:26:08Z</time>
      </trkpt>
      <trkpt lat="45.50053" lon="6.72533">
        <ele>2506.81</ele>
        <time>2016-03-25T10:26:11Z</time>
      </trkpt>
      <trkpt lat="45.5007" lon="6.72517">
        <ele>2503.98</ele>
        <time>2016-03-25T10:26:13Z</time>
      </trkpt>
      <trkpt lat="45.50089" lon="6.72502">
        <ele>2501.79</ele>
        <time>2016-03-25T10:26:15Z</time>
      </trkpt>
      <trkpt lat="45.50109" lon="6.72488">
        <ele>2501.54</ele>
        <time>2016-03-25T10:26:17Z</time>
      </trkpt>
      <trkpt lat="45.50134" lon="6.72469">
        <ele>2500.54</ele>
        <time>2016-03-25T10:26:20Z</time>
      </trkpt>
      <trkpt lat="45.50149" lon="6.7245">
        <ele>2498.74</ele>
        <time>2016-03-25T10:26:23Z</time>
      </trkpt>
      <trkpt lat="45.50168" lon="6.72443">
        <ele>2495.78</ele>
        <time>2016-03-25T10:26:26Z</time>
      </trkpt>
      <trkpt lat="45.50181" lon="6.7242">
        <ele>2486.82</ele>
        <time>2016-03-25T10:26:31Z</time>
      </trkpt>
      <trkpt lat="45.50188" lon="6.72389">
        <ele>2476.14</ele>
        <time>2016-03-25T10:26:53Z</time>
      </trkpt>
      <trkpt lat="45.50199" lon="6.72365">
        <ele>2471.81</ele>
        <time>2016-03-25T10:26:57Z</time>
      </trkpt>
      <trkpt lat="45.50212" lon="6.72341">
        <ele>2466.01</ele>
        <time>2016-03-25T10:27:01Z</time>
      </trkpt>
      <trkpt lat="45.50226" lon="6.72322">
        <ele>2459.87</ele>
        <time>2016-03-25T10:27:04Z</time>
      </trkpt>
      <trkpt lat="45.50244" lon="6.7231">
        <ele>2449.82</ele>
        <time>2016-03-25T10:27:12Z</time>
      </trkpt>
      <trkpt lat="45.50257" lon="6.72292">
        <ele>2448.57</ele>
        <time>2016-03-25T10:27:15Z</time>
      </trkpt>
      <trkpt lat="45.50272" lon="6.7227">
        <ele>2443.09</ele>
        <time>2016-03-25T10:27:18Z</time>
      </trkpt>
      <trkpt lat="45.50294" lon="6.72246">
        <ele>2437.22</ele>
        <time>2016-03-25T10:27:21Z</time>
      </trkpt>
      <trkpt lat="45.50315" lon="6.72237">
        <ele>2429.11</ele>
        <time>2016-03-25T10:27:24Z</time>
      </trkpt>
      <trkpt lat="45.50333" lon="6.72226">
        <ele>2425.99</ele>
        <time>2016-03-25T10:27:26Z</time>
      </trkpt>
      <trkpt lat="45.5036" lon="6.72218">
        <ele>2419.13</ele>
        <time>2016-03-25T10:27:29Z</time>
      </trkpt>
      <trkpt lat="45.50381" lon="6.72218">
        <ele>2415.68</ele>
        <time>2016-03-25T10:27:31Z</time>
      </trkpt>
      <trkpt lat="45.50398" lon="6.72208">
        <ele>2412.02</ele>
        <time>2016-03-25T10:27:33Z</time>
      </trkpt>
      <trkpt lat="45.50416" lon="6.72205">
        <ele>2408.19</ele>
        <time>2016-03-25T10:27:35Z</time>
      </trkpt>
      <trkpt lat="45.5044" lon="6.72211">
        <ele>2401.87</ele>
        <time>2016-03-25T10:27:38Z</time>
      </trkpt>
      <trkpt lat="45.5046" lon="6.72202">
        <ele>2397.86</ele>
        <time>2016-03-25T10:27:40Z</time>
      </trkpt>
      <trkpt lat="45.50493" lon="6.72193">
        <ele>2393.86</ele>
        <time>2016-03-25T10:27:42Z</time>
      </trkpt>
      <trkpt lat="45.50523" lon="6.72175">
        <ele>2392.74</ele>
        <time>2016-03-25T10:27:44Z</time>
      </trkpt>
      <trkpt lat="45.50545" lon="6.72159">
        <ele>2388.22</ele>
        <time>2016-03-25T10:27:46Z</time>
      </trkpt>
      <trkpt lat="45.50563" lon="6.72142">
        <ele>2380.36</ele>
        <time>2016-03-25T10:27:48Z</time>
      </trkpt>
      <trkpt lat="45.50584" lon="6.72127">
        <ele>2374.92</ele>
        <time>2016-03-25T10:27:50Z</time>
      </trkpt>
      <trkpt lat="45.50606" lon="6.72113">
        <ele>2373.75</ele>
        <time>2016-03-25T10:27:52Z</time>
      </trkpt>
      <trkpt lat="45.5063" lon="6.721">
        <ele>2373.54</ele>
        <time>2016-03-25T10:27:54Z</time>
      </trkpt>
      <trkpt lat="45.50648" lon="6.72091">
        <ele>2370.33</ele>
        <time>2016-03-25T10:27:56Z</time>
      </trkpt>
      <trkpt lat="45.50673" lon="6.7208">
        <ele>2363.17</ele>
        <time>2016-03-25T10:27:59Z</time>
      </trkpt>
      <trkpt lat="45.50692" lon="6.7207">
        <ele>2362.56</ele>
        <time>2016-03-25T10:28:01Z</time>
      </trkpt>
      <trkpt lat="45.50711" lon="6.72065">
        <ele>2360.93</ele>
        <time>2016-03-25T10:28:03Z</time>
      </trkpt>
      <trkpt lat="45.50731" lon="6.72059">
        <ele>2360.55</ele>
        <time>2016-03-25T10:28:05Z</time>
      </trkpt>
      <trkpt lat="45.50754" lon="6.72052">
        <ele>2359.76</ele>
        <time>2016-03-25T10:28:08Z</time>
      </trkpt>
      <trkpt lat="45.50779" lon="6.72044">
        <ele>2357.74</ele>
        <time>2016-03-25T10:28:11Z</time>
      </trkpt>
      <trkpt lat="45.50799" lon="6.72037">
        <ele>2357.54</ele>
        <time>2016-03-25T10:28:13Z</time>
      </trkpt>
      <trkpt lat="45.50817" lon="6.7203">
        <ele>2352.09</ele>
        <time>2016-03-25T10:28:15Z</time>
      </trkpt>
      <trkpt lat="45.5084" lon="6.72023">
        <ele>2348.99</ele>
        <time>2016-03-25T10:28:17Z</time>
      </trkpt>
      <trkpt lat="45.50864" lon="6.72017">
        <ele>2345.83</ele>
        <time>2016-03-25T10:28:19Z</time>
      </trkpt>
      <trkpt lat="45.50888" lon="6.72011">
        <ele>2344.58</ele>
        <time>2016-03-25T10:28:21Z</time>
      </trkpt>
      <trkpt lat="45.50914" lon="6.72004">
        <ele>2331.94</ele>
        <time>2016-03-25T10:28:25Z</time>
      </trkpt>
      <trkpt lat="45.50932" lon="6.72">
        <ele>2327.98</ele>
        <time>2016-03-25T10:28:28Z</time>
      </trkpt>
      <trkpt lat="45.50955" lon="6.71999">
        <ele>2326.33</ele>
        <time>2016-03-25T10:28:32Z</time>
      </trkpt>
      <trkpt lat="45.50974" lon="6.71996">
        <ele>2323.77</ele>
        <time>2016-03-25T10:28:36Z</time>
      </trkpt>
      <trkpt lat="45.50992" lon="6.71996">
        <ele>2323.56</ele>
        <time>2016-03-25T10:28:41Z</time>
      </trkpt>
      <trkpt lat="45.51011" lon="6.71994">
        <ele>2321.73</ele>
        <time>2016-03-25T10:28:46Z</time>
      </trkpt>
      <trkpt lat="45.51032" lon="6.71989">
        <ele>2319.73</ele>
        <time>2016-03-25T10:28:53Z</time>
      </trkpt>
      <trkpt lat="45.5105" lon="6.71985">
        <ele>2317.33</ele>
        <time>2016-03-25T10:29:02Z</time>
      </trkpt>
      <trkpt lat="45.51068" lon="6.71977">
        <ele>2315.61</ele>
        <time>2016-03-25T10:29:16Z</time>
      </trkpt>
      <trkpt lat="45.51103" lon="6.71793">
        <ele>2304.53</ele>
        <time>2016-03-25T10:30:03Z</time>
      </trkpt>
      <trkpt lat="45.51119" lon="6.7178">
        <ele>2308.53</ele>
        <time>2016-03-25T10:30:13Z</time>
      </trkpt>
      <trkpt lat="45.51133" lon="6.71763">
        <ele>2307.49</ele>
        <time>2016-03-25T10:30:50Z</time>
      </trkpt>
      <trkpt lat="45.51147" lon="6.7174">
        <ele>2302.22</ele>
        <time>2016-03-25T10:30:53Z</time>
      </trkpt>
      <trkpt lat="45.51155" lon="6.71716">
        <ele>2300.6</ele>
        <time>2016-03-25T10:30:55Z</time>
      </trkpt>
      <trkpt lat="45.51158" lon="6.71689">
        <ele>2298.77</ele>
        <time>2016-03-25T10:30:57Z</time>
      </trkpt>
      <trkpt lat="45.51172" lon="6.71664">
        <ele>2293.8</ele>
        <time>2016-03-25T10:31:00Z</time>
      </trkpt>
      <trkpt lat="45.5118" lon="6.71631">
        <ele>2290.81</ele>
        <time>2016-03-25T10:31:03Z</time>
      </trkpt>
      <trkpt lat="45.51191" lon="6.71597">
        <ele>2287.97</ele>
        <time>2016-03-25T10:31:06Z</time>
      </trkpt>
      <trkpt lat="45.51201" lon="6.71562">
        <ele>2285.58</ele>
        <time>2016-03-25T10:31:09Z</time>
      </trkpt>
      <trkpt lat="45.5121" lon="6.71535">
        <ele>2284.73</ele>
        <time>2016-03-25T10:31:11Z</time>
      </trkpt>
      <trkpt lat="45.51213" lon="6.71507">
        <ele>2283.58</ele>
        <time>2016-03-25T10:31:13Z</time>
      </trkpt>
      <trkpt lat="45.51222" lon="6.71475">
        <ele>2281.93</ele>
        <time>2016-03-25T10:31:15Z</time>
      </trkpt>
      <trkpt lat="45.51222" lon="6.71445">
        <ele>2270.27</ele>
        <time>2016-03-25T10:31:18Z</time>
      </trkpt>
      <trkpt lat="45.51217" lon="6.71408">
        <ele>2265.66</ele>
        <time>2016-03-25T10:31:21Z</time>
      </trkpt>
      <trkpt lat="45.51208" lon="6.71377">
        <ele>2262.82</ele>
        <time>2016-03-25T10:31:23Z</time>
      </trkpt>
      <trkpt lat="45.51213" lon="6.71333">
        <ele>2255.3</ele>
        <time>2016-03-25T10:31:26Z</time>
      </trkpt>
      <trkpt lat="45.51211" lon="6.71296">
        <ele>2250.24</ele>
        <time>2016-03-25T10:31:28Z</time>
      </trkpt>
      <trkpt lat="45.51215" lon="6.71259">
        <ele>2245.88</ele>
        <time>2016-03-25T10:31:30Z</time>
      </trkpt>
      <trkpt lat="45.51212" lon="6.71229">
        <ele>2242.82</ele>
        <time>2016-03-25T10:31:32Z</time>
      </trkpt>
      <trkpt lat="45.51214" lon="6.71202">
        <ele>2239.18</ele>
        <time>2016-03-25T10:31:34Z</time>
      </trkpt>
      <trkpt lat="45.51219" lon="6.71174">
        <ele>2233.83</ele>
        <time>2016-03-25T10:31:37Z</time>
      </trkpt>
      <trkpt lat="45.51219" lon="6.71148">
        <ele>2227.01</ele>
        <time>2016-03-25T10:31:40Z</time>
      </trkpt>
      <trkpt lat="45.51228" lon="6.71123">
        <ele>2219.77</ele>
        <time>2016-03-25T10:33:15Z</time>
      </trkpt>
      <trkpt lat="45.51238" lon="6.71093">
        <ele>2213.79</ele>
        <time>2016-03-25T10:33:19Z</time>
      </trkpt>
      <trkpt lat="45.51256" lon="6.71058">
        <ele>2211.93</ele>
        <time>2016-03-25T10:33:22Z</time>
      </trkpt>
      <trkpt lat="45.51255" lon="6.71019">
        <ele>2207.98</ele>
        <time>2016-03-25T10:33:25Z</time>
      </trkpt>
      <trkpt lat="45.51261" lon="6.70988">
        <ele>2199.25</ele>
        <time>2016-03-25T10:33:28Z</time>
      </trkpt>
      <trkpt lat="45.51267" lon="6.70964">
        <ele>2194.88</ele>
        <time>2016-03-25T10:33:30Z</time>
      </trkpt>
      <trkpt lat="45.51269" lon="6.70936">
        <ele>2191.02</ele>
        <time>2016-03-25T10:33:32Z</time>
      </trkpt>
      <trkpt lat="45.51273" lon="6.70906">
        <ele>2183.3</ele>
        <time>2016-03-25T10:33:35Z</time>
      </trkpt>
      <trkpt lat="45.51275" lon="6.70876">
        <ele>2176.23</ele>
        <time>2016-03-25T10:33:38Z</time>
      </trkpt>
      <trkpt lat="45.51275" lon="6.70848">
        <ele>2172.84</ele>
        <time>2016-03-25T10:33:40Z</time>
      </trkpt>
      <trkpt lat="45.51281" lon="6.70822">
        <ele>2169.98</ele>
        <time>2016-03-25T10:33:42Z</time>
      </trkpt>
      <trkpt lat="45.51262" lon="6.70803">
        <ele>2158.09</ele>
        <time>2016-03-25T10:33:46Z</time>
      </trkpt>
      <trkpt lat="45.51261" lon="6.70776">
        <ele>2150.59</ele>
        <time>2016-03-25T10:33:51Z</time>
      </trkpt>
      <trkpt lat="45.51256" lon="6.70747">
        <ele>2141.96</ele>
        <time>2016-03-25T10:33:57Z</time>
      </trkpt>
      <trkpt lat="45.51236" lon="6.70747">
        <ele>2134.05</ele>
        <time>2016-03-25T10:34:00Z</time>
      </trkpt>
      <trkpt lat="45.51218" lon="6.70737">
        <ele>2129.6</ele>
        <time>2016-03-25T10:34:03Z</time>
      </trkpt>
      <trkpt lat="45.51199" lon="6.70732">
        <ele>2125.98</ele>
        <time>2016-03-25T10:34:06Z</time>
      </trkpt>
      <trkpt lat="45.5118" lon="6.70716">
        <ele>2120.27</ele>
        <time>2016-03-25T10:34:08Z</time>
      </trkpt>
      <trkpt lat="45.51163" lon="6.70702">
        <ele>2115.88</ele>
        <time>2016-03-25T10:34:10Z</time>
      </trkpt>
      <trkpt lat="45.51139" lon="6.70693">
        <ele>2110.83</ele>
        <time>2016-03-25T10:34:13Z</time>
      </trkpt>
      <trkpt lat="45.51114" lon="6.70681">
        <ele>2105.22</ele>
        <time>2016-03-25T10:34:16Z</time>
      </trkpt>
      <trkpt lat="45.51098" lon="6.70667">
        <ele>2101.2</ele>
        <time>2016-03-25T10:34:18Z</time>
      </trkpt>
      <trkpt lat="45.51085" lon="6.70644">
        <ele>2095.03</ele>
        <time>2016-03-25T10:34:21Z</time>
      </trkpt>
      <trkpt lat="45.51075" lon="6.70615">
        <ele>2093.13</ele>
        <time>2016-03-25T10:34:24Z</time>
      </trkpt>
      <trkpt lat="45.5107" lon="6.70588">
        <ele>2087.03</ele>
        <time>2016-03-25T10:34:27Z</time>
      </trkpt>
      <trkpt lat="45.51061" lon="6.70565">
        <ele>2082.39</ele>
        <time>2016-03-25T10:34:29Z</time>
      </trkpt>
      <trkpt lat="45.51056" lon="6.70531">
        <ele>2077.47</ele>
        <time>2016-03-25T10:34:32Z</time>
      </trkpt>
      <trkpt lat="45.51062" lon="6.705">
        <ele>2069.85</ele>
        <time>2016-03-25T10:34:35Z</time>
      </trkpt>
      <trkpt lat="45.51062" lon="6.70469">
        <ele>2066.98</ele>
        <time>2016-03-25T10:34:37Z</time>
      </trkpt>
      <trkpt lat="45.51071" lon="6.70447">
        <ele>2061.27</ele>
        <time>2016-03-25T10:34:39Z</time>
      </trkpt>
      <trkpt lat="45.51093" lon="6.70426">
        <ele>2058.64</ele>
        <time>2016-03-25T10:34:41Z</time>
      </trkpt>
      <trkpt lat="45.51112" lon="6.70401">
        <ele>2054.06</ele>
        <time>2016-03-25T10:34:43Z</time>
      </trkpt>
      <trkpt lat="45.51131" lon="6.70382">
        <ele>2050.19</ele>
        <time>2016-03-25T10:34:45Z</time>
      </trkpt>
      <trkpt lat="45.51146" lon="6.70355">
        <ele>2042.27</ele>
        <time>2016-03-25T10:34:48Z</time>
      </trkpt>
      <trkpt lat="45.51157" lon="6.70332">
        <ele>2038.2</ele>
        <time>2016-03-25T10:34:50Z</time>
      </trkpt>
      <trkpt lat="45.51168" lon="6.70306">
        <ele>2032.28</ele>
        <time>2016-03-25T10:34:52Z</time>
      </trkpt>
      <trkpt lat="45.51174" lon="6.70278">
        <ele>2026.28</ele>
        <time>2016-03-25T10:34:54Z</time>
      </trkpt>
      <trkpt lat="45.51182" lon="6.70248">
        <ele>2020.12</ele>
        <time>2016-03-25T10:34:56Z</time>
      </trkpt>
      <trkpt lat="45.51192" lon="6.70225">
        <ele>2016.03</ele>
        <time>2016-03-25T10:34:58Z</time>
      </trkpt>
      <trkpt lat="45.51209" lon="6.70201">
        <ele>2011.23</ele>
        <time>2016-03-25T10:35:00Z</time>
      </trkpt>
      <trkpt lat="45.5122" lon="6.70172">
        <ele>2006.79</ele>
        <time>2016-03-25T10:35:03Z</time>
      </trkpt>
      <trkpt lat="45.5123" lon="6.70145">
        <ele>2001.8</ele>
        <time>2016-03-25T10:35:06Z</time>
      </trkpt>
      <trkpt lat="45.51232" lon="6.70115">
        <ele>1997.59</ele>
        <time>2016-03-25T10:35:11Z</time>
      </trkpt>
      <trkpt lat="45.51229" lon="6.70079">
        <ele>1993.82</ele>
        <time>2016-03-25T10:35:14Z</time>
      </trkpt>
      <trkpt lat="45.51236" lon="6.70042">
        <ele>1989.6</ele>
        <time>2016-03-25T10:35:17Z</time>
      </trkpt>
      <trkpt lat="45.51235" lon="6.70008">
        <ele>1987.61</ele>
        <time>2016-03-25T10:35:19Z</time>
      </trkpt>
      <trkpt lat="45.51232" lon="6.6998">
        <ele>1984.97</ele>
        <time>2016-03-25T10:35:21Z</time>
      </trkpt>
      <trkpt lat="45.5123" lon="6.69946">
        <ele>1977.81</ele>
        <time>2016-03-25T10:35:24Z</time>
      </trkpt>
      <trkpt lat="45.51225" lon="6.6992">
        <ele>1975.78</ele>
        <time>2016-03-25T10:35:26Z</time>
      </trkpt>
      <trkpt lat="45.51221" lon="6.69884">
        <ele>1973.58</ele>
        <time>2016-03-25T10:35:29Z</time>
      </trkpt>
      <trkpt lat="45.51231" lon="6.69861">
        <ele>1955.82</ele>
        <time>2016-03-25T10:35:34Z</time>
      </trkpt>
      <trkpt lat="45.51229" lon="6.69834">
        <ele>1950.98</ele>
        <time>2016-03-25T10:35:38Z</time>
      </trkpt>
      <trkpt lat="45.5123" lon="6.69807">
        <ele>1942.99</ele>
        <time>2016-03-25T10:35:42Z</time>
      </trkpt>
      <trkpt lat="45.5123" lon="6.69781">
        <ele>1939.78</ele>
        <time>2016-03-25T10:35:45Z</time>
      </trkpt>
      <trkpt lat="45.51239" lon="6.69758">
        <ele>1936.34</ele>
        <time>2016-03-25T10:35:55Z</time>
      </trkpt>
      <trkpt lat="45.51219" lon="6.6977">
        <ele>1943.62</ele>
        <time>2016-03-25T10:41:34Z</time>
      </trkpt>
      <trkpt lat="45.51204" lon="6.69791">
        <ele>1938.44</ele>
        <time>2016-03-25T10:41:38Z</time>
      </trkpt>
      <trkpt lat="45.51193" lon="6.69811">
        <ele>1937.51</ele>
        <time>2016-03-25T10:41:42Z</time>
      </trkpt>
      <trkpt lat="45.5118" lon="6.69834">
        <ele>1937.73</ele>
        <time>2016-03-25T10:41:47Z</time>
      </trkpt>
      <trkpt lat="45.51172" lon="6.69858">
        <ele>1942.29</ele>
        <time>2016-03-25T10:41:53Z</time>
      </trkpt>
      <trkpt lat="45.51162" lon="6.69882">
        <ele>1944.68</ele>
        <time>2016-03-25T10:41:59Z</time>
      </trkpt>
      <trkpt lat="45.51148" lon="6.69902">
        <ele>1946.4</ele>
        <time>2016-03-25T10:42:04Z</time>
      </trkpt>
      <trkpt lat="45.51136" lon="6.69925">
        <ele>1950.33</ele>
        <time>2016-03-25T10:42:09Z</time>
      </trkpt>
      <trkpt lat="45.51123" lon="6.6995">
        <ele>1954.29</ele>
        <time>2016-03-25T10:42:15Z</time>
      </trkpt>
      <trkpt lat="45.51111" lon="6.69975">
        <ele>1956.53</ele>
        <time>2016-03-25T10:42:21Z</time>
      </trkpt>
      <trkpt lat="45.51101" lon="6.69997">
        <ele>1957.52</ele>
        <time>2016-03-25T10:42:26Z</time>
      </trkpt>
      <trkpt lat="45.51089" lon="6.70021">
        <ele>1962.12</ele>
        <time>2016-03-25T10:42:32Z</time>
      </trkpt>
      <trkpt lat="45.51078" lon="6.70042">
        <ele>1963.53</ele>
        <time>2016-03-25T10:42:37Z</time>
      </trkpt>
      <trkpt lat="45.5107" lon="6.70067">
        <ele>1965.28</ele>
        <time>2016-03-25T10:42:43Z</time>
      </trkpt>
      <trkpt lat="45.51057" lon="6.70089">
        <ele>1966.49</ele>
        <time>2016-03-25T10:42:48Z</time>
      </trkpt>
      <trkpt lat="45.51046" lon="6.70113">
        <ele>1968.32</ele>
        <time>2016-03-25T10:42:54Z</time>
      </trkpt>
      <trkpt lat="45.51035" lon="6.70135">
        <ele>1967.53</ele>
        <time>2016-03-25T10:42:59Z</time>
      </trkpt>
      <trkpt lat="45.51025" lon="6.70159">
        <ele>1973.1</ele>
        <time>2016-03-25T10:43:05Z</time>
      </trkpt>
      <trkpt lat="45.51013" lon="6.7018">
        <ele>1979.44</ele>
        <time>2016-03-25T10:43:10Z</time>
      </trkpt>
      <trkpt lat="45.51003" lon="6.70204">
        <ele>1987.27</ele>
        <time>2016-03-25T10:43:16Z</time>
      </trkpt>
      <trkpt lat="45.50991" lon="6.70229">
        <ele>1987.52</ele>
        <time>2016-03-25T10:43:22Z</time>
      </trkpt>
      <trkpt lat="45.50979" lon="6.70254">
        <ele>1988.53</ele>
        <time>2016-03-25T10:43:28Z</time>
      </trkpt>
      <trkpt lat="45.50967" lon="6.70278">
        <ele>1990.49</ele>
        <time>2016-03-25T10:43:34Z</time>
      </trkpt>
      <trkpt lat="45.50958" lon="6.70303">
        <ele>1993.32</ele>
        <time>2016-03-25T10:43:40Z</time>
      </trkpt>
      <trkpt lat="45.5095" lon="6.70328">
        <ele>1997.61</ele>
        <time>2016-03-25T10:43:45Z</time>
      </trkpt>
      <trkpt lat="45.50934" lon="6.70349">
        <ele>1998.37</ele>
        <time>2016-03-25T10:43:51Z</time>
      </trkpt>
      <trkpt lat="45.50921" lon="6.70367">
        <ele>2000.13</ele>
        <time>2016-03-25T10:43:56Z</time>
      </trkpt>
      <trkpt lat="45.50907" lon="6.70389">
        <ele>2003.28</ele>
        <time>2016-03-25T10:44:01Z</time>
      </trkpt>
      <trkpt lat="45.50896" lon="6.70412">
        <ele>2008.47</ele>
        <time>2016-03-25T10:44:07Z</time>
      </trkpt>
      <trkpt lat="45.5089" lon="6.70438">
        <ele>2011.47</ele>
        <time>2016-03-25T10:44:12Z</time>
      </trkpt>
      <trkpt lat="45.50877" lon="6.70461">
        <ele>2014.68</ele>
        <time>2016-03-25T10:44:17Z</time>
      </trkpt>
      <trkpt lat="45.50864" lon="6.70483">
        <ele>2024.28</ele>
        <time>2016-03-25T10:44:23Z</time>
      </trkpt>
      <trkpt lat="45.50852" lon="6.70509">
        <ele>2029.24</ele>
        <time>2016-03-25T10:44:29Z</time>
      </trkpt>
      <trkpt lat="45.50841" lon="6.7053">
        <ele>2035.26</ele>
        <time>2016-03-25T10:44:34Z</time>
      </trkpt>
      <trkpt lat="45.50832" lon="6.70556">
        <ele>2045.14</ele>
        <time>2016-03-25T10:44:41Z</time>
      </trkpt>
      <trkpt lat="45.50824" lon="6.7058">
        <ele>2053.24</ele>
        <time>2016-03-25T10:44:47Z</time>
      </trkpt>
      <trkpt lat="45.50813" lon="6.70604">
        <ele>2055.52</ele>
        <time>2016-03-25T10:44:53Z</time>
      </trkpt>
      <trkpt lat="45.50802" lon="6.70628">
        <ele>2059.44</ele>
        <time>2016-03-25T10:44:59Z</time>
      </trkpt>
      <trkpt lat="45.50791" lon="6.70649">
        <ele>2067.03</ele>
        <time>2016-03-25T10:45:04Z</time>
      </trkpt>
      <trkpt lat="45.50781" lon="6.70671">
        <ele>2069.68</ele>
        <time>2016-03-25T10:45:09Z</time>
      </trkpt>
      <trkpt lat="45.5077" lon="6.70694">
        <ele>2070.28</ele>
        <time>2016-03-25T10:45:15Z</time>
      </trkpt>
      <trkpt lat="45.50758" lon="6.70715">
        <ele>2069.29</ele>
        <time>2016-03-25T10:45:20Z</time>
      </trkpt>
      <trkpt lat="45.50748" lon="6.70737">
        <ele>2073.52</ele>
        <time>2016-03-25T10:45:26Z</time>
      </trkpt>
      <trkpt lat="45.50753" lon="6.7071">
        <ele>2076.53</ele>
        <time>2016-03-25T10:45:55Z</time>
      </trkpt>
      <trkpt lat="45.50735" lon="6.70786">
        <ele>2074.33</ele>
        <time>2016-03-25T10:47:32Z</time>
      </trkpt>
      <trkpt lat="45.50726" lon="6.70813">
        <ele>2097.4</ele>
        <time>2016-03-25T10:47:37Z</time>
      </trkpt>
      <trkpt lat="45.50709" lon="6.70829">
        <ele>2085.69</ele>
        <time>2016-03-25T10:47:40Z</time>
      </trkpt>
      <trkpt lat="45.50697" lon="6.70849">
        <ele>2089.89</ele>
        <time>2016-03-25T10:47:45Z</time>
      </trkpt>
      <trkpt lat="45.50684" lon="6.70873">
        <ele>2094.32</ele>
        <time>2016-03-25T10:47:51Z</time>
      </trkpt>
      <trkpt lat="45.5067" lon="6.709">
        <ele>2096.86</ele>
        <time>2016-03-25T10:47:57Z</time>
      </trkpt>
      <trkpt lat="45.50658" lon="6.70924">
        <ele>2092.61</ele>
        <time>2016-03-25T10:48:03Z</time>
      </trkpt>
      <trkpt lat="45.50649" lon="6.70948">
        <ele>2093.72</ele>
        <time>2016-03-25T10:48:09Z</time>
      </trkpt>
      <trkpt lat="45.50637" lon="6.70969">
        <ele>2095.28</ele>
        <time>2016-03-25T10:48:14Z</time>
      </trkpt>
      <trkpt lat="45.50629" lon="6.70994">
        <ele>2104.84</ele>
        <time>2016-03-25T10:48:21Z</time>
      </trkpt>
      <trkpt lat="45.50617" lon="6.71014">
        <ele>2104.57</ele>
        <time>2016-03-25T10:48:25Z</time>
      </trkpt>
      <trkpt lat="45.50603" lon="6.71034">
        <ele>2103.57</ele>
        <time>2016-03-25T10:48:30Z</time>
      </trkpt>
      <trkpt lat="45.50586" lon="6.71056">
        <ele>2100.75</ele>
        <time>2016-03-25T10:48:35Z</time>
      </trkpt>
      <trkpt lat="45.50571" lon="6.71077">
        <ele>2098.92</ele>
        <time>2016-03-25T10:48:40Z</time>
      </trkpt>
      <trkpt lat="45.50557" lon="6.71097">
        <ele>2099.69</ele>
        <time>2016-03-25T10:48:45Z</time>
      </trkpt>
      <trkpt lat="45.50544" lon="6.71122">
        <ele>2102.12</ele>
        <time>2016-03-25T10:48:51Z</time>
      </trkpt>
      <trkpt lat="45.50534" lon="6.71148">
        <ele>2105.74</ele>
        <time>2016-03-25T10:48:56Z</time>
      </trkpt>
      <trkpt lat="45.50522" lon="6.71171">
        <ele>2114.44</ele>
        <time>2016-03-25T10:49:02Z</time>
      </trkpt>
      <trkpt lat="45.50509" lon="6.7119">
        <ele>2116.33</ele>
        <time>2016-03-25T10:49:07Z</time>
      </trkpt>
      <trkpt lat="45.50499" lon="6.71214">
        <ele>2119.64</ele>
        <time>2016-03-25T10:49:11Z</time>
      </trkpt>
      <trkpt lat="45.50488" lon="6.71233">
        <ele>2119.5</ele>
        <time>2016-03-25T10:49:16Z</time>
      </trkpt>
      <trkpt lat="45.50476" lon="6.71255">
        <ele>2126.85</ele>
        <time>2016-03-25T10:49:22Z</time>
      </trkpt>
      <trkpt lat="45.50466" lon="6.71279">
        <ele>2136.24</ele>
        <time>2016-03-25T10:49:28Z</time>
      </trkpt>
      <trkpt lat="45.50454" lon="6.71301">
        <ele>2147.07</ele>
        <time>2016-03-25T10:49:34Z</time>
      </trkpt>
      <trkpt lat="45.5044" lon="6.71324">
        <ele>2150.45</ele>
        <time>2016-03-25T10:49:39Z</time>
      </trkpt>
      <trkpt lat="45.50427" lon="6.71343">
        <ele>2151.53</ele>
        <time>2016-03-25T10:49:43Z</time>
      </trkpt>
      <trkpt lat="45.50414" lon="6.71364">
        <ele>2155.92</ele>
        <time>2016-03-25T10:49:48Z</time>
      </trkpt>
      <trkpt lat="45.50401" lon="6.71386">
        <ele>2163.32</ele>
        <time>2016-03-25T10:49:53Z</time>
      </trkpt>
      <trkpt lat="45.50388" lon="6.71405">
        <ele>2168.25</ele>
        <time>2016-03-25T10:49:58Z</time>
      </trkpt>
      <trkpt lat="45.50373" lon="6.71425">
        <ele>2172.08</ele>
        <time>2016-03-25T10:50:03Z</time>
      </trkpt>
      <trkpt lat="45.50359" lon="6.71448">
        <ele>2176.65</ele>
        <time>2016-03-25T10:50:08Z</time>
      </trkpt>
      <trkpt lat="45.50348" lon="6.71471">
        <ele>2183.87</ele>
        <time>2016-03-25T10:50:13Z</time>
      </trkpt>
      <trkpt lat="45.50337" lon="6.71496">
        <ele>2197.37</ele>
        <time>2016-03-25T10:50:20Z</time>
      </trkpt>
      <trkpt lat="45.50323" lon="6.71516">
        <ele>2199.49</ele>
        <time>2016-03-25T10:50:25Z</time>
      </trkpt>
      <trkpt lat="45.50314" lon="6.71542">
        <ele>2222.23</ele>
        <time>2016-03-25T10:50:33Z</time>
      </trkpt>
      <trkpt lat="45.50315" lon="6.71568">
        <ele>2248.99</ele>
        <time>2016-03-25T10:50:41Z</time>
      </trkpt>
      <trkpt lat="45.50306" lon="6.71594">
        <ele>2263.27</ele>
        <time>2016-03-25T10:50:50Z</time>
      </trkpt>
      <trkpt lat="45.50298" lon="6.71618">
        <ele>2280.95</ele>
        <time>2016-03-25T10:50:58Z</time>
      </trkpt>
      <trkpt lat="45.50287" lon="6.7164">
        <ele>2285.25</ele>
        <time>2016-03-25T10:51:03Z</time>
      </trkpt>
      <trkpt lat="45.50275" lon="6.7166">
        <ele>2289.61</ele>
        <time>2016-03-25T10:51:08Z</time>
      </trkpt>
      <trkpt lat="45.50264" lon="6.71684">
        <ele>2293.68</ele>
        <time>2016-03-25T10:51:13Z</time>
      </trkpt>
      <trkpt lat="45.50254" lon="6.71707">
        <ele>2298.16</ele>
        <time>2016-03-25T10:51:18Z</time>
      </trkpt>
      <trkpt lat="45.50243" lon="6.71734">
        <ele>2313.48</ele>
        <time>2016-03-25T10:51:25Z</time>
      </trkpt>
      <trkpt lat="45.50233" lon="6.71758">
        <ele>2317.48</ele>
        <time>2016-03-25T10:51:30Z</time>
      </trkpt>
      <trkpt lat="45.50221" lon="6.71782">
        <ele>2326.92</ele>
        <time>2016-03-25T10:51:36Z</time>
      </trkpt>
      <trkpt lat="45.50207" lon="6.71805">
        <ele>2338.24</ele>
        <time>2016-03-25T10:51:42Z</time>
      </trkpt>
      <trkpt lat="45.50197" lon="6.71829">
        <ele>2345.87</ele>
        <time>2016-03-25T10:51:48Z</time>
      </trkpt>
      <trkpt lat="45.50184" lon="6.7185">
        <ele>2362.26</ele>
        <time>2016-03-25T10:51:55Z</time>
      </trkpt>
      <trkpt lat="45.50173" lon="6.7187">
        <ele>2373.02</ele>
        <time>2016-03-25T10:52:00Z</time>
      </trkpt>
      <trkpt lat="45.5016" lon="6.7189">
        <ele>2381.27</ele>
        <time>2016-03-25T10:52:05Z</time>
      </trkpt>
      <trkpt lat="45.50148" lon="6.71915">
        <ele>2395.28</ele>
        <time>2016-03-25T10:52:12Z</time>
      </trkpt>
      <trkpt lat="45.50135" lon="6.71934">
        <ele>2401.29</ele>
        <time>2016-03-25T10:52:17Z</time>
      </trkpt>
      <trkpt lat="45.50124" lon="6.71956">
        <ele>2412.07</ele>
        <time>2016-03-25T10:52:23Z</time>
      </trkpt>
      <trkpt lat="45.50117" lon="6.71983">
        <ele>2437.71</ele>
        <time>2016-03-25T10:52:31Z</time>
      </trkpt>
      <trkpt lat="45.50103" lon="6.72005">
        <ele>2450.22</ele>
        <time>2016-03-25T10:52:37Z</time>
      </trkpt>
      <trkpt lat="45.50091" lon="6.72026">
        <ele>2459.36</ele>
        <time>2016-03-25T10:52:44Z</time>
      </trkpt>
      <trkpt lat="45.50082" lon="6.7205">
        <ele>2470.28</ele>
        <time>2016-03-25T10:52:51Z</time>
      </trkpt>
      <trkpt lat="45.50069" lon="6.72072">
        <ele>2488.31</ele>
        <time>2016-03-25T10:52:59Z</time>
      </trkpt>
      <trkpt lat="45.50062" lon="6.72099">
        <ele>2492.49</ele>
        <time>2016-03-25T10:53:06Z</time>
      </trkpt>
      <trkpt lat="45.50051" lon="6.72123">
        <ele>2490.73</ele>
        <time>2016-03-25T10:53:12Z</time>
      </trkpt>
      <trkpt lat="45.50038" lon="6.72144">
        <ele>2487.58</ele>
        <time>2016-03-25T10:53:17Z</time>
      </trkpt>
      <trkpt lat="45.50028" lon="6.72168">
        <ele>2486.54</ele>
        <time>2016-03-25T10:53:23Z</time>
      </trkpt>
      <trkpt lat="45.50017" lon="6.72194">
        <ele>2485.48</ele>
        <time>2016-03-25T10:53:29Z</time>
      </trkpt>
      <trkpt lat="45.50006" lon="6.72219">
        <ele>2483.69</ele>
        <time>2016-03-25T10:53:35Z</time>
      </trkpt>
      <trkpt lat="45.49996" lon="6.72246">
        <ele>2484.5</ele>
        <time>2016-03-25T10:53:41Z</time>
      </trkpt>
      <trkpt lat="45.49984" lon="6.72271">
        <ele>2482.54</ele>
        <time>2016-03-25T10:53:47Z</time>
      </trkpt>
      <trkpt lat="45.49973" lon="6.72294">
        <ele>2484.82</ele>
        <time>2016-03-25T10:53:52Z</time>
      </trkpt>
      <trkpt lat="45.4996" lon="6.72319">
        <ele>2485.53</ele>
        <time>2016-03-25T10:53:58Z</time>
      </trkpt>
      <trkpt lat="45.49948" lon="6.72344">
        <ele>2487.33</ele>
        <time>2016-03-25T10:54:04Z</time>
      </trkpt>
      <trkpt lat="45.49936" lon="6.72367">
        <ele>2488.5</ele>
        <time>2016-03-25T10:54:09Z</time>
      </trkpt>
      <trkpt lat="45.49923" lon="6.72392">
        <ele>2490.52</ele>
        <time>2016-03-25T10:54:15Z</time>
      </trkpt>
      <trkpt lat="45.49912" lon="6.72415">
        <ele>2490.34</ele>
        <time>2016-03-25T10:54:21Z</time>
      </trkpt>
      <trkpt lat="45.49898" lon="6.72435">
        <ele>2488.5</ele>
        <time>2016-03-25T10:54:26Z</time>
      </trkpt>
      <trkpt lat="45.49886" lon="6.72459">
        <ele>2495.24</ele>
        <time>2016-03-25T10:54:32Z</time>
      </trkpt>
      <trkpt lat="45.49868" lon="6.72479">
        <ele>2497.88</ele>
        <time>2016-03-25T10:54:37Z</time>
      </trkpt>
      <trkpt lat="45.49857" lon="6.72505">
        <ele>2504.3</ele>
        <time>2016-03-25T10:54:44Z</time>
      </trkpt>
      <trkpt lat="45.49847" lon="6.72526">
        <ele>2506.72</ele>
        <time>2016-03-25T10:54:49Z</time>
      </trkpt>
      <trkpt lat="45.49837" lon="6.72555">
        <ele>2507.73</ele>
        <time>2016-03-25T10:54:55Z</time>
      </trkpt>
      <trkpt lat="45.49824" lon="6.72579">
        <ele>2512.56</ele>
        <time>2016-03-25T10:55:00Z</time>
      </trkpt>
      <trkpt lat="45.49813" lon="6.726">
        <ele>2517.4</ele>
        <time>2016-03-25T10:55:05Z</time>
      </trkpt>
      <trkpt lat="45.49799" lon="6.72622">
        <ele>2522.32</ele>
        <time>2016-03-25T10:55:11Z</time>
      </trkpt>
      <trkpt lat="45.49787" lon="6.72642">
        <ele>2526.13</ele>
        <time>2016-03-25T10:55:16Z</time>
      </trkpt>
      <trkpt lat="45.49774" lon="6.72665">
        <ele>2532.29</ele>
        <time>2016-03-25T10:55:22Z</time>
      </trkpt>
      <trkpt lat="45.49761" lon="6.72687">
        <ele>2539.05</ele>
        <time>2016-03-25T10:55:28Z</time>
      </trkpt>
      <trkpt lat="45.49752" lon="6.72709">
        <ele>2551.16</ele>
        <time>2016-03-25T10:55:34Z</time>
      </trkpt>
      <trkpt lat="45.49744" lon="6.72735">
        <ele>2561.73</ele>
        <time>2016-03-25T10:55:40Z</time>
      </trkpt>
      <trkpt lat="45.49733" lon="6.72757">
        <ele>2569.27</ele>
        <time>2016-03-25T10:55:46Z</time>
      </trkpt>
      <trkpt lat="45.49725" lon="6.72786">
        <ele>2581.15</ele>
        <time>2016-03-25T10:55:52Z</time>
      </trkpt>
      <trkpt lat="45.49714" lon="6.72807">
        <ele>2581.29</ele>
        <time>2016-03-25T10:55:57Z</time>
      </trkpt>
      <trkpt lat="45.49703" lon="6.7283">
        <ele>2584.48</ele>
        <time>2016-03-25T10:56:02Z</time>
      </trkpt>
      <trkpt lat="45.4969" lon="6.72854">
        <ele>2586.17</ele>
        <time>2016-03-25T10:56:08Z</time>
      </trkpt>
      <trkpt lat="45.49678" lon="6.72878">
        <ele>2595.19</ele>
        <time>2016-03-25T10:56:14Z</time>
      </trkpt>
      <trkpt lat="45.4967" lon="6.72904">
        <ele>2597.38</ele>
        <time>2016-03-25T10:56:21Z</time>
      </trkpt>
      <trkpt lat="45.49659" lon="6.72926">
        <ele>2598.98</ele>
        <time>2016-03-25T10:56:26Z</time>
      </trkpt>
      <trkpt lat="45.49649" lon="6.7295">
        <ele>2599.57</ele>
        <time>2016-03-25T10:56:32Z</time>
      </trkpt>
      <trkpt lat="45.49638" lon="6.72975">
        <ele>2601.32</ele>
        <time>2016-03-25T10:56:38Z</time>
      </trkpt>
      <trkpt lat="45.49626" lon="6.72997">
        <ele>2599.58</ele>
        <time>2016-03-25T10:56:43Z</time>
      </trkpt>
      <trkpt lat="45.49617" lon="6.73021">
        <ele>2599.54</ele>
        <time>2016-03-25T10:56:49Z</time>
      </trkpt>
      <trkpt lat="45.49608" lon="6.73047">
        <ele>2598.34</ele>
        <time>2016-03-25T10:56:55Z</time>
      </trkpt>
      <trkpt lat="45.49595" lon="6.73068">
        <ele>2596.37</ele>
        <time>2016-03-25T10:57:00Z</time>
      </trkpt>
      <trkpt lat="45.49585" lon="6.73095">
        <ele>2595.74</ele>
        <time>2016-03-25T10:57:06Z</time>
      </trkpt>
      <trkpt lat="45.49574" lon="6.73117">
        <ele>2595.73</ele>
        <time>2016-03-25T10:57:11Z</time>
      </trkpt>
      <trkpt lat="45.49561" lon="6.73142">
        <ele>2595.66</ele>
        <time>2016-03-25T10:57:17Z</time>
      </trkpt>
      <trkpt lat="45.49549" lon="6.73167">
        <ele>2599.48</ele>
        <time>2016-03-25T10:57:23Z</time>
      </trkpt>
      <trkpt lat="45.49536" lon="6.73189">
        <ele>2602.45</ele>
        <time>2016-03-25T10:57:28Z</time>
      </trkpt>
      <trkpt lat="45.49523" lon="6.73207">
        <ele>2605.29</ele>
        <time>2016-03-25T10:57:33Z</time>
      </trkpt>
      <trkpt lat="45.4951" lon="6.73228">
        <ele>2612.24</ele>
        <time>2016-03-25T10:57:38Z</time>
      </trkpt>
      <trkpt lat="45.49504" lon="6.73251">
        <ele>2628.4</ele>
        <time>2016-03-25T10:57:44Z</time>
      </trkpt>
      <trkpt lat="45.49493" lon="6.73274">
        <ele>2638.31</ele>
        <time>2016-03-25T10:57:50Z</time>
      </trkpt>
      <trkpt lat="45.49477" lon="6.73296">
        <ele>2640.49</ele>
        <time>2016-03-25T10:57:55Z</time>
      </trkpt>
      <trkpt lat="45.49465" lon="6.73316">
        <ele>2646.01</ele>
        <time>2016-03-25T10:58:00Z</time>
      </trkpt>
      <trkpt lat="45.49455" lon="6.73341">
        <ele>2653.23</ele>
        <time>2016-03-25T10:58:06Z</time>
      </trkpt>
      <trkpt lat="45.49443" lon="6.73363">
        <ele>2664</ele>
        <time>2016-03-25T10:58:12Z</time>
      </trkpt>
      <trkpt lat="45.4943" lon="6.73383">
        <ele>2670.28</ele>
        <time>2016-03-25T10:58:17Z</time>
      </trkpt>
      <trkpt lat="45.49423" lon="6.73407">
        <ele>2689.86</ele>
        <time>2016-03-25T10:58:24Z</time>
      </trkpt>
      <trkpt lat="45.49411" lon="6.73432">
        <ele>2698.04</ele>
        <time>2016-03-25T10:58:30Z</time>
      </trkpt>
      <trkpt lat="45.49402" lon="6.73457">
        <ele>2701.68</ele>
        <time>2016-03-25T10:58:36Z</time>
      </trkpt>
      <trkpt lat="45.49391" lon="6.73478">
        <ele>2706.36</ele>
        <time>2016-03-25T10:58:42Z</time>
      </trkpt>
      <trkpt lat="45.49376" lon="6.73498">
        <ele>2707.33</ele>
        <time>2016-03-25T10:58:48Z</time>
      </trkpt>
      <trkpt lat="45.49368" lon="6.73524">
        <ele>2709.84</ele>
        <time>2016-03-25T10:58:54Z</time>
      </trkpt>
      <trkpt lat="45.49354" lon="6.73542">
        <ele>2707.54</ele>
        <time>2016-03-25T10:59:00Z</time>
      </trkpt>
      <trkpt lat="45.49364" lon="6.73563">
        <ele>2714.53</ele>
        <time>2016-03-25T10:59:51Z</time>
      </trkpt>
      <trkpt lat="45.49375" lon="6.73537">
        <ele>2710.74</ele>
        <time>2016-03-25T11:00:58Z</time>
      </trkpt>
      <trkpt lat="45.49389" lon="6.7352">
        <ele>2710.72</ele>
        <time>2016-03-25T11:01:02Z</time>
      </trkpt>
      <trkpt lat="45.49404" lon="6.73505">
        <ele>2709.73</ele>
        <time>2016-03-25T11:01:07Z</time>
      </trkpt>
      <trkpt lat="45.49421" lon="6.73493">
        <ele>2708.54</ele>
        <time>2016-03-25T11:01:12Z</time>
      </trkpt>
      <trkpt lat="45.49435" lon="6.73478">
        <ele>2709.57</ele>
        <time>2016-03-25T11:01:18Z</time>
      </trkpt>
      <trkpt lat="45.49451" lon="6.7346">
        <ele>2709.54</ele>
        <time>2016-03-25T11:01:23Z</time>
      </trkpt>
      <trkpt lat="45.49466" lon="6.73433">
        <ele>2708.53</ele>
        <time>2016-03-25T11:01:27Z</time>
      </trkpt>
      <trkpt lat="45.49477" lon="6.73412">
        <ele>2708.53</ele>
        <time>2016-03-25T11:01:30Z</time>
      </trkpt>
      <trkpt lat="45.49491" lon="6.73391">
        <ele>2702.26</ele>
        <time>2016-03-25T11:01:35Z</time>
      </trkpt>
      <trkpt lat="45.49508" lon="6.73381">
        <ele>2699.58</ele>
        <time>2016-03-25T11:01:38Z</time>
      </trkpt>
      <trkpt lat="45.49529" lon="6.73373">
        <ele>2697.74</ele>
        <time>2016-03-25T11:01:41Z</time>
      </trkpt>
      <trkpt lat="45.49548" lon="6.73365">
        <ele>2694.78</ele>
        <time>2016-03-25T11:01:44Z</time>
      </trkpt>
      <trkpt lat="45.49568" lon="6.73365">
        <ele>2690.98</ele>
        <time>2016-03-25T11:01:47Z</time>
      </trkpt>
      <trkpt lat="45.49588" lon="6.7336">
        <ele>2685.99</ele>
        <time>2016-03-25T11:01:50Z</time>
      </trkpt>
      <trkpt lat="45.4961" lon="6.73359">
        <ele>2681.82</ele>
        <time>2016-03-25T11:01:53Z</time>
      </trkpt>
      <trkpt lat="45.49634" lon="6.73349">
        <ele>2676.99</ele>
        <time>2016-03-25T11:01:56Z</time>
      </trkpt>
      <trkpt lat="45.49651" lon="6.73338">
        <ele>2674.13</ele>
        <time>2016-03-25T11:01:59Z</time>
      </trkpt>
      <trkpt lat="45.49669" lon="6.73318">
        <ele>2668.8</ele>
        <time>2016-03-25T11:02:02Z</time>
      </trkpt>
      <trkpt lat="45.49684" lon="6.73289">
        <ele>2667.33</ele>
        <time>2016-03-25T11:02:06Z</time>
      </trkpt>
      <trkpt lat="45.49693" lon="6.73264">
        <ele>2664.78</ele>
        <time>2016-03-25T11:02:09Z</time>
      </trkpt>
      <trkpt lat="45.497" lon="6.73231">
        <ele>2664.47</ele>
        <time>2016-03-25T11:02:13Z</time>
      </trkpt>
      <trkpt lat="45.49709" lon="6.73204">
        <ele>2662.58</ele>
        <time>2016-03-25T11:02:16Z</time>
      </trkpt>
      <trkpt lat="45.49713" lon="6.73174">
        <ele>2659.78</ele>
        <time>2016-03-25T11:02:19Z</time>
      </trkpt>
      <trkpt lat="45.49713" lon="6.73146">
        <ele>2658.57</ele>
        <time>2016-03-25T11:02:22Z</time>
      </trkpt>
      <trkpt lat="45.49713" lon="6.73118">
        <ele>2653.03</ele>
        <time>2016-03-25T11:02:25Z</time>
      </trkpt>
      <trkpt lat="45.4972" lon="6.73093">
        <ele>2650.61</ele>
        <time>2016-03-25T11:02:28Z</time>
      </trkpt>
      <trkpt lat="45.49721" lon="6.7306">
        <ele>2646.98</ele>
        <time>2016-03-25T11:02:31Z</time>
      </trkpt>
      <trkpt lat="45.49721" lon="6.73035">
        <ele>2645.75</ele>
        <time>2016-03-25T11:02:33Z</time>
      </trkpt>
      <trkpt lat="45.49719" lon="6.73006">
        <ele>2643.78</ele>
        <time>2016-03-25T11:02:35Z</time>
      </trkpt>
      <trkpt lat="45.49714" lon="6.7298">
        <ele>2640.98</ele>
        <time>2016-03-25T11:02:37Z</time>
      </trkpt>
      <trkpt lat="45.49709" lon="6.72954">
        <ele>2638.63</ele>
        <time>2016-03-25T11:02:39Z</time>
      </trkpt>
      <trkpt lat="45.49701" lon="6.72918">
        <ele>2637.57</ele>
        <time>2016-03-25T11:02:42Z</time>
      </trkpt>
      <trkpt lat="45.49685" lon="6.72896">
        <ele>2633.21</ele>
        <time>2016-03-25T11:02:45Z</time>
      </trkpt>
      <trkpt lat="45.49669" lon="6.72884">
        <ele>2625.98</ele>
        <time>2016-03-25T11:02:48Z</time>
      </trkpt>
      <trkpt lat="45.49659" lon="6.72861">
        <ele>2623.57</ele>
        <time>2016-03-25T11:02:52Z</time>
      </trkpt>
      <trkpt lat="45.49664" lon="6.7283">
        <ele>2611.97</ele>
        <time>2016-03-25T11:03:29Z</time>
      </trkpt>
      <trkpt lat="45.49673" lon="6.72807">
        <ele>2610.73</ele>
        <time>2016-03-25T11:03:32Z</time>
      </trkpt>
      <trkpt lat="45.49682" lon="6.72782">
        <ele>2608.74</ele>
        <time>2016-03-25T11:03:35Z</time>
      </trkpt>
      <trkpt lat="45.49695" lon="6.72756">
        <ele>2602.93</ele>
        <time>2016-03-25T11:03:38Z</time>
      </trkpt>
      <trkpt lat="45.49713" lon="6.72735">
        <ele>2598.98</ele>
        <time>2016-03-25T11:03:41Z</time>
      </trkpt>
      <trkpt lat="45.4973" lon="6.72719">
        <ele>2595.78</ele>
        <time>2016-03-25T11:03:44Z</time>
      </trkpt>
      <trkpt lat="45.49742" lon="6.72695">
        <ele>2593.74</ele>
        <time>2016-03-25T11:03:47Z</time>
      </trkpt>
      <trkpt lat="45.49744" lon="6.7267">
        <ele>2590.78</ele>
        <time>2016-03-25T11:03:50Z</time>
      </trkpt>
      <trkpt lat="45.49737" lon="6.72641">
        <ele>2584.63</ele>
        <time>2016-03-25T11:03:54Z</time>
      </trkpt>
      <trkpt lat="45.4974" lon="6.72615">
        <ele>2580.98</ele>
        <time>2016-03-25T11:03:57Z</time>
      </trkpt>
      <trkpt lat="45.49723" lon="6.72595">
        <ele>2575.77</ele>
        <time>2016-03-25T11:04:00Z</time>
      </trkpt>
      <trkpt lat="45.4972" lon="6.72565">
        <ele>2570.8</ele>
        <time>2016-03-25T11:04:03Z</time>
      </trkpt>
      <trkpt lat="45.49718" lon="6.72532">
        <ele>2566.77</ele>
        <time>2016-03-25T11:04:07Z</time>
      </trkpt>
      <trkpt lat="45.49713" lon="6.72507">
        <ele>2558.05</ele>
        <time>2016-03-25T11:04:10Z</time>
      </trkpt>
      <trkpt lat="45.49708" lon="6.72475">
        <ele>2552</ele>
        <time>2016-03-25T11:04:13Z</time>
      </trkpt>
      <trkpt lat="45.49702" lon="6.72438">
        <ele>2545.01</ele>
        <time>2016-03-25T11:04:16Z</time>
      </trkpt>
      <trkpt lat="45.49702" lon="6.72405">
        <ele>2537.11</ele>
        <time>2016-03-25T11:04:19Z</time>
      </trkpt>
      <trkpt lat="45.49702" lon="6.72373">
        <ele>2532.98</ele>
        <time>2016-03-25T11:04:22Z</time>
      </trkpt>
      <trkpt lat="45.49702" lon="6.72342">
        <ele>2531.37</ele>
        <time>2016-03-25T11:04:26Z</time>
      </trkpt>
      <trkpt lat="45.49697" lon="6.72316">
        <ele>2524.86</ele>
        <time>2016-03-25T11:04:30Z</time>
      </trkpt>
      <trkpt lat="45.49692" lon="6.72284">
        <ele>2520.74</ele>
        <time>2016-03-25T11:04:34Z</time>
      </trkpt>
      <trkpt lat="45.49679" lon="6.72264">
        <ele>2516.82</ele>
        <time>2016-03-25T11:04:37Z</time>
      </trkpt>
      <trkpt lat="45.4967" lon="6.72239">
        <ele>2513.98</ele>
        <time>2016-03-25T11:04:39Z</time>
      </trkpt>
      <trkpt lat="45.49655" lon="6.72207">
        <ele>2510.59</ele>
        <time>2016-03-25T11:04:42Z</time>
      </trkpt>
      <trkpt lat="45.49642" lon="6.72179">
        <ele>2510.53</ele>
        <time>2016-03-25T11:04:44Z</time>
      </trkpt>
      <trkpt lat="45.49621" lon="6.72156">
        <ele>2495.84</ele>
        <time>2016-03-25T11:04:48Z</time>
      </trkpt>
      <trkpt lat="45.49604" lon="6.72127">
        <ele>2493.74</ele>
        <time>2016-03-25T11:04:51Z</time>
      </trkpt>
      <trkpt lat="45.49591" lon="6.72105">
        <ele>2493.54</ele>
        <time>2016-03-25T11:04:53Z</time>
      </trkpt>
      <trkpt lat="45.49579" lon="6.72079">
        <ele>2485.01</ele>
        <time>2016-03-25T11:04:57Z</time>
      </trkpt>
      <trkpt lat="45.49571" lon="6.72054">
        <ele>2481.81</ele>
        <time>2016-03-25T11:05:00Z</time>
      </trkpt>
      <trkpt lat="45.49565" lon="6.72025">
        <ele>2479.93</ele>
        <time>2016-03-25T11:05:03Z</time>
      </trkpt>
      <trkpt lat="45.49568" lon="6.71995">
        <ele>2477.73</ele>
        <time>2016-03-25T11:05:08Z</time>
      </trkpt>
      <trkpt lat="45.49572" lon="6.71967">
        <ele>2474.78</ele>
        <time>2016-03-25T11:05:12Z</time>
      </trkpt>
      <trkpt lat="45.49579" lon="6.71943">
        <ele>2472.93</ele>
        <time>2016-03-25T11:05:15Z</time>
      </trkpt>
      <trkpt lat="45.49589" lon="6.71919">
        <ele>2468.79</ele>
        <time>2016-03-25T11:05:18Z</time>
      </trkpt>
      <trkpt lat="45.49596" lon="6.71887">
        <ele>2467.58</ele>
        <time>2016-03-25T11:05:22Z</time>
      </trkpt>
      <trkpt lat="45.49598" lon="6.71854">
        <ele>2460.03</ele>
        <time>2016-03-25T11:05:26Z</time>
      </trkpt>
      <trkpt lat="45.49597" lon="6.71828">
        <ele>2456.78</ele>
        <time>2016-03-25T11:05:29Z</time>
      </trkpt>
      <trkpt lat="45.4959" lon="6.71801">
        <ele>2453.98</ele>
        <time>2016-03-25T11:05:31Z</time>
      </trkpt>
      <trkpt lat="45.49582" lon="6.71773">
        <ele>2452.59</ele>
        <time>2016-03-25T11:05:33Z</time>
      </trkpt>
      <trkpt lat="45.49569" lon="6.71746">
        <ele>2447.86</ele>
        <time>2016-03-25T11:05:36Z</time>
      </trkpt>
      <trkpt lat="45.49551" lon="6.71722">
        <ele>2442.03</ele>
        <time>2016-03-25T11:05:39Z</time>
      </trkpt>
      <trkpt lat="45.49538" lon="6.717">
        <ele>2438.83</ele>
        <time>2016-03-25T11:05:41Z</time>
      </trkpt>
      <trkpt lat="45.49525" lon="6.71675">
        <ele>2434.05</ele>
        <time>2016-03-25T11:05:44Z</time>
      </trkpt>
      <trkpt lat="45.49515" lon="6.71645">
        <ele>2431.62</ele>
        <time>2016-03-25T11:05:47Z</time>
      </trkpt>
      <trkpt lat="45.49502" lon="6.71617">
        <ele>2427.03</ele>
        <time>2016-03-25T11:05:51Z</time>
      </trkpt>
      <trkpt lat="45.49493" lon="6.71593">
        <ele>2416.42</ele>
        <time>2016-03-25T11:05:56Z</time>
      </trkpt>
      <trkpt lat="45.49486" lon="6.71567">
        <ele>2411.8</ele>
        <time>2016-03-25T11:06:26Z</time>
      </trkpt>
      <trkpt lat="45.49497" lon="6.71545">
        <ele>2411.36</ele>
        <time>2016-03-25T11:06:30Z</time>
      </trkpt>
      <trkpt lat="45.49504" lon="6.71515">
        <ele>2393.04</ele>
        <time>2016-03-25T11:06:37Z</time>
      </trkpt>
      <trkpt lat="45.49515" lon="6.7149">
        <ele>2388.37</ele>
        <time>2016-03-25T11:06:41Z</time>
      </trkpt>
      <trkpt lat="45.49512" lon="6.7146">
        <ele>2380.97</ele>
        <time>2016-03-25T11:06:46Z</time>
      </trkpt>
      <trkpt lat="45.49504" lon="6.71434">
        <ele>2377.78</ele>
        <time>2016-03-25T11:06:49Z</time>
      </trkpt>
      <trkpt lat="45.49505" lon="6.71402">
        <ele>2369.15</ele>
        <time>2016-03-25T11:06:52Z</time>
      </trkpt>
      <trkpt lat="45.4951" lon="6.71361">
        <ele>2365.59</ele>
        <time>2016-03-25T11:06:55Z</time>
      </trkpt>
      <trkpt lat="45.49514" lon="6.71334">
        <ele>2364.74</ele>
        <time>2016-03-25T11:06:56Z</time>
      </trkpt>
      <trkpt lat="45.49524" lon="6.71306">
        <ele>2363.77</ele>
        <time>2016-03-25T11:06:57Z</time>
      </trkpt>
      <trkpt lat="45.4954" lon="6.71264">
        <ele>2359.22</ele>
        <time>2016-03-25T11:06:59Z</time>
      </trkpt>
      <trkpt lat="45.49559" lon="6.71251">
        <ele>2351.52</ele>
        <time>2016-03-25T11:07:01Z</time>
      </trkpt>
      <trkpt lat="45.49587" lon="6.71234">
        <ele>2345.19</ele>
        <time>2016-03-25T11:07:04Z</time>
      </trkpt>
      <trkpt lat="45.49605" lon="6.71222">
        <ele>2339.6</ele>
        <time>2016-03-25T11:07:06Z</time>
      </trkpt>
      <trkpt lat="45.49619" lon="6.71206">
        <ele>2336.65</ele>
        <time>2016-03-25T11:07:08Z</time>
      </trkpt>
      <trkpt lat="45.49624" lon="6.71181">
        <ele>2334.58</ele>
        <time>2016-03-25T11:07:11Z</time>
      </trkpt>
      <trkpt lat="45.49634" lon="6.71159">
        <ele>2312.01</ele>
        <time>2016-03-25T11:07:30Z</time>
      </trkpt>
      <trkpt lat="45.49647" lon="6.71131">
        <ele>2309.61</ele>
        <time>2016-03-25T11:07:33Z</time>
      </trkpt>
      <trkpt lat="45.49662" lon="6.71108">
        <ele>2304.06</ele>
        <time>2016-03-25T11:07:36Z</time>
      </trkpt>
      <trkpt lat="45.49679" lon="6.71083">
        <ele>2300.78</ele>
        <time>2016-03-25T11:07:39Z</time>
      </trkpt>
      <trkpt lat="45.49697" lon="6.71065">
        <ele>2297.82</ele>
        <time>2016-03-25T11:07:41Z</time>
      </trkpt>
      <trkpt lat="45.49718" lon="6.71038">
        <ele>2291.1</ele>
        <time>2016-03-25T11:07:44Z</time>
      </trkpt>
      <trkpt lat="45.49736" lon="6.71012">
        <ele>2284.2</ele>
        <time>2016-03-25T11:07:47Z</time>
      </trkpt>
      <trkpt lat="45.49751" lon="6.7099">
        <ele>2272.24</ele>
        <time>2016-03-25T11:07:50Z</time>
      </trkpt>
      <trkpt lat="45.4977" lon="6.70969">
        <ele>2269</ele>
        <time>2016-03-25T11:07:52Z</time>
      </trkpt>
      <trkpt lat="45.49774" lon="6.70937">
        <ele>2254.58</ele>
        <time>2016-03-25T11:07:55Z</time>
      </trkpt>
      <trkpt lat="45.49785" lon="6.70915">
        <ele>2251.81</ele>
        <time>2016-03-25T11:07:57Z</time>
      </trkpt>
      <trkpt lat="45.49803" lon="6.7091">
        <ele>2247.79</ele>
        <time>2016-03-25T11:08:00Z</time>
      </trkpt>
      <trkpt lat="45.49807" lon="6.70883">
        <ele>2237.95</ele>
        <time>2016-03-25T11:08:27Z</time>
      </trkpt>
      <trkpt lat="45.49825" lon="6.7087">
        <ele>2226.05</ele>
        <time>2016-03-25T11:08:32Z</time>
      </trkpt>
      <trkpt lat="45.49845" lon="6.70862">
        <ele>2221.97</ele>
        <time>2016-03-25T11:08:36Z</time>
      </trkpt>
      <trkpt lat="45.49864" lon="6.70853">
        <ele>2218.03</ele>
        <time>2016-03-25T11:08:38Z</time>
      </trkpt>
      <trkpt lat="45.49883" lon="6.70841">
        <ele>2212.27</ele>
        <time>2016-03-25T11:08:40Z</time>
      </trkpt>
      <trkpt lat="45.49904" lon="6.70831">
        <ele>2207.24</ele>
        <time>2016-03-25T11:08:42Z</time>
      </trkpt>
      <trkpt lat="45.49926" lon="6.70826">
        <ele>2203.84</ele>
        <time>2016-03-25T11:08:44Z</time>
      </trkpt>
      <trkpt lat="45.49946" lon="6.70828">
        <ele>2200.82</ele>
        <time>2016-03-25T11:08:46Z</time>
      </trkpt>
      <trkpt lat="45.49969" lon="6.70831">
        <ele>2197.82</ele>
        <time>2016-03-25T11:08:48Z</time>
      </trkpt>
      <trkpt lat="45.4999" lon="6.70834">
        <ele>2195.78</ele>
        <time>2016-03-25T11:08:50Z</time>
      </trkpt>
      <trkpt lat="45.5001" lon="6.70837">
        <ele>2193.78</ele>
        <time>2016-03-25T11:08:52Z</time>
      </trkpt>
      <trkpt lat="45.50033" lon="6.70837">
        <ele>2189.95</ele>
        <time>2016-03-25T11:08:55Z</time>
      </trkpt>
      <trkpt lat="45.50054" lon="6.70839">
        <ele>2187.77</ele>
        <time>2016-03-25T11:08:58Z</time>
      </trkpt>
      <trkpt lat="45.50073" lon="6.70837">
        <ele>2182.19</ele>
        <time>2016-03-25T11:09:01Z</time>
      </trkpt>
      <trkpt lat="45.50095" lon="6.70831">
        <ele>2176.99</ele>
        <time>2016-03-25T11:09:04Z</time>
      </trkpt>
      <trkpt lat="45.50119" lon="6.70825">
        <ele>2173.81</ele>
        <time>2016-03-25T11:09:07Z</time>
      </trkpt>
      <trkpt lat="45.5014" lon="6.70829">
        <ele>2170.78</ele>
        <time>2016-03-25T11:09:10Z</time>
      </trkpt>
      <trkpt lat="45.50162" lon="6.70827">
        <ele>2167.78</ele>
        <time>2016-03-25T11:09:13Z</time>
      </trkpt>
      <trkpt lat="45.50186" lon="6.70832">
        <ele>2162.02</ele>
        <time>2016-03-25T11:09:17Z</time>
      </trkpt>
      <trkpt lat="45.50206" lon="6.70837">
        <ele>2157.82</ele>
        <time>2016-03-25T11:09:20Z</time>
      </trkpt>
      <trkpt lat="45.50226" lon="6.70835">
        <ele>2153.95</ele>
        <time>2016-03-25T11:09:24Z</time>
      </trkpt>
      <trkpt lat="45.50244" lon="6.70829">
        <ele>2149.75</ele>
        <time>2016-03-25T11:09:28Z</time>
      </trkpt>
      <trkpt lat="45.50264" lon="6.70814">
        <ele>2143.95</ele>
        <time>2016-03-25T11:09:33Z</time>
      </trkpt>
      <trkpt lat="45.50285" lon="6.70802">
        <ele>2140.81</ele>
        <time>2016-03-25T11:09:36Z</time>
      </trkpt>
      <trkpt lat="45.50303" lon="6.70796">
        <ele>2139.74</ele>
        <time>2016-03-25T11:09:38Z</time>
      </trkpt>
      <trkpt lat="45.50331" lon="6.70798">
        <ele>2136.59</ele>
        <time>2016-03-25T11:09:41Z</time>
      </trkpt>
      <trkpt lat="45.50353" lon="6.70803">
        <ele>2130.13</ele>
        <time>2016-03-25T11:09:44Z</time>
      </trkpt>
      <trkpt lat="45.50378" lon="6.70806">
        <ele>2127.79</ele>
        <time>2016-03-25T11:09:46Z</time>
      </trkpt>
      <trkpt lat="45.50398" lon="6.70813">
        <ele>2125.14</ele>
        <time>2016-03-25T11:09:48Z</time>
      </trkpt>
      <trkpt lat="45.50418" lon="6.70815">
        <ele>2122.16</ele>
        <time>2016-03-25T11:09:50Z</time>
      </trkpt>
      <trkpt lat="45.50439" lon="6.70821">
        <ele>2116.44</ele>
        <time>2016-03-25T11:09:52Z</time>
      </trkpt>
      <trkpt lat="45.50464" lon="6.70827">
        <ele>2114.61</ele>
        <time>2016-03-25T11:09:54Z</time>
      </trkpt>
      <trkpt lat="45.50487" lon="6.70832">
        <ele>2112.61</ele>
        <time>2016-03-25T11:09:56Z</time>
      </trkpt>
      <trkpt lat="45.50513" lon="6.70836">
        <ele>2108.98</ele>
        <time>2016-03-25T11:09:59Z</time>
      </trkpt>
      <trkpt lat="45.50539" lon="6.70837">
        <ele>2105.78</ele>
        <time>2016-03-25T11:10:02Z</time>
      </trkpt>
      <trkpt lat="45.50561" lon="6.70838">
        <ele>2099.87</ele>
        <time>2016-03-25T11:10:05Z</time>
      </trkpt>
      <trkpt lat="45.50579" lon="6.70837">
        <ele>2095.79</ele>
        <time>2016-03-25T11:10:08Z</time>
      </trkpt>
      <trkpt lat="45.50599" lon="6.70825">
        <ele>2092.74</ele>
        <time>2016-03-25T11:10:13Z</time>
      </trkpt>
      <trkpt lat="45.50608" lon="6.70796">
        <ele>2088.65</ele>
        <time>2016-03-25T11:10:17Z</time>
      </trkpt>
      <trkpt lat="45.50607" lon="6.70768">
        <ele>2087.89</ele>
        <time>2016-03-25T11:10:20Z</time>
      </trkpt>
      <trkpt lat="45.50602" lon="6.70736">
        <ele>2084.17</ele>
        <time>2016-03-25T11:10:23Z</time>
      </trkpt>
      <trkpt lat="45.50594" lon="6.70711">
        <ele>2081.58</ele>
        <time>2016-03-25T11:10:26Z</time>
      </trkpt>
      <trkpt lat="45.50599" lon="6.70674">
        <ele>2074.87</ele>
        <time>2016-03-25T11:10:30Z</time>
      </trkpt>
      <trkpt lat="45.5061" lon="6.70641">
        <ele>2074.98</ele>
        <time>2016-03-25T11:10:33Z</time>
      </trkpt>
      <trkpt lat="45.5062" lon="6.70618">
        <ele>2074.55</ele>
        <time>2016-03-25T11:10:35Z</time>
      </trkpt>
      <trkpt lat="45.50634" lon="6.70586">
        <ele>2071.78</ele>
        <time>2016-03-25T11:10:38Z</time>
      </trkpt>
      <trkpt lat="45.50651" lon="6.70556">
        <ele>2064.81</ele>
        <time>2016-03-25T11:10:42Z</time>
      </trkpt>
      <trkpt lat="45.50668" lon="6.70541">
        <ele>2064.7</ele>
        <time>2016-03-25T11:10:44Z</time>
      </trkpt>
      <trkpt lat="45.50682" lon="6.70521">
        <ele>2059.19</ele>
        <time>2016-03-25T11:10:47Z</time>
      </trkpt>
      <trkpt lat="45.50699" lon="6.70509">
        <ele>2055.98</ele>
        <time>2016-03-25T11:10:50Z</time>
      </trkpt>
      <trkpt lat="45.50718" lon="6.705">
        <ele>2052.59</ele>
        <time>2016-03-25T11:10:53Z</time>
      </trkpt>
      <trkpt lat="45.50737" lon="6.70494">
        <ele>2050.93</ele>
        <time>2016-03-25T11:10:57Z</time>
      </trkpt>
      <trkpt lat="45.50758" lon="6.70492">
        <ele>2042.27</ele>
        <time>2016-03-25T11:11:02Z</time>
      </trkpt>
      <trkpt lat="45.50779" lon="6.70488">
        <ele>2037.78</ele>
        <time>2016-03-25T11:11:06Z</time>
      </trkpt>
      <trkpt lat="45.50802" lon="6.70476">
        <ele>2033.98</ele>
        <time>2016-03-25T11:11:09Z</time>
      </trkpt>
      <trkpt lat="45.50823" lon="6.70462">
        <ele>2029.6</ele>
        <time>2016-03-25T11:11:12Z</time>
      </trkpt>
      <trkpt lat="45.50838" lon="6.70445">
        <ele>2025.76</ele>
        <time>2016-03-25T11:11:15Z</time>
      </trkpt>
      <trkpt lat="45.50853" lon="6.70422">
        <ele>2024.57</ele>
        <time>2016-03-25T11:11:18Z</time>
      </trkpt>
      <trkpt lat="45.50872" lon="6.70399">
        <ele>2022.61</ele>
        <time>2016-03-25T11:11:21Z</time>
      </trkpt>
      <trkpt lat="45.50895" lon="6.7038">
        <ele>2020.39</ele>
        <time>2016-03-25T11:11:24Z</time>
      </trkpt>
      <trkpt lat="45.50911" lon="6.70361">
        <ele>2017.97</ele>
        <time>2016-03-25T11:11:26Z</time>
      </trkpt>
      <trkpt lat="45.50929" lon="6.70337">
        <ele>2014.99</ele>
        <time>2016-03-25T11:11:28Z</time>
      </trkpt>
      <trkpt lat="45.50945" lon="6.70321">
        <ele>2012.79</ele>
        <time>2016-03-25T11:11:30Z</time>
      </trkpt>
      <trkpt lat="45.50962" lon="6.70301">
        <ele>2009.66</ele>
        <time>2016-03-25T11:11:32Z</time>
      </trkpt>
      <trkpt lat="45.50978" lon="6.70278">
        <ele>2009.54</ele>
        <time>2016-03-25T11:11:34Z</time>
      </trkpt>
      <trkpt lat="45.50993" lon="6.70259">
        <ele>2006.81</ele>
        <time>2016-03-25T11:11:36Z</time>
      </trkpt>
      <trkpt lat="45.51005" lon="6.70237">
        <ele>2003.98</ele>
        <time>2016-03-25T11:11:38Z</time>
      </trkpt>
      <trkpt lat="45.5102" lon="6.70217">
        <ele>2000.99</ele>
        <time>2016-03-25T11:11:40Z</time>
      </trkpt>
      <trkpt lat="45.51035" lon="6.70198">
        <ele>1999.75</ele>
        <time>2016-03-25T11:11:42Z</time>
      </trkpt>
      <trkpt lat="45.5105" lon="6.70181">
        <ele>1997.78</ele>
        <time>2016-03-25T11:11:44Z</time>
      </trkpt>
      <trkpt lat="45.51066" lon="6.70156">
        <ele>1991.04</ele>
        <time>2016-03-25T11:11:47Z</time>
      </trkpt>
      <trkpt lat="45.51079" lon="6.70138">
        <ele>1988.15</ele>
        <time>2016-03-25T11:11:49Z</time>
      </trkpt>
      <trkpt lat="45.51097" lon="6.70107">
        <ele>1982.86</ele>
        <time>2016-03-25T11:11:52Z</time>
      </trkpt>
      <trkpt lat="45.5111" lon="6.70086">
        <ele>1979.98</ele>
        <time>2016-03-25T11:11:54Z</time>
      </trkpt>
      <trkpt lat="45.5112" lon="6.70063">
        <ele>1976.99</ele>
        <time>2016-03-25T11:11:56Z</time>
      </trkpt>
      <trkpt lat="45.5113" lon="6.70038">
        <ele>1973.83</ele>
        <time>2016-03-25T11:11:58Z</time>
      </trkpt>
      <trkpt lat="45.5114" lon="6.70011">
        <ele>1972.58</ele>
        <time>2016-03-25T11:12:00Z</time>
      </trkpt>
      <trkpt lat="45.51151" lon="6.69984">
        <ele>1971.57</ele>
        <time>2016-03-25T11:12:02Z</time>
      </trkpt>
      <trkpt lat="45.51168" lon="6.69956">
        <ele>1965.1</ele>
        <time>2016-03-25T11:12:05Z</time>
      </trkpt>
      <trkpt lat="45.51185" lon="6.69937">
        <ele>1959.99</ele>
        <time>2016-03-25T11:12:08Z</time>
      </trkpt>
      <trkpt lat="45.51203" lon="6.6991">
        <ele>1958.54</ele>
        <time>2016-03-25T11:12:11Z</time>
      </trkpt>
      <trkpt lat="45.51218" lon="6.6989">
        <ele>1956.74</ele>
        <time>2016-03-25T11:12:14Z</time>
      </trkpt>
      <trkpt lat="45.51222" lon="6.69861">
        <ele>1952.78</ele>
        <time>2016-03-25T11:12:18Z</time>
      </trkpt>
      <trkpt lat="45.51218" lon="6.69836">
        <ele>1946.82</ele>
        <time>2016-03-25T11:12:23Z</time>
      </trkpt>
      <trkpt lat="45.51227" lon="6.69807">
        <ele>1945.57</ele>
        <time>2016-03-25T11:12:27Z</time>
      </trkpt>
      <trkpt lat="45.5123" lon="6.69776">
        <ele>1942.62</ele>
        <time>2016-03-25T11:12:31Z</time>
      </trkpt>
      <trkpt lat="45.51238" lon="6.69753">
        <ele>1934.57</ele>
        <time>2016-03-25T11:12:48Z</time>
      </trkpt>
      <trkpt lat="45.51217" lon="6.69761">
        <ele>1927.29</ele>
        <time>2016-03-25T11:14:33Z</time>
      </trkpt>
      <trkpt lat="45.51203" lon="6.69783">
        <ele>1924.79</ele>
        <time>2016-03-25T11:14:38Z</time>
      </trkpt>
      <trkpt lat="45.51192" lon="6.69806">
        <ele>1926.34</ele>
        <time>2016-03-25T11:14:43Z</time>
      </trkpt>
      <trkpt lat="45.51179" lon="6.6983">
        <ele>1926.52</ele>
        <time>2016-03-25T11:14:49Z</time>
      </trkpt>
      <trkpt lat="45.51169" lon="6.69853">
        <ele>1927.14</ele>
        <time>2016-03-25T11:14:55Z</time>
      </trkpt>
      <trkpt lat="45.51156" lon="6.69877">
        <ele>1926.77</ele>
        <time>2016-03-25T11:15:01Z</time>
      </trkpt>
      <trkpt lat="45.51145" lon="6.69899">
        <ele>1927.44</ele>
        <time>2016-03-25T11:15:06Z</time>
      </trkpt>
      <trkpt lat="45.51133" lon="6.69922">
        <ele>1929.72</ele>
        <time>2016-03-25T11:15:11Z</time>
      </trkpt>
      <trkpt lat="45.51121" lon="6.69944">
        <ele>1933.32</ele>
        <time>2016-03-25T11:15:16Z</time>
      </trkpt>
      <trkpt lat="45.51109" lon="6.69969">
        <ele>1941.11</ele>
        <time>2016-03-25T11:15:22Z</time>
      </trkpt>
      <trkpt lat="45.51099" lon="6.69992">
        <ele>1944.12</ele>
        <time>2016-03-25T11:15:28Z</time>
      </trkpt>
      <trkpt lat="45.51088" lon="6.70014">
        <ele>1948.52</ele>
        <time>2016-03-25T11:15:33Z</time>
      </trkpt>
      <trkpt lat="45.51078" lon="6.7004">
        <ele>1952.69</ele>
        <time>2016-03-25T11:15:39Z</time>
      </trkpt>
      <trkpt lat="45.51068" lon="6.70062">
        <ele>1954.29</ele>
        <time>2016-03-25T11:15:44Z</time>
      </trkpt>
      <trkpt lat="45.51058" lon="6.70087">
        <ele>1960.32</ele>
        <time>2016-03-25T11:15:50Z</time>
      </trkpt>
      <trkpt lat="45.51044" lon="6.70108">
        <ele>1961.53</ele>
        <time>2016-03-25T11:15:55Z</time>
      </trkpt>
      <trkpt lat="45.51034" lon="6.70131">
        <ele>1963.34</ele>
        <time>2016-03-25T11:16:01Z</time>
      </trkpt>
      <trkpt lat="45.51025" lon="6.70153">
        <ele>1966.92</ele>
        <time>2016-03-25T11:16:06Z</time>
      </trkpt>
      <trkpt lat="45.51012" lon="6.70177">
        <ele>1969.49</ele>
        <time>2016-03-25T11:16:12Z</time>
      </trkpt>
      <trkpt lat="45.51001" lon="6.702">
        <ele>1973.05</ele>
        <time>2016-03-25T11:16:18Z</time>
      </trkpt>
      <trkpt lat="45.50987" lon="6.70223">
        <ele>1973.74</ele>
        <time>2016-03-25T11:16:24Z</time>
      </trkpt>
      <trkpt lat="45.50974" lon="6.70247">
        <ele>1977.29</ele>
        <time>2016-03-25T11:16:30Z</time>
      </trkpt>
      <trkpt lat="45.50964" lon="6.7027">
        <ele>1978.49</ele>
        <time>2016-03-25T11:16:35Z</time>
      </trkpt>
      <trkpt lat="45.50952" lon="6.70291">
        <ele>1980.32</ele>
        <time>2016-03-25T11:16:40Z</time>
      </trkpt>
      <trkpt lat="45.50942" lon="6.70316">
        <ele>1987.28</ele>
        <time>2016-03-25T11:16:46Z</time>
      </trkpt>
      <trkpt lat="45.50932" lon="6.70341">
        <ele>1990.55</ele>
        <time>2016-03-25T11:16:52Z</time>
      </trkpt>
      <trkpt lat="45.5092" lon="6.7036">
        <ele>1987.55</ele>
        <time>2016-03-25T11:16:56Z</time>
      </trkpt>
      <trkpt lat="45.50909" lon="6.70385">
        <ele>1991.48</ele>
        <time>2016-03-25T11:17:02Z</time>
      </trkpt>
      <trkpt lat="45.50896" lon="6.70409">
        <ele>1998.27</ele>
        <time>2016-03-25T11:17:08Z</time>
      </trkpt>
      <trkpt lat="45.50887" lon="6.70434">
        <ele>2008.3</ele>
        <time>2016-03-25T11:17:14Z</time>
      </trkpt>
      <trkpt lat="45.50876" lon="6.70456">
        <ele>2012.27</ele>
        <time>2016-03-25T11:17:19Z</time>
      </trkpt>
      <trkpt lat="45.50864" lon="6.70479">
        <ele>2020.23</ele>
        <time>2016-03-25T11:17:25Z</time>
      </trkpt>
      <trkpt lat="45.50851" lon="6.705">
        <ele>2022.28</ele>
        <time>2016-03-25T11:17:30Z</time>
      </trkpt>
      <trkpt lat="45.5084" lon="6.70519">
        <ele>2027.25</ele>
        <time>2016-03-25T11:17:35Z</time>
      </trkpt>
      <trkpt lat="45.50829" lon="6.70541">
        <ele>2037.08</ele>
        <time>2016-03-25T11:17:41Z</time>
      </trkpt>
      <trkpt lat="45.5082" lon="6.70568">
        <ele>2047.28</ele>
        <time>2016-03-25T11:17:47Z</time>
      </trkpt>
      <trkpt lat="45.50808" lon="6.70589">
        <ele>2055.08</ele>
        <time>2016-03-25T11:17:53Z</time>
      </trkpt>
      <trkpt lat="45.50795" lon="6.70614">
        <ele>2057.53</ele>
        <time>2016-03-25T11:17:59Z</time>
      </trkpt>
      <trkpt lat="45.50782" lon="6.70638">
        <ele>2062.13</ele>
        <time>2016-03-25T11:18:05Z</time>
      </trkpt>
      <trkpt lat="45.50773" lon="6.70661">
        <ele>2065.68</ele>
        <time>2016-03-25T11:18:11Z</time>
      </trkpt>
      <trkpt lat="45.50763" lon="6.70687">
        <ele>2064.57</ele>
        <time>2016-03-25T11:18:17Z</time>
      </trkpt>
      <trkpt lat="45.50753" lon="6.70708">
        <ele>2063.53</ele>
        <time>2016-03-25T11:18:22Z</time>
      </trkpt>
      <trkpt lat="45.5074" lon="6.70729">
        <ele>2068.45</ele>
        <time>2016-03-25T11:18:27Z</time>
      </trkpt>
      <trkpt lat="45.50732" lon="6.70754">
        <ele>2069.53</ele>
        <time>2016-03-25T11:18:33Z</time>
      </trkpt>
      <trkpt lat="45.50734" lon="6.70784">
        <ele>2068.69</ele>
        <time>2016-03-25T11:18:38Z</time>
      </trkpt>
      <trkpt lat="45.5074" lon="6.70817">
        <ele>2069.34</ele>
        <time>2016-03-25T11:18:42Z</time>
      </trkpt>
      <trkpt lat="45.50723" lon="6.70773">
        <ele>2091.12</ele>
        <time>2016-03-25T11:20:34Z</time>
      </trkpt>
      <trkpt lat="45.50701" lon="6.70794">
        <ele>2095.45</ele>
        <time>2016-03-25T11:20:38Z</time>
      </trkpt>
      <trkpt lat="45.50693" lon="6.70821">
        <ele>2087.09</ele>
        <time>2016-03-25T11:20:43Z</time>
      </trkpt>
      <trkpt lat="45.50683" lon="6.70845">
        <ele>2084.74</ele>
        <time>2016-03-25T11:20:47Z</time>
      </trkpt>
      <trkpt lat="45.50672" lon="6.70867">
        <ele>2083.53</ele>
        <time>2016-03-25T11:20:52Z</time>
      </trkpt>
      <trkpt lat="45.50662" lon="6.70889">
        <ele>2083.36</ele>
        <time>2016-03-25T11:20:57Z</time>
      </trkpt>
      <trkpt lat="45.5065" lon="6.70913">
        <ele>2084.31</ele>
        <time>2016-03-25T11:21:03Z</time>
      </trkpt>
      <trkpt lat="45.50639" lon="6.70937">
        <ele>2089.32</ele>
        <time>2016-03-25T11:21:09Z</time>
      </trkpt>
      <trkpt lat="45.50627" lon="6.70963">
        <ele>2093.52</ele>
        <time>2016-03-25T11:21:15Z</time>
      </trkpt>
      <trkpt lat="45.50615" lon="6.70988">
        <ele>2094.36</ele>
        <time>2016-03-25T11:21:21Z</time>
      </trkpt>
      <trkpt lat="45.50603" lon="6.7101">
        <ele>2100.28</ele>
        <time>2016-03-25T11:21:27Z</time>
      </trkpt>
      <trkpt lat="45.50593" lon="6.71033">
        <ele>2103.32</ele>
        <time>2016-03-25T11:21:32Z</time>
      </trkpt>
      <trkpt lat="45.50582" lon="6.71053">
        <ele>2108.24</ele>
        <time>2016-03-25T11:21:37Z</time>
      </trkpt>
      <trkpt lat="45.5057" lon="6.71076">
        <ele>2115.07</ele>
        <time>2016-03-25T11:21:43Z</time>
      </trkpt>
      <trkpt lat="45.50558" lon="6.71097">
        <ele>2118.33</ele>
        <time>2016-03-25T11:21:48Z</time>
      </trkpt>
      <trkpt lat="45.50546" lon="6.71123">
        <ele>2119.53</ele>
        <time>2016-03-25T11:21:54Z</time>
      </trkpt>
      <trkpt lat="45.50536" lon="6.71148">
        <ele>2121.32</ele>
        <time>2016-03-25T11:21:59Z</time>
      </trkpt>
      <trkpt lat="45.50525" lon="6.71173">
        <ele>2130.08</ele>
        <time>2016-03-25T11:22:05Z</time>
      </trkpt>
      <trkpt lat="45.50514" lon="6.71197">
        <ele>2138.44</ele>
        <time>2016-03-25T11:22:11Z</time>
      </trkpt>
      <trkpt lat="45.50503" lon="6.71219">
        <ele>2148.23</ele>
        <time>2016-03-25T11:22:17Z</time>
      </trkpt>
      <trkpt lat="45.50489" lon="6.71243">
        <ele>2158.22</ele>
        <time>2016-03-25T11:22:23Z</time>
      </trkpt>
      <trkpt lat="45.50478" lon="6.71267">
        <ele>2167.27</ele>
        <time>2016-03-25T11:22:29Z</time>
      </trkpt>
      <trkpt lat="45.50466" lon="6.71291">
        <ele>2177.04</ele>
        <time>2016-03-25T11:22:35Z</time>
      </trkpt>
      <trkpt lat="45.50455" lon="6.71314">
        <ele>2187.87</ele>
        <time>2016-03-25T11:22:41Z</time>
      </trkpt>
      <trkpt lat="45.50445" lon="6.71336">
        <ele>2200.02</ele>
        <time>2016-03-25T11:22:47Z</time>
      </trkpt>
      <trkpt lat="45.50435" lon="6.71357">
        <ele>2205.29</ele>
        <time>2016-03-25T11:22:52Z</time>
      </trkpt>
      <trkpt lat="45.50422" lon="6.71381">
        <ele>2222.79</ele>
        <time>2016-03-25T11:22:59Z</time>
      </trkpt>
      <trkpt lat="45.5041" lon="6.71404">
        <ele>2240.86</ele>
        <time>2016-03-25T11:23:06Z</time>
      </trkpt>
      <trkpt lat="45.50399" lon="6.71427">
        <ele>2249.23</ele>
        <time>2016-03-25T11:23:12Z</time>
      </trkpt>
      <trkpt lat="45.50388" lon="6.71451">
        <ele>2260.07</ele>
        <time>2016-03-25T11:23:18Z</time>
      </trkpt>
      <trkpt lat="45.50377" lon="6.71473">
        <ele>2271.07</ele>
        <time>2016-03-25T11:23:24Z</time>
      </trkpt>
      <trkpt lat="45.50366" lon="6.71496">
        <ele>2280.28</ele>
        <time>2016-03-25T11:23:30Z</time>
      </trkpt>
      <trkpt lat="45.50354" lon="6.71519">
        <ele>2291.11</ele>
        <time>2016-03-25T11:23:36Z</time>
      </trkpt>
      <trkpt lat="45.50343" lon="6.71542">
        <ele>2299.07</ele>
        <time>2016-03-25T11:23:42Z</time>
      </trkpt>
      <trkpt lat="45.49946" lon="6.72313">
        <ele>2436.62</ele>
        <time>2016-03-25T11:28:44Z</time>
      </trkpt>
      <trkpt lat="45.4995" lon="6.72341">
        <ele>2486.93</ele>
        <time>2016-03-25T11:28:49Z</time>
      </trkpt>
      <trkpt lat="45.49935" lon="6.72357">
        <ele>2488.74</ele>
        <time>2016-03-25T11:28:54Z</time>
      </trkpt>
      <trkpt lat="45.49927" lon="6.72382">
        <ele>2493.41</ele>
        <time>2016-03-25T11:29:00Z</time>
      </trkpt>
      <trkpt lat="45.49916" lon="6.72404">
        <ele>2497.49</ele>
        <time>2016-03-25T11:29:05Z</time>
      </trkpt>
      <trkpt lat="45.49905" lon="6.72429">
        <ele>2501.24</ele>
        <time>2016-03-25T11:29:11Z</time>
      </trkpt>
      <trkpt lat="45.49894" lon="6.72452">
        <ele>2502.56</ele>
        <time>2016-03-25T11:29:17Z</time>
      </trkpt>
      <trkpt lat="45.4988" lon="6.72476">
        <ele>2503.33</ele>
        <time>2016-03-25T11:29:23Z</time>
      </trkpt>
      <trkpt lat="45.49868" lon="6.72503">
        <ele>2509.88</ele>
        <time>2016-03-25T11:29:29Z</time>
      </trkpt>
      <trkpt lat="45.49857" lon="6.72524">
        <ele>2512.48</ele>
        <time>2016-03-25T11:29:34Z</time>
      </trkpt>
      <trkpt lat="45.49845" lon="6.72544">
        <ele>2513.5</ele>
        <time>2016-03-25T11:29:39Z</time>
      </trkpt>
      <trkpt lat="45.49834" lon="6.72566">
        <ele>2518.52</ele>
        <time>2016-03-25T11:29:44Z</time>
      </trkpt>
      <trkpt lat="45.49824" lon="6.72591">
        <ele>2526.08</ele>
        <time>2016-03-25T11:29:50Z</time>
      </trkpt>
      <trkpt lat="45.49813" lon="6.72611">
        <ele>2534.27</ele>
        <time>2016-03-25T11:29:55Z</time>
      </trkpt>
      <trkpt lat="45.49801" lon="6.72635">
        <ele>2543.23</ele>
        <time>2016-03-25T11:30:01Z</time>
      </trkpt>
      <trkpt lat="45.49789" lon="6.72659">
        <ele>2554.83</ele>
        <time>2016-03-25T11:30:07Z</time>
      </trkpt>
      <trkpt lat="45.49777" lon="6.72682">
        <ele>2565.23</ele>
        <time>2016-03-25T11:30:13Z</time>
      </trkpt>
      <trkpt lat="45.49766" lon="6.72707">
        <ele>2573.09</ele>
        <time>2016-03-25T11:30:19Z</time>
      </trkpt>
      <trkpt lat="45.49756" lon="6.7273">
        <ele>2578.29</ele>
        <time>2016-03-25T11:30:25Z</time>
      </trkpt>
      <trkpt lat="45.49744" lon="6.72756">
        <ele>2583.32</ele>
        <time>2016-03-25T11:30:31Z</time>
      </trkpt>
      <trkpt lat="45.49733" lon="6.72782">
        <ele>2587.49</ele>
        <time>2016-03-25T11:30:37Z</time>
      </trkpt>
      <trkpt lat="45.49721" lon="6.72807">
        <ele>2592.48</ele>
        <time>2016-03-25T11:30:43Z</time>
      </trkpt>
      <trkpt lat="45.49711" lon="6.72832">
        <ele>2597.28</ele>
        <time>2016-03-25T11:30:49Z</time>
      </trkpt>
      <trkpt lat="45.49701" lon="6.72853">
        <ele>2602.25</ele>
        <time>2016-03-25T11:30:54Z</time>
      </trkpt>
      <trkpt lat="45.4969" lon="6.72875">
        <ele>2605.32</ele>
        <time>2016-03-25T11:30:59Z</time>
      </trkpt>
      <trkpt lat="45.49678" lon="6.72898">
        <ele>2607.52</ele>
        <time>2016-03-25T11:31:05Z</time>
      </trkpt>
      <trkpt lat="45.49667" lon="6.72922">
        <ele>2606.73</ele>
        <time>2016-03-25T11:31:11Z</time>
      </trkpt>
      <trkpt lat="45.49655" lon="6.72947">
        <ele>2605.77</ele>
        <time>2016-03-25T11:31:17Z</time>
      </trkpt>
      <trkpt lat="45.49643" lon="6.72972">
        <ele>2602.74</ele>
        <time>2016-03-25T11:31:23Z</time>
      </trkpt>
      <trkpt lat="45.49632" lon="6.72993">
        <ele>2601.53</ele>
        <time>2016-03-25T11:31:28Z</time>
      </trkpt>
      <trkpt lat="45.49621" lon="6.73018">
        <ele>2599.77</ele>
        <time>2016-03-25T11:31:34Z</time>
      </trkpt>
      <trkpt lat="45.4961" lon="6.73039">
        <ele>2596.54</ele>
        <time>2016-03-25T11:31:39Z</time>
      </trkpt>
      <trkpt lat="45.49598" lon="6.73061">
        <ele>2596.33</ele>
        <time>2016-03-25T11:31:44Z</time>
      </trkpt>
      <trkpt lat="45.49587" lon="6.73083">
        <ele>2594.5</ele>
        <time>2016-03-25T11:31:49Z</time>
      </trkpt>
      <trkpt lat="45.49576" lon="6.73106">
        <ele>2592.57</ele>
        <time>2016-03-25T11:31:54Z</time>
      </trkpt>
      <trkpt lat="45.49565" lon="6.7313">
        <ele>2591.53</ele>
        <time>2016-03-25T11:32:00Z</time>
      </trkpt>
      <trkpt lat="45.49556" lon="6.73153">
        <ele>2595.14</ele>
        <time>2016-03-25T11:32:05Z</time>
      </trkpt>
      <trkpt lat="45.49545" lon="6.73174">
        <ele>2595.69</ele>
        <time>2016-03-25T11:32:10Z</time>
      </trkpt>
      <trkpt lat="45.49534" lon="6.73198">
        <ele>2600.48</ele>
        <time>2016-03-25T11:32:16Z</time>
      </trkpt>
      <trkpt lat="45.49523" lon="6.7322">
        <ele>2604.44</ele>
        <time>2016-03-25T11:32:21Z</time>
      </trkpt>
      <trkpt lat="45.49509" lon="6.73242">
        <ele>2616.24</ele>
        <time>2016-03-25T11:32:27Z</time>
      </trkpt>
      <trkpt lat="45.49497" lon="6.73268">
        <ele>2624.37</ele>
        <time>2016-03-25T11:32:33Z</time>
      </trkpt>
      <trkpt lat="45.49485" lon="6.73292">
        <ele>2639.23</ele>
        <time>2016-03-25T11:32:39Z</time>
      </trkpt>
      <trkpt lat="45.49474" lon="6.73317">
        <ele>2643.48</ele>
        <time>2016-03-25T11:32:45Z</time>
      </trkpt>
      <trkpt lat="45.49463" lon="6.73338">
        <ele>2651.03</ele>
        <time>2016-03-25T11:32:50Z</time>
      </trkpt>
      <trkpt lat="45.49454" lon="6.73363">
        <ele>2661.23</ele>
        <time>2016-03-25T11:32:57Z</time>
      </trkpt>
      <trkpt lat="45.49442" lon="6.73384">
        <ele>2679.03</ele>
        <time>2016-03-25T11:33:03Z</time>
      </trkpt>
      <trkpt lat="45.49432" lon="6.73407">
        <ele>2691.07</ele>
        <time>2016-03-25T11:33:09Z</time>
      </trkpt>
      <trkpt lat="45.4942" lon="6.73428">
        <ele>2700.27</ele>
        <time>2016-03-25T11:33:15Z</time>
      </trkpt>
      <trkpt lat="45.49409" lon="6.73451">
        <ele>2707.28</ele>
        <time>2016-03-25T11:33:21Z</time>
      </trkpt>
      <trkpt lat="45.49397" lon="6.73474">
        <ele>2711.48</ele>
        <time>2016-03-25T11:33:27Z</time>
      </trkpt>
      <trkpt lat="45.49385" lon="6.73497">
        <ele>2710.57</ele>
        <time>2016-03-25T11:33:33Z</time>
      </trkpt>
      <trkpt lat="45.49373" lon="6.73519">
        <ele>2712.28</ele>
        <time>2016-03-25T11:33:39Z</time>
      </trkpt>
      <trkpt lat="45.49362" lon="6.73541">
        <ele>2712.56</ele>
        <time>2016-03-25T11:33:45Z</time>
      </trkpt>
      <trkpt lat="45.49372" lon="6.73563">
        <ele>2719.25</ele>
        <time>2016-03-25T11:34:44Z</time>
      </trkpt>
      <trkpt lat="45.49384" lon="6.73536">
        <ele>2718.37</ele>
        <time>2016-03-25T11:35:15Z</time>
      </trkpt>
      <trkpt lat="45.49399" lon="6.73514">
        <ele>2718.49</ele>
        <time>2016-03-25T11:35:20Z</time>
      </trkpt>
      <trkpt lat="45.49415" lon="6.735">
        <ele>2716.58</ele>
        <time>2016-03-25T11:35:26Z</time>
      </trkpt>
      <trkpt lat="45.49432" lon="6.73487">
        <ele>2716.7</ele>
        <time>2016-03-25T11:35:32Z</time>
      </trkpt>
      <trkpt lat="45.49445" lon="6.73467">
        <ele>2714.57</ele>
        <time>2016-03-25T11:35:37Z</time>
      </trkpt>
      <trkpt lat="45.4946" lon="6.7345">
        <ele>2711.14</ele>
        <time>2016-03-25T11:35:41Z</time>
      </trkpt>
      <trkpt lat="45.49477" lon="6.73433">
        <ele>2708.78</ele>
        <time>2016-03-25T11:35:44Z</time>
      </trkpt>
      <trkpt lat="45.49492" lon="6.73412">
        <ele>2707.73</ele>
        <time>2016-03-25T11:35:47Z</time>
      </trkpt>
      <trkpt lat="45.49508" lon="6.73397">
        <ele>2703.82</ele>
        <time>2016-03-25T11:35:50Z</time>
      </trkpt>
      <trkpt lat="45.49533" lon="6.73385">
        <ele>2699.02</ele>
        <time>2016-03-25T11:35:53Z</time>
      </trkpt>
      <trkpt lat="45.49556" lon="6.7338">
        <ele>2694.82</ele>
        <time>2016-03-25T11:35:56Z</time>
      </trkpt>
      <trkpt lat="45.49575" lon="6.73378">
        <ele>2690.86</ele>
        <time>2016-03-25T11:35:58Z</time>
      </trkpt>
      <trkpt lat="45.496" lon="6.73386">
        <ele>2687.78</ele>
        <time>2016-03-25T11:36:01Z</time>
      </trkpt>
      <trkpt lat="45.4962" lon="6.73383">
        <ele>2683.82</ele>
        <time>2016-03-25T11:36:04Z</time>
      </trkpt>
      <trkpt lat="45.49637" lon="6.73371">
        <ele>2681.74</ele>
        <time>2016-03-25T11:36:07Z</time>
      </trkpt>
      <trkpt lat="45.49655" lon="6.73354">
        <ele>2678.65</ele>
        <time>2016-03-25T11:36:10Z</time>
      </trkpt>
      <trkpt lat="45.49676" lon="6.73333">
        <ele>2676.58</ele>
        <time>2016-03-25T11:36:13Z</time>
      </trkpt>
      <trkpt lat="45.49686" lon="6.73306">
        <ele>2673.94</ele>
        <time>2016-03-25T11:36:16Z</time>
      </trkpt>
      <trkpt lat="45.49688" lon="6.73273">
        <ele>2666.88</ele>
        <time>2016-03-25T11:36:19Z</time>
      </trkpt>
      <trkpt lat="45.49692" lon="6.73246">
        <ele>2660.94</ele>
        <time>2016-03-25T11:36:21Z</time>
      </trkpt>
      <trkpt lat="45.49694" lon="6.73214">
        <ele>2655.83</ele>
        <time>2016-03-25T11:36:24Z</time>
      </trkpt>
      <trkpt lat="45.49698" lon="6.73184">
        <ele>2651.79</ele>
        <time>2016-03-25T11:36:27Z</time>
      </trkpt>
      <trkpt lat="45.49698" lon="6.73154">
        <ele>2646.6</ele>
        <time>2016-03-25T11:36:30Z</time>
      </trkpt>
      <trkpt lat="45.49709" lon="6.73127">
        <ele>2638.93</ele>
        <time>2016-03-25T11:36:39Z</time>
      </trkpt>
      <trkpt lat="45.49707" lon="6.73101">
        <ele>2631.78</ele>
        <time>2016-03-25T11:36:55Z</time>
      </trkpt>
      <trkpt lat="45.49702" lon="6.73075">
        <ele>2629.61</ele>
        <time>2016-03-25T11:36:58Z</time>
      </trkpt>
      <trkpt lat="45.497" lon="6.7304">
        <ele>2625.18</ele>
        <time>2016-03-25T11:37:01Z</time>
      </trkpt>
      <trkpt lat="45.49698" lon="6.73014">
        <ele>2622</ele>
        <time>2016-03-25T11:37:03Z</time>
      </trkpt>
      <trkpt lat="45.49694" lon="6.72987">
        <ele>2619.79</ele>
        <time>2016-03-25T11:37:05Z</time>
      </trkpt>
      <trkpt lat="45.49687" lon="6.72953">
        <ele>2617.58</ele>
        <time>2016-03-25T11:37:08Z</time>
      </trkpt>
      <trkpt lat="45.4968" lon="6.72923">
        <ele>2615.74</ele>
        <time>2016-03-25T11:37:11Z</time>
      </trkpt>
      <trkpt lat="45.4967" lon="6.72895">
        <ele>2615.53</ele>
        <time>2016-03-25T11:37:15Z</time>
      </trkpt>
      <trkpt lat="45.49658" lon="6.72875">
        <ele>2612.74</ele>
        <time>2016-03-25T11:37:22Z</time>
      </trkpt>
      <trkpt lat="45.49657" lon="6.72844">
        <ele>2607.84</ele>
        <time>2016-03-25T11:37:29Z</time>
      </trkpt>
      <trkpt lat="45.49665" lon="6.72813">
        <ele>2606.7</ele>
        <time>2016-03-25T11:37:32Z</time>
      </trkpt>
      <trkpt lat="45.49681" lon="6.72786">
        <ele>2605.76</ele>
        <time>2016-03-25T11:37:35Z</time>
      </trkpt>
      <trkpt lat="45.497" lon="6.72758">
        <ele>2602.59</ele>
        <time>2016-03-25T11:37:38Z</time>
      </trkpt>
      <trkpt lat="45.49717" lon="6.72732">
        <ele>2598.82</ele>
        <time>2016-03-25T11:37:41Z</time>
      </trkpt>
      <trkpt lat="45.49736" lon="6.72709">
        <ele>2598.69</ele>
        <time>2016-03-25T11:37:44Z</time>
      </trkpt>
      <trkpt lat="45.49749" lon="6.72684">
        <ele>2595.94</ele>
        <time>2016-03-25T11:37:47Z</time>
      </trkpt>
      <trkpt lat="45.49743" lon="6.72656">
        <ele>2578.99</ele>
        <time>2016-03-25T11:37:51Z</time>
      </trkpt>
      <trkpt lat="45.49741" lon="6.7263">
        <ele>2573.58</ele>
        <time>2016-03-25T11:37:55Z</time>
      </trkpt>
      <trkpt lat="45.49732" lon="6.72607">
        <ele>2568.82</ele>
        <time>2016-03-25T11:37:59Z</time>
      </trkpt>
      <trkpt lat="45.49723" lon="6.72576">
        <ele>2561.86</ele>
        <time>2016-03-25T11:38:03Z</time>
      </trkpt>
      <trkpt lat="45.49712" lon="6.72544">
        <ele>2559.55</ele>
        <time>2016-03-25T11:38:06Z</time>
      </trkpt>
      <trkpt lat="45.49703" lon="6.72518">
        <ele>2557.96</ele>
        <time>2016-03-25T11:38:09Z</time>
      </trkpt>
      <trkpt lat="45.49693" lon="6.72492">
        <ele>2553.02</ele>
        <time>2016-03-25T11:38:12Z</time>
      </trkpt>
      <trkpt lat="45.4969" lon="6.72456">
        <ele>2548.75</ele>
        <time>2016-03-25T11:38:16Z</time>
      </trkpt>
      <trkpt lat="45.49691" lon="6.72423">
        <ele>2543.03</ele>
        <time>2016-03-25T11:38:19Z</time>
      </trkpt>
      <trkpt lat="45.49694" lon="6.72389">
        <ele>2539.94</ele>
        <time>2016-03-25T11:38:22Z</time>
      </trkpt>
      <trkpt lat="45.49693" lon="6.72358">
        <ele>2534.78</ele>
        <time>2016-03-25T11:38:26Z</time>
      </trkpt>
      <trkpt lat="45.49693" lon="6.72324">
        <ele>2530.98</ele>
        <time>2016-03-25T11:38:29Z</time>
      </trkpt>
      <trkpt lat="45.49686" lon="6.72284">
        <ele>2525.19</ele>
        <time>2016-03-25T11:38:32Z</time>
      </trkpt>
      <trkpt lat="45.49672" lon="6.72258">
        <ele>2513.69</ele>
        <time>2016-03-25T11:38:35Z</time>
      </trkpt>
      <trkpt lat="45.4966" lon="6.7223">
        <ele>2507.3</ele>
        <time>2016-03-25T11:38:37Z</time>
      </trkpt>
      <trkpt lat="45.49646" lon="6.7221">
        <ele>2502.24</ele>
        <time>2016-03-25T11:38:39Z</time>
      </trkpt>
      <trkpt lat="45.49633" lon="6.72184">
        <ele>2498.84</ele>
        <time>2016-03-25T11:38:41Z</time>
      </trkpt>
      <trkpt lat="45.49623" lon="6.72162">
        <ele>2496.78</ele>
        <time>2016-03-25T11:38:43Z</time>
      </trkpt>
      <trkpt lat="45.49606" lon="6.72136">
        <ele>2492.98</ele>
        <time>2016-03-25T11:38:46Z</time>
      </trkpt>
      <trkpt lat="45.49592" lon="6.72107">
        <ele>2489.01</ele>
        <time>2016-03-25T11:38:49Z</time>
      </trkpt>
      <trkpt lat="45.49581" lon="6.72084">
        <ele>2485.59</ele>
        <time>2016-03-25T11:38:52Z</time>
      </trkpt>
      <trkpt lat="45.49572" lon="6.72057">
        <ele>2483.77</ele>
        <time>2016-03-25T11:38:55Z</time>
      </trkpt>
      <trkpt lat="45.49567" lon="6.72029">
        <ele>2479.78</ele>
        <time>2016-03-25T11:38:59Z</time>
      </trkpt>
      <trkpt lat="45.49566" lon="6.72001">
        <ele>2474.77</ele>
        <time>2016-03-25T11:39:04Z</time>
      </trkpt>
      <trkpt lat="45.49568" lon="6.7197">
        <ele>2459.8</ele>
        <time>2016-03-25T11:39:12Z</time>
      </trkpt>
      <trkpt lat="45.49577" lon="6.71937">
        <ele>2457.74</ele>
        <time>2016-03-25T11:39:16Z</time>
      </trkpt>
      <trkpt lat="45.49586" lon="6.71912">
        <ele>2454.97</ele>
        <time>2016-03-25T11:39:19Z</time>
      </trkpt>
      <trkpt lat="45.49592" lon="6.71878">
        <ele>2453.55</ele>
        <time>2016-03-25T11:39:23Z</time>
      </trkpt>
      <trkpt lat="45.49593" lon="6.71843">
        <ele>2452.38</ele>
        <time>2016-03-25T11:39:26Z</time>
      </trkpt>
      <trkpt lat="45.49589" lon="6.71808">
        <ele>2447.99</ele>
        <time>2016-03-25T11:39:29Z</time>
      </trkpt>
      <trkpt lat="45.49584" lon="6.71783">
        <ele>2445.15</ele>
        <time>2016-03-25T11:39:31Z</time>
      </trkpt>
      <trkpt lat="45.49571" lon="6.71765">
        <ele>2442.96</ele>
        <time>2016-03-25T11:39:33Z</time>
      </trkpt>
      <trkpt lat="45.49554" lon="6.71744">
        <ele>2435.85</ele>
        <time>2016-03-25T11:39:36Z</time>
      </trkpt>
      <trkpt lat="45.49542" lon="6.71724">
        <ele>2433.78</ele>
        <time>2016-03-25T11:39:38Z</time>
      </trkpt>
      <trkpt lat="45.49529" lon="6.71695">
        <ele>2432.19</ele>
        <time>2016-03-25T11:39:41Z</time>
      </trkpt>
      <trkpt lat="45.49516" lon="6.71668">
        <ele>2427.06</ele>
        <time>2016-03-25T11:39:44Z</time>
      </trkpt>
      <trkpt lat="45.49508" lon="6.7164">
        <ele>2423.75</ele>
        <time>2016-03-25T11:39:47Z</time>
      </trkpt>
      <trkpt lat="45.49499" lon="6.71608">
        <ele>2418.79</ele>
        <time>2016-03-25T11:39:51Z</time>
      </trkpt>
      <trkpt lat="45.49487" lon="6.71583">
        <ele>2408.87</ele>
        <time>2016-03-25T11:39:57Z</time>
      </trkpt>
      <trkpt lat="45.49487" lon="6.71556">
        <ele>2401.8</ele>
        <time>2016-03-25T11:40:01Z</time>
      </trkpt>
      <trkpt lat="45.49489" lon="6.71526">
        <ele>2393.8</ele>
        <time>2016-03-25T11:40:05Z</time>
      </trkpt>
      <trkpt lat="45.49492" lon="6.71498">
        <ele>2387.07</ele>
        <time>2016-03-25T11:40:08Z</time>
      </trkpt>
      <trkpt lat="45.49495" lon="6.71471">
        <ele>2377.88</ele>
        <time>2016-03-25T11:40:12Z</time>
      </trkpt>
      <trkpt lat="45.49493" lon="6.71439">
        <ele>2364.83</ele>
        <time>2016-03-25T11:40:19Z</time>
      </trkpt>
      <trkpt lat="45.49494" lon="6.71413">
        <ele>2359</ele>
        <time>2016-03-25T11:40:22Z</time>
      </trkpt>
      <trkpt lat="45.49489" lon="6.71384">
        <ele>2352.31</ele>
        <time>2016-03-25T11:40:24Z</time>
      </trkpt>
      <trkpt lat="45.49497" lon="6.71351">
        <ele>2345.23</ele>
        <time>2016-03-25T11:40:27Z</time>
      </trkpt>
      <trkpt lat="45.49504" lon="6.71327">
        <ele>2343.07</ele>
        <time>2016-03-25T11:40:28Z</time>
      </trkpt>
      <trkpt lat="45.49519" lon="6.71288">
        <ele>2334.71</ele>
        <time>2016-03-25T11:40:30Z</time>
      </trkpt>
      <trkpt lat="45.49535" lon="6.71265">
        <ele>2328.46</ele>
        <time>2016-03-25T11:40:32Z</time>
      </trkpt>
      <trkpt lat="45.49557" lon="6.71253">
        <ele>2323.89</ele>
        <time>2016-03-25T11:40:34Z</time>
      </trkpt>
      <trkpt lat="45.49577" lon="6.71243">
        <ele>2322.59</ele>
        <time>2016-03-25T11:40:36Z</time>
      </trkpt>
      <trkpt lat="45.49601" lon="6.71229">
        <ele>2318.6</ele>
        <time>2016-03-25T11:40:39Z</time>
      </trkpt>
      <trkpt lat="45.49618" lon="6.7121">
        <ele>2315.78</ele>
        <time>2016-03-25T11:40:42Z</time>
      </trkpt>
      <trkpt lat="45.49617" lon="6.71184">
        <ele>2311.71</ele>
        <time>2016-03-25T11:40:47Z</time>
      </trkpt>
      <trkpt lat="45.49636" lon="6.71168">
        <ele>2303.99</ele>
        <time>2016-03-25T11:41:03Z</time>
      </trkpt>
      <trkpt lat="45.49646" lon="6.71142">
        <ele>2297.8</ele>
        <time>2016-03-25T11:41:07Z</time>
      </trkpt>
      <trkpt lat="45.49661" lon="6.7112">
        <ele>2292.79</ele>
        <time>2016-03-25T11:41:11Z</time>
      </trkpt>
      <trkpt lat="45.49672" lon="6.71094">
        <ele>2286.36</ele>
        <time>2016-03-25T11:41:14Z</time>
      </trkpt>
      <trkpt lat="45.49683" lon="6.71074">
        <ele>2279.39</ele>
        <time>2016-03-25T11:41:17Z</time>
      </trkpt>
      <trkpt lat="45.49698" lon="6.71045">
        <ele>2267.29</ele>
        <time>2016-03-25T11:41:21Z</time>
      </trkpt>
      <trkpt lat="45.49719" lon="6.71024">
        <ele>2262.79</ele>
        <time>2016-03-25T11:41:24Z</time>
      </trkpt>
      <trkpt lat="45.49737" lon="6.71">
        <ele>2258.02</ele>
        <time>2016-03-25T11:41:27Z</time>
      </trkpt>
      <trkpt lat="45.49754" lon="6.7097">
        <ele>2252.06</ele>
        <time>2016-03-25T11:41:30Z</time>
      </trkpt>
      <trkpt lat="45.49767" lon="6.70938">
        <ele>2245.81</ele>
        <time>2016-03-25T11:41:33Z</time>
      </trkpt>
      <trkpt lat="45.49788" lon="6.70919">
        <ele>2242.94</ele>
        <time>2016-03-25T11:41:36Z</time>
      </trkpt>
      <trkpt lat="45.49804" lon="6.70895">
        <ele>2243.18</ele>
        <time>2016-03-25T11:41:40Z</time>
      </trkpt>
      <trkpt lat="45.49821" lon="6.70876">
        <ele>2219.86</ele>
        <time>2016-03-25T11:41:47Z</time>
      </trkpt>
      <trkpt lat="45.49845" lon="6.70869">
        <ele>2214.89</ele>
        <time>2016-03-25T11:41:50Z</time>
      </trkpt>
      <trkpt lat="45.49865" lon="6.70862">
        <ele>2213.59</ele>
        <time>2016-03-25T11:41:52Z</time>
      </trkpt>
      <trkpt lat="45.49883" lon="6.70842">
        <ele>2211.61</ele>
        <time>2016-03-25T11:41:54Z</time>
      </trkpt>
      <trkpt lat="45.49906" lon="6.7083">
        <ele>2210.57</ele>
        <time>2016-03-25T11:41:56Z</time>
      </trkpt>
      <trkpt lat="45.49927" lon="6.70826">
        <ele>2207.97</ele>
        <time>2016-03-25T11:41:58Z</time>
      </trkpt>
      <trkpt lat="45.49948" lon="6.70827">
        <ele>2206.75</ele>
        <time>2016-03-25T11:42:00Z</time>
      </trkpt>
      <trkpt lat="45.49967" lon="6.7083">
        <ele>2205.58</ele>
        <time>2016-03-25T11:42:02Z</time>
      </trkpt>
      <trkpt lat="45.49987" lon="6.70831">
        <ele>2204.57</ele>
        <time>2016-03-25T11:42:04Z</time>
      </trkpt>
      <trkpt lat="45.50007" lon="6.70833">
        <ele>2204.53</ele>
        <time>2016-03-25T11:42:06Z</time>
      </trkpt>
      <trkpt lat="45.50032" lon="6.70838">
        <ele>2203.54</ele>
        <time>2016-03-25T11:42:09Z</time>
      </trkpt>
      <trkpt lat="45.50052" lon="6.70836">
        <ele>2200.78</ele>
        <time>2016-03-25T11:42:12Z</time>
      </trkpt>
      <trkpt lat="45.50076" lon="6.70835">
        <ele>2188.54</ele>
        <time>2016-03-25T11:42:17Z</time>
      </trkpt>
      <trkpt lat="45.50094" lon="6.70834">
        <ele>2187.73</ele>
        <time>2016-03-25T11:42:19Z</time>
      </trkpt>
      <trkpt lat="45.5012" lon="6.70837">
        <ele>2185.77</ele>
        <time>2016-03-25T11:42:22Z</time>
      </trkpt>
      <trkpt lat="45.50143" lon="6.70841">
        <ele>2183.74</ele>
        <time>2016-03-25T11:42:25Z</time>
      </trkpt>
      <trkpt lat="45.50165" lon="6.70842">
        <ele>2183.53</ele>
        <time>2016-03-25T11:42:28Z</time>
      </trkpt>
      <trkpt lat="45.50189" lon="6.70838">
        <ele>2154.63</ele>
        <time>2016-03-25T11:42:35Z</time>
      </trkpt>
      <trkpt lat="45.50212" lon="6.70837">
        <ele>2151.94</ele>
        <time>2016-03-25T11:42:38Z</time>
      </trkpt>
      <trkpt lat="45.50236" lon="6.70838">
        <ele>2150.73</ele>
        <time>2016-03-25T11:42:41Z</time>
      </trkpt>
      <trkpt lat="45.50252" lon="6.70821">
        <ele>2140.64</ele>
        <time>2016-03-25T11:42:45Z</time>
      </trkpt>
      <trkpt lat="45.50273" lon="6.7081">
        <ele>2138.58</ele>
        <time>2016-03-25T11:42:49Z</time>
      </trkpt>
      <trkpt lat="45.50297" lon="6.70815">
        <ele>2131.77</ele>
        <time>2016-03-25T11:42:53Z</time>
      </trkpt>
      <trkpt lat="45.50318" lon="6.70815">
        <ele>2115.23</ele>
        <time>2016-03-25T11:42:57Z</time>
      </trkpt>
      <trkpt lat="45.50338" lon="6.70822">
        <ele>2111.84</ele>
        <time>2016-03-25T11:42:59Z</time>
      </trkpt>
      <trkpt lat="45.50362" lon="6.70825">
        <ele>2110.58</ele>
        <time>2016-03-25T11:43:01Z</time>
      </trkpt>
      <trkpt lat="45.50385" lon="6.70829">
        <ele>2111.49</ele>
        <time>2016-03-25T11:43:03Z</time>
      </trkpt>
      <trkpt lat="45.50412" lon="6.70833">
        <ele>2109.61</ele>
        <time>2016-03-25T11:43:05Z</time>
      </trkpt>
      <trkpt lat="45.50435" lon="6.70835">
        <ele>2105.53</ele>
        <time>2016-03-25T11:43:07Z</time>
      </trkpt>
      <trkpt lat="45.50463" lon="6.70841">
        <ele>2102.81</ele>
        <time>2016-03-25T11:43:09Z</time>
      </trkpt>
      <trkpt lat="45.50484" lon="6.70844">
        <ele>2101.58</ele>
        <time>2016-03-25T11:43:11Z</time>
      </trkpt>
      <trkpt lat="45.50505" lon="6.70847">
        <ele>2101.37</ele>
        <time>2016-03-25T11:43:13Z</time>
      </trkpt>
      <trkpt lat="45.50531" lon="6.70852">
        <ele>2101.53</ele>
        <time>2016-03-25T11:43:16Z</time>
      </trkpt>
      <trkpt lat="45.50555" lon="6.70852">
        <ele>2095.55</ele>
        <time>2016-03-25T11:43:20Z</time>
      </trkpt>
      <trkpt lat="45.50574" lon="6.70851">
        <ele>2095.5</ele>
        <time>2016-03-25T11:43:23Z</time>
      </trkpt>
      <trkpt lat="45.5059" lon="6.7084">
        <ele>2080.79</ele>
        <time>2016-03-25T11:43:33Z</time>
      </trkpt>
      <trkpt lat="45.50606" lon="6.7082">
        <ele>2072.97</ele>
        <time>2016-03-25T11:43:58Z</time>
      </trkpt>
      <trkpt lat="45.5062" lon="6.70802">
        <ele>2071.53</ele>
        <time>2016-03-25T11:44:03Z</time>
      </trkpt>
      <trkpt lat="45.50642" lon="6.70787">
        <ele>2072.33</ele>
        <time>2016-03-25T11:44:07Z</time>
      </trkpt>
      <trkpt lat="45.50645" lon="6.70755">
        <ele>2068.17</ele>
        <time>2016-03-25T11:44:11Z</time>
      </trkpt>
      <trkpt lat="45.50649" lon="6.70729">
        <ele>2066.54</ele>
        <time>2016-03-25T11:44:14Z</time>
      </trkpt>
      <trkpt lat="45.50653" lon="6.70701">
        <ele>2064.55</ele>
        <time>2016-03-25T11:44:17Z</time>
      </trkpt>
      <trkpt lat="45.50662" lon="6.70667">
        <ele>2063.76</ele>
        <time>2016-03-25T11:44:21Z</time>
      </trkpt>
      <trkpt lat="45.5067" lon="6.70639">
        <ele>2061.93</ele>
        <time>2016-03-25T11:44:24Z</time>
      </trkpt>
      <trkpt lat="45.50678" lon="6.70608">
        <ele>2059.63</ele>
        <time>2016-03-25T11:44:26Z</time>
      </trkpt>
      <trkpt lat="45.50691" lon="6.70588">
        <ele>2055.85</ele>
        <time>2016-03-25T11:44:28Z</time>
      </trkpt>
      <trkpt lat="45.50707" lon="6.70559">
        <ele>2056.49</ele>
        <time>2016-03-25T11:44:31Z</time>
      </trkpt>
      <trkpt lat="45.50709" lon="6.70526">
        <ele>2049.24</ele>
        <time>2016-03-25T11:44:35Z</time>
      </trkpt>
      <trkpt lat="45.50723" lon="6.70508">
        <ele>2047.74</ele>
        <time>2016-03-25T11:44:38Z</time>
      </trkpt>
      <trkpt lat="45.50748" lon="6.70505">
        <ele>2042.79</ele>
        <time>2016-03-25T11:44:42Z</time>
      </trkpt>
      <trkpt lat="45.50767" lon="6.70494">
        <ele>2039.78</ele>
        <time>2016-03-25T11:44:45Z</time>
      </trkpt>
      <trkpt lat="45.50791" lon="6.70483">
        <ele>2038.41</ele>
        <time>2016-03-25T11:44:48Z</time>
      </trkpt>
      <trkpt lat="45.50811" lon="6.70473">
        <ele>2033.99</ele>
        <time>2016-03-25T11:44:51Z</time>
      </trkpt>
      <trkpt lat="45.50831" lon="6.7047">
        <ele>2028.19</ele>
        <time>2016-03-25T11:44:54Z</time>
      </trkpt>
      <trkpt lat="45.5085" lon="6.70454">
        <ele>2023.98</ele>
        <time>2016-03-25T11:44:57Z</time>
      </trkpt>
      <trkpt lat="45.50871" lon="6.70428">
        <ele>2020.78</ele>
        <time>2016-03-25T11:45:00Z</time>
      </trkpt>
      <trkpt lat="45.50892" lon="6.70401">
        <ele>2016.82</ele>
        <time>2016-03-25T11:45:03Z</time>
      </trkpt>
      <trkpt lat="45.50907" lon="6.7038">
        <ele>2014.78</ele>
        <time>2016-03-25T11:45:05Z</time>
      </trkpt>
      <trkpt lat="45.50923" lon="6.7036">
        <ele>2013.58</ele>
        <time>2016-03-25T11:45:07Z</time>
      </trkpt>
      <trkpt lat="45.50939" lon="6.70339">
        <ele>2012.57</ele>
        <time>2016-03-25T11:45:09Z</time>
      </trkpt>
      <trkpt lat="45.50954" lon="6.70319">
        <ele>2011.73</ele>
        <time>2016-03-25T11:45:11Z</time>
      </trkpt>
      <trkpt lat="45.50967" lon="6.70295">
        <ele>2001.39</ele>
        <time>2016-03-25T11:45:14Z</time>
      </trkpt>
      <trkpt lat="45.5098" lon="6.70271">
        <ele>1993.47</ele>
        <time>2016-03-25T11:45:17Z</time>
      </trkpt>
      <trkpt lat="45.50995" lon="6.70256">
        <ele>1989.85</ele>
        <time>2016-03-25T11:45:19Z</time>
      </trkpt>
      <trkpt lat="45.51006" lon="6.70229">
        <ele>1981.89</ele>
        <time>2016-03-25T11:45:22Z</time>
      </trkpt>
      <trkpt lat="45.5102" lon="6.70208">
        <ele>1977.02</ele>
        <time>2016-03-25T11:45:25Z</time>
      </trkpt>
      <trkpt lat="45.51032" lon="6.70186">
        <ele>1971.83</ele>
        <time>2016-03-25T11:45:28Z</time>
      </trkpt>
      <trkpt lat="45.51047" lon="6.70169">
        <ele>1968.75</ele>
        <time>2016-03-25T11:45:31Z</time>
      </trkpt>
      <trkpt lat="45.51063" lon="6.70146">
        <ele>1966.77</ele>
        <time>2016-03-25T11:45:34Z</time>
      </trkpt>
      <trkpt lat="45.5108" lon="6.70118">
        <ele>1963.78</ele>
        <time>2016-03-25T11:45:37Z</time>
      </trkpt>
      <trkpt lat="45.51092" lon="6.70098">
        <ele>1963.38</ele>
        <time>2016-03-25T11:45:39Z</time>
      </trkpt>
      <trkpt lat="45.5111" lon="6.70072">
        <ele>1961.74</ele>
        <time>2016-03-25T11:45:42Z</time>
      </trkpt>
      <trkpt lat="45.51121" lon="6.70041">
        <ele>1957.76</ele>
        <time>2016-03-25T11:45:45Z</time>
      </trkpt>
      <trkpt lat="45.51134" lon="6.70012">
        <ele>1954.01</ele>
        <time>2016-03-25T11:45:48Z</time>
      </trkpt>
      <trkpt lat="45.5115" lon="6.69991">
        <ele>1949.98</ele>
        <time>2016-03-25T11:45:51Z</time>
      </trkpt>
      <trkpt lat="45.51164" lon="6.69972">
        <ele>1947.73</ele>
        <time>2016-03-25T11:45:55Z</time>
      </trkpt>
      <trkpt lat="45.51177" lon="6.69948">
        <ele>1941.98</ele>
        <time>2016-03-25T11:46:27Z</time>
      </trkpt>
      <trkpt lat="45.51184" lon="6.69924">
        <ele>1937.95</ele>
        <time>2016-03-25T11:46:30Z</time>
      </trkpt>
      <trkpt lat="45.51191" lon="6.69898">
        <ele>1936.57</ele>
        <time>2016-03-25T11:46:33Z</time>
      </trkpt>
      <trkpt lat="45.51196" lon="6.69868">
        <ele>1936.53</ele>
        <time>2016-03-25T11:46:36Z</time>
      </trkpt>
      <trkpt lat="45.51196" lon="6.69831">
        <ele>1937.53</ele>
        <time>2016-03-25T11:46:40Z</time>
      </trkpt>
      <trkpt lat="45.51186" lon="6.69806">
        <ele>1935.57</ele>
        <time>2016-03-25T11:46:45Z</time>
      </trkpt>
      <trkpt lat="45.51174" lon="6.69787">
        <ele>1936.49</ele>
        <time>2016-03-25T11:47:03Z</time>
      </trkpt>
      <trkpt lat="45.51155" lon="6.6978">
        <ele>1924.53</ele>
        <time>2016-03-25T11:48:16Z</time>
      </trkpt>
      <trkpt lat="45.51134" lon="6.69779">
        <ele>1922.53</ele>
        <time>2016-03-25T11:48:20Z</time>
      </trkpt>
      <trkpt lat="45.51116" lon="6.69772">
        <ele>1928.68</ele>
        <time>2016-03-25T11:48:24Z</time>
      </trkpt>
      <trkpt lat="45.51097" lon="6.69765">
        <ele>1934.32</ele>
        <time>2016-03-25T11:48:29Z</time>
      </trkpt>
      <trkpt lat="45.51078" lon="6.69761">
        <ele>1938.29</ele>
        <time>2016-03-25T11:48:34Z</time>
      </trkpt>
      <trkpt lat="45.51059" lon="6.69756">
        <ele>1943.08</ele>
        <time>2016-03-25T11:48:39Z</time>
      </trkpt>
      <trkpt lat="45.51038" lon="6.69752">
        <ele>1948.27</ele>
        <time>2016-03-25T11:48:45Z</time>
      </trkpt>
      <trkpt lat="45.5102" lon="6.69745">
        <ele>1962.54</ele>
        <time>2016-03-25T11:48:50Z</time>
      </trkpt>
      <trkpt lat="45.50999" lon="6.6974">
        <ele>1968.69</ele>
        <time>2016-03-25T11:48:56Z</time>
      </trkpt>
      <trkpt lat="45.50981" lon="6.69734">
        <ele>1969.49</ele>
        <time>2016-03-25T11:49:01Z</time>
      </trkpt>
      <trkpt lat="45.5096" lon="6.69727">
        <ele>1972.32</ele>
        <time>2016-03-25T11:49:07Z</time>
      </trkpt>
      <trkpt lat="45.50942" lon="6.69723">
        <ele>1977.48</ele>
        <time>2016-03-25T11:49:12Z</time>
      </trkpt>
      <trkpt lat="45.50923" lon="6.69717">
        <ele>1994.11</ele>
        <time>2016-03-25T11:49:17Z</time>
      </trkpt>
      <trkpt lat="45.50903" lon="6.69712">
        <ele>2002.93</ele>
        <time>2016-03-25T11:49:23Z</time>
      </trkpt>
      <trkpt lat="45.50885" lon="6.69706">
        <ele>2017.13</ele>
        <time>2016-03-25T11:49:28Z</time>
      </trkpt>
      <trkpt lat="45.50866" lon="6.69702">
        <ele>2023.28</ele>
        <time>2016-03-25T11:49:34Z</time>
      </trkpt>
      <trkpt lat="45.50848" lon="6.69695">
        <ele>2033.02</ele>
        <time>2016-03-25T11:49:39Z</time>
      </trkpt>
      <trkpt lat="45.50829" lon="6.69692">
        <ele>2045.95</ele>
        <time>2016-03-25T11:49:45Z</time>
      </trkpt>
      <trkpt lat="45.50809" lon="6.69686">
        <ele>2054.28</ele>
        <time>2016-03-25T11:49:50Z</time>
      </trkpt>
      <trkpt lat="45.50789" lon="6.69681">
        <ele>2063.07</ele>
        <time>2016-03-25T11:49:55Z</time>
      </trkpt>
      <trkpt lat="45.50768" lon="6.69673">
        <ele>2072.96</ele>
        <time>2016-03-25T11:50:00Z</time>
      </trkpt>
      <trkpt lat="45.50749" lon="6.69665">
        <ele>2082.26</ele>
        <time>2016-03-25T11:50:05Z</time>
      </trkpt>
      <trkpt lat="45.50729" lon="6.69658">
        <ele>2086.28</ele>
        <time>2016-03-25T11:50:10Z</time>
      </trkpt>
      <trkpt lat="45.5071" lon="6.69653">
        <ele>2089.68</ele>
        <time>2016-03-25T11:50:15Z</time>
      </trkpt>
      <trkpt lat="45.5069" lon="6.69646">
        <ele>2092.32</ele>
        <time>2016-03-25T11:50:20Z</time>
      </trkpt>
      <trkpt lat="45.50671" lon="6.6964">
        <ele>2095.29</ele>
        <time>2016-03-25T11:50:25Z</time>
      </trkpt>
      <trkpt lat="45.5065" lon="6.69633">
        <ele>2100.28</ele>
        <time>2016-03-25T11:50:30Z</time>
      </trkpt>
      <trkpt lat="45.5063" lon="6.69626">
        <ele>2106.33</ele>
        <time>2016-03-25T11:50:35Z</time>
      </trkpt>
      <trkpt lat="45.5061" lon="6.69618">
        <ele>2106.52</ele>
        <time>2016-03-25T11:50:40Z</time>
      </trkpt>
      <trkpt lat="45.50589" lon="6.6961">
        <ele>2110.52</ele>
        <time>2016-03-25T11:50:45Z</time>
      </trkpt>
      <trkpt lat="45.5057" lon="6.69604">
        <ele>2111.49</ele>
        <time>2016-03-25T11:50:50Z</time>
      </trkpt>
      <trkpt lat="45.5055" lon="6.69597">
        <ele>2113.48</ele>
        <time>2016-03-25T11:50:55Z</time>
      </trkpt>
      <trkpt lat="45.5053" lon="6.6959">
        <ele>2115.32</ele>
        <time>2016-03-25T11:51:00Z</time>
      </trkpt>
      <trkpt lat="45.50511" lon="6.69582">
        <ele>2116.52</ele>
        <time>2016-03-25T11:51:05Z</time>
      </trkpt>
      <trkpt lat="45.50491" lon="6.69577">
        <ele>2116.69</ele>
        <time>2016-03-25T11:51:10Z</time>
      </trkpt>
      <trkpt lat="45.50471" lon="6.69572">
        <ele>2118.49</ele>
        <time>2016-03-25T11:51:15Z</time>
      </trkpt>
      <trkpt lat="45.50451" lon="6.69566">
        <ele>2121.33</ele>
        <time>2016-03-25T11:51:20Z</time>
      </trkpt>
      <trkpt lat="45.50431" lon="6.69558">
        <ele>2124.29</ele>
        <time>2016-03-25T11:51:25Z</time>
      </trkpt>
      <trkpt lat="45.50412" lon="6.69553">
        <ele>2127.48</ele>
        <time>2016-03-25T11:51:30Z</time>
      </trkpt>
      <trkpt lat="45.50393" lon="6.69547">
        <ele>2132.48</ele>
        <time>2016-03-25T11:51:35Z</time>
      </trkpt>
      <trkpt lat="45.50373" lon="6.6954">
        <ele>2135.52</ele>
        <time>2016-03-25T11:51:40Z</time>
      </trkpt>
      <trkpt lat="45.50353" lon="6.69534">
        <ele>2135.53</ele>
        <time>2016-03-25T11:51:45Z</time>
      </trkpt>
      <trkpt lat="45.50335" lon="6.6953">
        <ele>2138.09</ele>
        <time>2016-03-25T11:51:50Z</time>
      </trkpt>
      <trkpt lat="45.50315" lon="6.69523">
        <ele>2140.49</ele>
        <time>2016-03-25T11:51:55Z</time>
      </trkpt>
      <trkpt lat="45.50295" lon="6.69516">
        <ele>2142.49</ele>
        <time>2016-03-25T11:52:00Z</time>
      </trkpt>
      <trkpt lat="45.50276" lon="6.6951">
        <ele>2145.32</ele>
        <time>2016-03-25T11:52:05Z</time>
      </trkpt>
      <trkpt lat="45.50256" lon="6.69505">
        <ele>2147.49</ele>
        <time>2016-03-25T11:52:10Z</time>
      </trkpt>
      <trkpt lat="45.50234" lon="6.69498">
        <ele>2149.52</ele>
        <time>2016-03-25T11:52:15Z</time>
      </trkpt>
      <trkpt lat="45.50214" lon="6.69491">
        <ele>2154.28</ele>
        <time>2016-03-25T11:52:19Z</time>
      </trkpt>
      <trkpt lat="45.50194" lon="6.69488">
        <ele>2156.12</ele>
        <time>2016-03-25T11:52:23Z</time>
      </trkpt>
      <trkpt lat="45.50175" lon="6.69483">
        <ele>2160.28</ele>
        <time>2016-03-25T11:52:27Z</time>
      </trkpt>
      <trkpt lat="45.50155" lon="6.69475">
        <ele>2166.07</ele>
        <time>2016-03-25T11:52:31Z</time>
      </trkpt>
      <trkpt lat="45.50133" lon="6.6947">
        <ele>2171.12</ele>
        <time>2016-03-25T11:52:35Z</time>
      </trkpt>
      <trkpt lat="45.50113" lon="6.69465">
        <ele>2174.32</ele>
        <time>2016-03-25T11:52:39Z</time>
      </trkpt>
      <trkpt lat="45.50093" lon="6.69458">
        <ele>2180.07</ele>
        <time>2016-03-25T11:52:43Z</time>
      </trkpt>
      <trkpt lat="45.50072" lon="6.69452">
        <ele>2185.24</ele>
        <time>2016-03-25T11:52:47Z</time>
      </trkpt>
      <trkpt lat="45.50052" lon="6.69445">
        <ele>2192.83</ele>
        <time>2016-03-25T11:52:51Z</time>
      </trkpt>
      <trkpt lat="45.50031" lon="6.69439">
        <ele>2195.49</ele>
        <time>2016-03-25T11:52:55Z</time>
      </trkpt>
      <trkpt lat="45.5001" lon="6.69433">
        <ele>2198.29</ele>
        <time>2016-03-25T11:52:59Z</time>
      </trkpt>
      <trkpt lat="45.49989" lon="6.69427">
        <ele>2201.28</ele>
        <time>2016-03-25T11:53:03Z</time>
      </trkpt>
      <trkpt lat="45.49968" lon="6.69421">
        <ele>2205.25</ele>
        <time>2016-03-25T11:53:07Z</time>
      </trkpt>
      <trkpt lat="45.49949" lon="6.69415">
        <ele>2209.93</ele>
        <time>2016-03-25T11:53:11Z</time>
      </trkpt>
      <trkpt lat="45.49928" lon="6.69407">
        <ele>2217.06</ele>
        <time>2016-03-25T11:53:15Z</time>
      </trkpt>
      <trkpt lat="45.49906" lon="6.69398">
        <ele>2227.21</ele>
        <time>2016-03-25T11:53:19Z</time>
      </trkpt>
      <trkpt lat="45.49884" lon="6.69391">
        <ele>2229.48</ele>
        <time>2016-03-25T11:53:23Z</time>
      </trkpt>
      <trkpt lat="45.49864" lon="6.69385">
        <ele>2233.28</ele>
        <time>2016-03-25T11:53:27Z</time>
      </trkpt>
      <trkpt lat="45.49842" lon="6.6938">
        <ele>2236.48</ele>
        <time>2016-03-25T11:53:31Z</time>
      </trkpt>
      <trkpt lat="45.49823" lon="6.69375">
        <ele>2241.4</ele>
        <time>2016-03-25T11:53:35Z</time>
      </trkpt>
      <trkpt lat="45.49804" lon="6.69361">
        <ele>2240.57</ele>
        <time>2016-03-25T11:53:39Z</time>
      </trkpt>
      <trkpt lat="45.49787" lon="6.69348">
        <ele>2242.37</ele>
        <time>2016-03-25T11:53:48Z</time>
      </trkpt>
      <trkpt lat="45.49769" lon="6.69332">
        <ele>2245.73</ele>
        <time>2016-03-25T11:54:15Z</time>
      </trkpt>
      <trkpt lat="45.49754" lon="6.69318">
        <ele>2243.58</ele>
        <time>2016-03-25T11:54:19Z</time>
      </trkpt>
      <trkpt lat="45.49744" lon="6.69287">
        <ele>2240.58</ele>
        <time>2016-03-25T11:54:23Z</time>
      </trkpt>
      <trkpt lat="45.49755" lon="6.69262">
        <ele>2236.74</ele>
        <time>2016-03-25T11:54:27Z</time>
      </trkpt>
      <trkpt lat="45.49769" lon="6.69238">
        <ele>2235.57</ele>
        <time>2016-03-25T11:54:30Z</time>
      </trkpt>
      <trkpt lat="45.49784" lon="6.69217">
        <ele>2232.55</ele>
        <time>2016-03-25T11:54:34Z</time>
      </trkpt>
      <trkpt lat="45.49804" lon="6.69197">
        <ele>2227.78</ele>
        <time>2016-03-25T11:54:39Z</time>
      </trkpt>
      <trkpt lat="45.4982" lon="6.69184">
        <ele>2226.73</ele>
        <time>2016-03-25T11:54:42Z</time>
      </trkpt>
      <trkpt lat="45.49836" lon="6.6917">
        <ele>2226.53</ele>
        <time>2016-03-25T11:54:45Z</time>
      </trkpt>
      <trkpt lat="45.49854" lon="6.69155">
        <ele>2227.52</ele>
        <time>2016-03-25T11:54:48Z</time>
      </trkpt>
      <trkpt lat="45.49871" lon="6.69146">
        <ele>2226.73</ele>
        <time>2016-03-25T11:54:51Z</time>
      </trkpt>
      <trkpt lat="45.49889" lon="6.69138">
        <ele>2225.57</ele>
        <time>2016-03-25T11:54:54Z</time>
      </trkpt>
      <trkpt lat="45.49906" lon="6.69123">
        <ele>2225.53</ele>
        <time>2016-03-25T11:54:57Z</time>
      </trkpt>
      <trkpt lat="45.49922" lon="6.69106">
        <ele>2224.57</ele>
        <time>2016-03-25T11:55:00Z</time>
      </trkpt>
      <trkpt lat="45.49943" lon="6.69094">
        <ele>2224.56</ele>
        <time>2016-03-25T11:55:03Z</time>
      </trkpt>
      <trkpt lat="45.49965" lon="6.69087">
        <ele>2220.02</ele>
        <time>2016-03-25T11:55:06Z</time>
      </trkpt>
      <trkpt lat="45.49989" lon="6.69083">
        <ele>2216.81</ele>
        <time>2016-03-25T11:55:09Z</time>
      </trkpt>
      <trkpt lat="45.50008" lon="6.69075">
        <ele>2214.74</ele>
        <time>2016-03-25T11:55:12Z</time>
      </trkpt>
      <trkpt lat="45.5003" lon="6.69077">
        <ele>2211.01</ele>
        <time>2016-03-25T11:55:15Z</time>
      </trkpt>
      <trkpt lat="45.50049" lon="6.69072">
        <ele>2204.2</ele>
        <time>2016-03-25T11:55:18Z</time>
      </trkpt>
      <trkpt lat="45.50072" lon="6.69069">
        <ele>2199.82</ele>
        <time>2016-03-25T11:55:21Z</time>
      </trkpt>
      <trkpt lat="45.50096" lon="6.69055">
        <ele>2191.02</ele>
        <time>2016-03-25T11:55:25Z</time>
      </trkpt>
      <trkpt lat="45.50122" lon="6.69046">
        <ele>2185.83</ele>
        <time>2016-03-25T11:55:28Z</time>
      </trkpt>
      <trkpt lat="45.50138" lon="6.6903">
        <ele>2183.62</ele>
        <time>2016-03-25T11:55:30Z</time>
      </trkpt>
      <trkpt lat="45.50157" lon="6.69005">
        <ele>2181.61</ele>
        <time>2016-03-25T11:55:33Z</time>
      </trkpt>
      <trkpt lat="45.50174" lon="6.68976">
        <ele>2179.74</ele>
        <time>2016-03-25T11:55:36Z</time>
      </trkpt>
      <trkpt lat="45.50183" lon="6.68947">
        <ele>2174.16</ele>
        <time>2016-03-25T11:55:39Z</time>
      </trkpt>
      <trkpt lat="45.50199" lon="6.68919">
        <ele>2169.82</ele>
        <time>2016-03-25T11:55:42Z</time>
      </trkpt>
      <trkpt lat="45.50212" lon="6.68901">
        <ele>2168.74</ele>
        <time>2016-03-25T11:55:44Z</time>
      </trkpt>
      <trkpt lat="45.50221" lon="6.68874">
        <ele>2161.81</ele>
        <time>2016-03-25T11:55:47Z</time>
      </trkpt>
      <trkpt lat="45.50236" lon="6.68839">
        <ele>2158.81</ele>
        <time>2016-03-25T11:55:50Z</time>
      </trkpt>
      <trkpt lat="45.50249" lon="6.6881">
        <ele>2155.81</ele>
        <time>2016-03-25T11:55:53Z</time>
      </trkpt>
      <trkpt lat="45.5026" lon="6.68781">
        <ele>2150.06</ele>
        <time>2016-03-25T11:55:57Z</time>
      </trkpt>
      <trkpt lat="45.50278" lon="6.68769">
        <ele>2145.79</ele>
        <time>2016-03-25T11:56:00Z</time>
      </trkpt>
      <trkpt lat="45.50296" lon="6.68739">
        <ele>2141.98</ele>
        <time>2016-03-25T11:56:03Z</time>
      </trkpt>
      <trkpt lat="45.50306" lon="6.68714">
        <ele>2138.99</ele>
        <time>2016-03-25T11:56:05Z</time>
      </trkpt>
      <trkpt lat="45.5032" lon="6.68688">
        <ele>2135.83</ele>
        <time>2016-03-25T11:56:07Z</time>
      </trkpt>
      <trkpt lat="45.50331" lon="6.68662">
        <ele>2129.78</ele>
        <time>2016-03-25T11:56:09Z</time>
      </trkpt>
      <trkpt lat="45.50343" lon="6.68638">
        <ele>2129.54</ele>
        <time>2016-03-25T11:56:11Z</time>
      </trkpt>
      <trkpt lat="45.50357" lon="6.68607">
        <ele>2127.61</ele>
        <time>2016-03-25T11:56:14Z</time>
      </trkpt>
      <trkpt lat="45.50371" lon="6.6858">
        <ele>2126.54</ele>
        <time>2016-03-25T11:56:17Z</time>
      </trkpt>
      <trkpt lat="45.50377" lon="6.68551">
        <ele>2116.71</ele>
        <time>2016-03-25T11:56:20Z</time>
      </trkpt>
      <trkpt lat="45.50384" lon="6.68526">
        <ele>2113.82</ele>
        <time>2016-03-25T11:56:22Z</time>
      </trkpt>
      <trkpt lat="45.50393" lon="6.68503">
        <ele>2110.98</ele>
        <time>2016-03-25T11:56:24Z</time>
      </trkpt>
      <trkpt lat="45.50402" lon="6.68474">
        <ele>2110.57</ele>
        <time>2016-03-25T11:56:27Z</time>
      </trkpt>
      <trkpt lat="45.50408" lon="6.68441">
        <ele>2109.5</ele>
        <time>2016-03-25T11:56:31Z</time>
      </trkpt>
      <trkpt lat="45.50408" lon="6.68415">
        <ele>2106.78</ele>
        <time>2016-03-25T11:56:34Z</time>
      </trkpt>
      <trkpt lat="45.50405" lon="6.68381">
        <ele>2103.58</ele>
        <time>2016-03-25T11:56:38Z</time>
      </trkpt>
      <trkpt lat="45.50396" lon="6.68353">
        <ele>2100.59</ele>
        <time>2016-03-25T11:56:41Z</time>
      </trkpt>
      <trkpt lat="45.50383" lon="6.68323">
        <ele>2094.82</ele>
        <time>2016-03-25T11:56:45Z</time>
      </trkpt>
      <trkpt lat="45.50371" lon="6.68294">
        <ele>2092.55</ele>
        <time>2016-03-25T11:56:49Z</time>
      </trkpt>
      <trkpt lat="45.50366" lon="6.68259">
        <ele>2089.78</ele>
        <time>2016-03-25T11:56:52Z</time>
      </trkpt>
      <trkpt lat="45.5036" lon="6.68225">
        <ele>2086.78</ele>
        <time>2016-03-25T11:56:55Z</time>
      </trkpt>
      <trkpt lat="45.50347" lon="6.68196">
        <ele>2081.99</ele>
        <time>2016-03-25T11:56:58Z</time>
      </trkpt>
      <trkpt lat="45.50339" lon="6.68158">
        <ele>2077.98</ele>
        <time>2016-03-25T11:57:01Z</time>
      </trkpt>
      <trkpt lat="45.50334" lon="6.68132">
        <ele>2076.75</ele>
        <time>2016-03-25T11:57:03Z</time>
      </trkpt>
      <trkpt lat="45.50328" lon="6.68106">
        <ele>2075.74</ele>
        <time>2016-03-25T11:57:05Z</time>
      </trkpt>
      <trkpt lat="45.50332" lon="6.68072">
        <ele>2072.62</ele>
        <time>2016-03-25T11:57:08Z</time>
      </trkpt>
      <trkpt lat="45.50336" lon="6.68044">
        <ele>2070.13</ele>
        <time>2016-03-25T11:57:10Z</time>
      </trkpt>
      <trkpt lat="45.50346" lon="6.68011">
        <ele>2058.79</ele>
        <time>2016-03-25T11:57:15Z</time>
      </trkpt>
      <trkpt lat="45.50356" lon="6.67983">
        <ele>2055.81</ele>
        <time>2016-03-25T11:57:18Z</time>
      </trkpt>
      <trkpt lat="45.50365" lon="6.67957">
        <ele>2052.98</ele>
        <time>2016-03-25T11:57:20Z</time>
      </trkpt>
      <trkpt lat="45.50365" lon="6.67929">
        <ele>2045.86</ele>
        <time>2016-03-25T11:57:24Z</time>
      </trkpt>
      <trkpt lat="45.50362" lon="6.67895">
        <ele>2034.21</ele>
        <time>2016-03-25T11:57:28Z</time>
      </trkpt>
      <trkpt lat="45.50363" lon="6.67865">
        <ele>2027.87</ele>
        <time>2016-03-25T11:57:31Z</time>
      </trkpt>
      <trkpt lat="45.50378" lon="6.67832">
        <ele>2022.83</ele>
        <time>2016-03-25T11:57:34Z</time>
      </trkpt>
      <trkpt lat="45.50389" lon="6.67801">
        <ele>2016.84</ele>
        <time>2016-03-25T11:57:37Z</time>
      </trkpt>
      <trkpt lat="45.504" lon="6.67772">
        <ele>2011.99</ele>
        <time>2016-03-25T11:57:40Z</time>
      </trkpt>
      <trkpt lat="45.5041" lon="6.67743">
        <ele>2006.58</ele>
        <time>2016-03-25T11:57:44Z</time>
      </trkpt>
      <trkpt lat="45.50414" lon="6.67714">
        <ele>2001.41</ele>
        <time>2016-03-25T11:57:50Z</time>
      </trkpt>
      <trkpt lat="45.50424" lon="6.6769">
        <ele>1998.74</ele>
        <time>2016-03-25T11:57:56Z</time>
      </trkpt>
      <trkpt lat="45.5043" lon="6.67662">
        <ele>1994.98</ele>
        <time>2016-03-25T11:57:59Z</time>
      </trkpt>
      <trkpt lat="45.50443" lon="6.67636">
        <ele>1995.56</ele>
        <time>2016-03-25T11:58:03Z</time>
      </trkpt>
      <trkpt lat="45.50452" lon="6.67604">
        <ele>1989.66</ele>
        <time>2016-03-25T11:58:07Z</time>
      </trkpt>
      <trkpt lat="45.50464" lon="6.67576">
        <ele>1988.54</ele>
        <time>2016-03-25T11:58:11Z</time>
      </trkpt>
      <trkpt lat="45.5047" lon="6.67549">
        <ele>1990.32</ele>
        <time>2016-03-25T11:58:16Z</time>
      </trkpt>
      <trkpt lat="45.50472" lon="6.67522">
        <ele>1991.17</ele>
        <time>2016-03-25T11:58:22Z</time>
      </trkpt>
      <trkpt lat="45.50466" lon="6.67497">
        <ele>1990.37</ele>
        <time>2016-03-25T11:58:31Z</time>
      </trkpt>
      <trkpt lat="45.50462" lon="6.67469">
        <ele>1990.73</ele>
        <time>2016-03-25T11:58:45Z</time>
      </trkpt>
      <trkpt lat="45.50455" lon="6.67444">
        <ele>1992.3</ele>
        <time>2016-03-25T11:59:05Z</time>
      </trkpt>
      <trkpt lat="45.50446" lon="6.67422">
        <ele>1989.57</ele>
        <time>2016-03-25T11:59:32Z</time>
      </trkpt>
      <trkpt lat="45.50442" lon="6.67396">
        <ele>1990.32</ele>
        <time>2016-03-25T11:59:36Z</time>
      </trkpt>
      <trkpt lat="45.50436" lon="6.6737">
        <ele>1992.72</ele>
        <time>2016-03-25T11:59:41Z</time>
      </trkpt>
      <trkpt lat="45.50431" lon="6.67344">
        <ele>1995.48</ele>
        <time>2016-03-25T11:59:45Z</time>
      </trkpt>
      <trkpt lat="45.50425" lon="6.67315">
        <ele>2000.28</ele>
        <time>2016-03-25T11:59:50Z</time>
      </trkpt>
      <trkpt lat="45.50418" lon="6.67284">
        <ele>2007.27</ele>
        <time>2016-03-25T11:59:55Z</time>
      </trkpt>
      <trkpt lat="45.50412" lon="6.67254">
        <ele>2013.24</ele>
        <time>2016-03-25T12:00:00Z</time>
      </trkpt>
      <trkpt lat="45.50407" lon="6.67229">
        <ele>2020.07</ele>
        <time>2016-03-25T12:00:04Z</time>
      </trkpt>
      <trkpt lat="45.50401" lon="6.67203">
        <ele>2029.06</ele>
        <time>2016-03-25T12:00:09Z</time>
      </trkpt>
      <trkpt lat="45.50395" lon="6.67174">
        <ele>2036.23</ele>
        <time>2016-03-25T12:00:14Z</time>
      </trkpt>
      <trkpt lat="45.50389" lon="6.67146">
        <ele>2046.03</ele>
        <time>2016-03-25T12:00:19Z</time>
      </trkpt>
      <trkpt lat="45.50383" lon="6.67119">
        <ele>2056.03</ele>
        <time>2016-03-25T12:00:24Z</time>
      </trkpt>
      <trkpt lat="45.50377" lon="6.67091">
        <ele>2063.27</ele>
        <time>2016-03-25T12:00:29Z</time>
      </trkpt>
      <trkpt lat="45.50372" lon="6.67062">
        <ele>2068.23</ele>
        <time>2016-03-25T12:00:33Z</time>
      </trkpt>
      <trkpt lat="45.50366" lon="6.67035">
        <ele>2074.23</ele>
        <time>2016-03-25T12:00:37Z</time>
      </trkpt>
      <trkpt lat="45.5036" lon="6.67009">
        <ele>2082.23</ele>
        <time>2016-03-25T12:00:42Z</time>
      </trkpt>
      <trkpt lat="45.50354" lon="6.6698">
        <ele>2091.03</ele>
        <time>2016-03-25T12:00:47Z</time>
      </trkpt>
      <trkpt lat="45.50348" lon="6.6695">
        <ele>2099.07</ele>
        <time>2016-03-25T12:00:52Z</time>
      </trkpt>
      <trkpt lat="45.50342" lon="6.66922">
        <ele>2109.03</ele>
        <time>2016-03-25T12:00:57Z</time>
      </trkpt>
      <trkpt lat="45.50336" lon="6.66894">
        <ele>2118.02</ele>
        <time>2016-03-25T12:01:02Z</time>
      </trkpt>
      <trkpt lat="45.5033" lon="6.66864">
        <ele>2123.24</ele>
        <time>2016-03-25T12:01:07Z</time>
      </trkpt>
      <trkpt lat="45.50323" lon="6.66837">
        <ele>2129.32</ele>
        <time>2016-03-25T12:01:12Z</time>
      </trkpt>
      <trkpt lat="45.50317" lon="6.6681">
        <ele>2136.24</ele>
        <time>2016-03-25T12:01:17Z</time>
      </trkpt>
      <trkpt lat="45.5031" lon="6.66779">
        <ele>2144.23</ele>
        <time>2016-03-25T12:01:22Z</time>
      </trkpt>
      <trkpt lat="45.50304" lon="6.6675">
        <ele>2153.07</ele>
        <time>2016-03-25T12:01:27Z</time>
      </trkpt>
      <trkpt lat="45.50298" lon="6.66723">
        <ele>2161.27</ele>
        <time>2016-03-25T12:01:32Z</time>
      </trkpt>
      <trkpt lat="45.50294" lon="6.66698">
        <ele>2166.09</ele>
        <time>2016-03-25T12:01:36Z</time>
      </trkpt>
      <trkpt lat="45.50287" lon="6.66667">
        <ele>2171.47</ele>
        <time>2016-03-25T12:01:41Z</time>
      </trkpt>
      <trkpt lat="45.50281" lon="6.6664">
        <ele>2178.24</ele>
        <time>2016-03-25T12:01:46Z</time>
      </trkpt>
      <trkpt lat="45.50275" lon="6.66611">
        <ele>2186.24</ele>
        <time>2016-03-25T12:01:51Z</time>
      </trkpt>
      <trkpt lat="45.50269" lon="6.66584">
        <ele>2192.24</ele>
        <time>2016-03-25T12:01:56Z</time>
      </trkpt>
      <trkpt lat="45.50263" lon="6.66553">
        <ele>2200.07</ele>
        <time>2016-03-25T12:02:01Z</time>
      </trkpt>
      <trkpt lat="45.50257" lon="6.66528">
        <ele>2208.04</ele>
        <time>2016-03-25T12:02:06Z</time>
      </trkpt>
      <trkpt lat="45.50253" lon="6.66503">
        <ele>2215.04</ele>
        <time>2016-03-25T12:02:10Z</time>
      </trkpt>
      <trkpt lat="45.50247" lon="6.66473">
        <ele>2222.27</ele>
        <time>2016-03-25T12:02:15Z</time>
      </trkpt>
      <trkpt lat="45.50242" lon="6.66447">
        <ele>2230.03</ele>
        <time>2016-03-25T12:02:19Z</time>
      </trkpt>
      <trkpt lat="45.50236" lon="6.66423">
        <ele>2239.03</ele>
        <time>2016-03-25T12:02:23Z</time>
      </trkpt>
      <trkpt lat="45.50231" lon="6.66397">
        <ele>2249.03</ele>
        <time>2016-03-25T12:02:28Z</time>
      </trkpt>
      <trkpt lat="45.50224" lon="6.66369">
        <ele>2258.06</ele>
        <time>2016-03-25T12:02:33Z</time>
      </trkpt>
      <trkpt lat="45.50218" lon="6.66339">
        <ele>2267.43</ele>
        <time>2016-03-25T12:02:39Z</time>
      </trkpt>
      <trkpt lat="45.50212" lon="6.66311">
        <ele>2276.88</ele>
        <time>2016-03-25T12:02:44Z</time>
      </trkpt>
      <trkpt lat="45.50205" lon="6.66283">
        <ele>2286.07</ele>
        <time>2016-03-25T12:02:49Z</time>
      </trkpt>
      <trkpt lat="45.502" lon="6.66256">
        <ele>2296.78</ele>
        <time>2016-03-25T12:02:54Z</time>
      </trkpt>
      <trkpt lat="45.50196" lon="6.66229">
        <ele>2310.82</ele>
        <time>2016-03-25T12:02:59Z</time>
      </trkpt>
      <trkpt lat="45.50191" lon="6.66202">
        <ele>2321.78</ele>
        <time>2016-03-25T12:03:03Z</time>
      </trkpt>
      <trkpt lat="45.50184" lon="6.66173">
        <ele>2333.19</ele>
        <time>2016-03-25T12:03:09Z</time>
      </trkpt>
      <trkpt lat="45.50182" lon="6.66147">
        <ele>2336.53</ele>
        <time>2016-03-25T12:03:18Z</time>
      </trkpt>
      <trkpt lat="45.50191" lon="6.66124">
        <ele>2337.54</ele>
        <time>2016-03-25T12:03:28Z</time>
      </trkpt>
      <trkpt lat="45.50211" lon="6.66123">
        <ele>2337.53</ele>
        <time>2016-03-25T12:03:35Z</time>
      </trkpt>
      <trkpt lat="45.5023" lon="6.66124">
        <ele>2336.73</ele>
        <time>2016-03-25T12:03:40Z</time>
      </trkpt>
      <trkpt lat="45.5025" lon="6.66121">
        <ele>2334.74</ele>
        <time>2016-03-25T12:03:44Z</time>
      </trkpt>
      <trkpt lat="45.50272" lon="6.66112">
        <ele>2333.57</ele>
        <time>2016-03-25T12:03:48Z</time>
      </trkpt>
      <trkpt lat="45.50291" lon="6.66099">
        <ele>2331.54</ele>
        <time>2016-03-25T12:03:52Z</time>
      </trkpt>
      <trkpt lat="45.50312" lon="6.66092">
        <ele>2329.74</ele>
        <time>2016-03-25T12:03:56Z</time>
      </trkpt>
      <trkpt lat="45.50332" lon="6.66092">
        <ele>2325.79</ele>
        <time>2016-03-25T12:04:00Z</time>
      </trkpt>
      <trkpt lat="45.50355" lon="6.66093">
        <ele>2322.74</ele>
        <time>2016-03-25T12:04:04Z</time>
      </trkpt>
      <trkpt lat="45.50373" lon="6.66092">
        <ele>2320.58</ele>
        <time>2016-03-25T12:04:07Z</time>
      </trkpt>
      <trkpt lat="45.50395" lon="6.66089">
        <ele>2319.74</ele>
        <time>2016-03-25T12:04:11Z</time>
      </trkpt>
      <trkpt lat="45.50414" lon="6.66086">
        <ele>2316.74</ele>
        <time>2016-03-25T12:04:16Z</time>
      </trkpt>
      <trkpt lat="45.50434" lon="6.66081">
        <ele>2315.54</ele>
        <time>2016-03-25T12:04:23Z</time>
      </trkpt>
      <trkpt lat="45.50453" lon="6.66081">
        <ele>2312.53</ele>
        <time>2016-03-25T12:04:30Z</time>
      </trkpt>
      <trkpt lat="45.50473" lon="6.66081">
        <ele>2309.37</ele>
        <time>2016-03-25T12:04:40Z</time>
      </trkpt>
      <trkpt lat="45.50496" lon="6.66084">
        <ele>2308.73</ele>
        <time>2016-03-25T12:04:48Z</time>
      </trkpt>
      <trkpt lat="45.50516" lon="6.66096">
        <ele>2307.73</ele>
        <time>2016-03-25T12:04:52Z</time>
      </trkpt>
      <trkpt lat="45.50534" lon="6.66109">
        <ele>2303.97</ele>
        <time>2016-03-25T12:04:56Z</time>
      </trkpt>
      <trkpt lat="45.50556" lon="6.66118">
        <ele>2300.81</ele>
        <time>2016-03-25T12:05:00Z</time>
      </trkpt>
      <trkpt lat="45.50576" lon="6.66111">
        <ele>2297.58</ele>
        <time>2016-03-25T12:05:04Z</time>
      </trkpt>
      <trkpt lat="45.50594" lon="6.66112">
        <ele>2295.57</ele>
        <time>2016-03-25T12:05:11Z</time>
      </trkpt>
      <trkpt lat="45.50613" lon="6.66123">
        <ele>2292.57</ele>
        <time>2016-03-25T12:05:16Z</time>
      </trkpt>
      <trkpt lat="45.50632" lon="6.6613">
        <ele>2287.59</ele>
        <time>2016-03-25T12:05:21Z</time>
      </trkpt>
      <trkpt lat="45.50653" lon="6.66133">
        <ele>2286.53</ele>
        <time>2016-03-25T12:05:26Z</time>
      </trkpt>
      <trkpt lat="45.50669" lon="6.66148">
        <ele>2284.73</ele>
        <time>2016-03-25T12:05:31Z</time>
      </trkpt>
      <trkpt lat="45.50686" lon="6.6617">
        <ele>2281.93</ele>
        <time>2016-03-25T12:05:36Z</time>
      </trkpt>
      <trkpt lat="45.50692" lon="6.66198">
        <ele>2276.8</ele>
        <time>2016-03-25T12:05:41Z</time>
      </trkpt>
      <trkpt lat="45.5069" lon="6.66224">
        <ele>2274.57</ele>
        <time>2016-03-25T12:05:47Z</time>
      </trkpt>
      <trkpt lat="45.50691" lon="6.6625">
        <ele>2267.57</ele>
        <time>2016-03-25T12:05:57Z</time>
      </trkpt>
      <trkpt lat="45.50687" lon="6.66276">
        <ele>2266.77</ele>
        <time>2016-03-25T12:06:01Z</time>
      </trkpt>
      <trkpt lat="45.50683" lon="6.66307">
        <ele>2263.97</ele>
        <time>2016-03-25T12:06:05Z</time>
      </trkpt>
      <trkpt lat="45.50685" lon="6.66339">
        <ele>2259.21</ele>
        <time>2016-03-25T12:06:09Z</time>
      </trkpt>
      <trkpt lat="45.50689" lon="6.66367">
        <ele>2252.87</ele>
        <time>2016-03-25T12:06:14Z</time>
      </trkpt>
      <trkpt lat="45.50709" lon="6.66375">
        <ele>2233.61</ele>
        <time>2016-03-25T12:06:31Z</time>
      </trkpt>
      <trkpt lat="45.50726" lon="6.66388">
        <ele>2229.73</ele>
        <time>2016-03-25T12:06:37Z</time>
      </trkpt>
      <trkpt lat="45.50743" lon="6.66403">
        <ele>2226.58</ele>
        <time>2016-03-25T12:06:42Z</time>
      </trkpt>
      <trkpt lat="45.50757" lon="6.66421">
        <ele>2221.77</ele>
        <time>2016-03-25T12:06:47Z</time>
      </trkpt>
      <trkpt lat="45.50771" lon="6.66439">
        <ele>2216.58</ele>
        <time>2016-03-25T12:06:54Z</time>
      </trkpt>
      <trkpt lat="45.50759" lon="6.66462">
        <ele>2209.77</ele>
        <time>2016-03-25T12:07:13Z</time>
      </trkpt>
      <trkpt lat="45.50739" lon="6.66477">
        <ele>2207.57</ele>
        <time>2016-03-25T12:07:18Z</time>
      </trkpt>
      <trkpt lat="45.50717" lon="6.66482">
        <ele>2203.79</ele>
        <time>2016-03-25T12:07:22Z</time>
      </trkpt>
      <trkpt lat="45.50699" lon="6.66488">
        <ele>2203.53</ele>
        <time>2016-03-25T12:07:25Z</time>
      </trkpt>
      <trkpt lat="45.50681" lon="6.66495">
        <ele>2199.79</ele>
        <time>2016-03-25T12:07:28Z</time>
      </trkpt>
      <trkpt lat="45.50661" lon="6.66507">
        <ele>2198.54</ele>
        <time>2016-03-25T12:07:31Z</time>
      </trkpt>
      <trkpt lat="45.50643" lon="6.66517">
        <ele>2194.78</ele>
        <time>2016-03-25T12:07:36Z</time>
      </trkpt>
      <trkpt lat="45.50656" lon="6.66544">
        <ele>2183.96</ele>
        <time>2016-03-25T12:07:42Z</time>
      </trkpt>
      <trkpt lat="45.50673" lon="6.6657">
        <ele>2177.07</ele>
        <time>2016-03-25T12:07:45Z</time>
      </trkpt>
      <trkpt lat="45.50688" lon="6.66587">
        <ele>2172.23</ele>
        <time>2016-03-25T12:07:47Z</time>
      </trkpt>
      <trkpt lat="45.50707" lon="6.66608">
        <ele>2165.84</ele>
        <time>2016-03-25T12:07:50Z</time>
      </trkpt>
      <trkpt lat="45.50719" lon="6.66628">
        <ele>2163.94</ele>
        <time>2016-03-25T12:07:52Z</time>
      </trkpt>
      <trkpt lat="45.50738" lon="6.66626">
        <ele>2156.83</ele>
        <time>2016-03-25T12:07:56Z</time>
      </trkpt>
      <trkpt lat="45.50755" lon="6.66618">
        <ele>2152.78</ele>
        <time>2016-03-25T12:08:00Z</time>
      </trkpt>
      <trkpt lat="45.50774" lon="6.66606">
        <ele>2150.58</ele>
        <time>2016-03-25T12:08:05Z</time>
      </trkpt>
      <trkpt lat="45.50793" lon="6.6659">
        <ele>2146.61</ele>
        <time>2016-03-25T12:08:10Z</time>
      </trkpt>
      <trkpt lat="45.50814" lon="6.6658">
        <ele>2143.74</ele>
        <time>2016-03-25T12:08:15Z</time>
      </trkpt>
      <trkpt lat="45.50832" lon="6.66573">
        <ele>2139.98</ele>
        <time>2016-03-25T12:08:18Z</time>
      </trkpt>
      <trkpt lat="45.50852" lon="6.66564">
        <ele>2135.59</ele>
        <time>2016-03-25T12:08:22Z</time>
      </trkpt>
      <trkpt lat="45.50874" lon="6.66554">
        <ele>2134.37</ele>
        <time>2016-03-25T12:08:26Z</time>
      </trkpt>
      <trkpt lat="45.50894" lon="6.66542">
        <ele>2133.53</ele>
        <time>2016-03-25T12:08:31Z</time>
      </trkpt>
      <trkpt lat="45.50914" lon="6.66533">
        <ele>2130.74</ele>
        <time>2016-03-25T12:08:36Z</time>
      </trkpt>
      <trkpt lat="45.50935" lon="6.66517">
        <ele>2127.78</ele>
        <time>2016-03-25T12:08:41Z</time>
      </trkpt>
      <trkpt lat="45.50957" lon="6.6651">
        <ele>2124.74</ele>
        <time>2016-03-25T12:08:45Z</time>
      </trkpt>
      <trkpt lat="45.50975" lon="6.665">
        <ele>2121.75</ele>
        <time>2016-03-25T12:08:49Z</time>
      </trkpt>
      <trkpt lat="45.50994" lon="6.66495">
        <ele>2121.53</ele>
        <time>2016-03-25T12:08:55Z</time>
      </trkpt>
      <trkpt lat="45.51012" lon="6.66487">
        <ele>2119.94</ele>
        <time>2016-03-25T12:09:04Z</time>
      </trkpt>
      <trkpt lat="45.51031" lon="6.66478">
        <ele>2113.75</ele>
        <time>2016-03-25T12:09:09Z</time>
      </trkpt>
      <trkpt lat="45.51052" lon="6.6647">
        <ele>2109.78</ele>
        <time>2016-03-25T12:09:13Z</time>
      </trkpt>
      <trkpt lat="45.51069" lon="6.66463">
        <ele>2109.37</ele>
        <time>2016-03-25T12:09:20Z</time>
      </trkpt>
      <trkpt lat="45.51086" lon="6.66472">
        <ele>2105.03</ele>
        <time>2016-03-25T12:09:29Z</time>
      </trkpt>
      <trkpt lat="45.51111" lon="6.66477">
        <ele>2098.79</ele>
        <time>2016-03-25T12:09:34Z</time>
      </trkpt>
      <trkpt lat="45.5113" lon="6.6649">
        <ele>2095.98</ele>
        <time>2016-03-25T12:09:36Z</time>
      </trkpt>
      <trkpt lat="45.51151" lon="6.66514">
        <ele>2094.54</ele>
        <time>2016-03-25T12:09:39Z</time>
      </trkpt>
      <trkpt lat="45.51175" lon="6.66532">
        <ele>2095.33</ele>
        <time>2016-03-25T12:09:42Z</time>
      </trkpt>
      <trkpt lat="45.51194" lon="6.66553">
        <ele>2093.61</ele>
        <time>2016-03-25T12:09:45Z</time>
      </trkpt>
      <trkpt lat="45.51209" lon="6.66572">
        <ele>2089.98</ele>
        <time>2016-03-25T12:09:48Z</time>
      </trkpt>
      <trkpt lat="45.51228" lon="6.66586">
        <ele>2084.64</ele>
        <time>2016-03-25T12:09:51Z</time>
      </trkpt>
      <trkpt lat="45.51242" lon="6.66609">
        <ele>2080.98</ele>
        <time>2016-03-25T12:09:54Z</time>
      </trkpt>
      <trkpt lat="45.51235" lon="6.66638">
        <ele>2077.52</ele>
        <time>2016-03-25T12:09:58Z</time>
      </trkpt>
      <trkpt lat="45.5123" lon="6.66664">
        <ele>2074.62</ele>
        <time>2016-03-25T12:10:01Z</time>
      </trkpt>
      <trkpt lat="45.51223" lon="6.66688">
        <ele>2073.57</ele>
        <time>2016-03-25T12:10:03Z</time>
      </trkpt>
    </trkseg>
  </trk>
</gpx>